[[{"header":{"parameterUnit":"m.s-1","parameterCategory":1,"la1":31.0,"la2":29.5877,"lo1":-88.7671,"lo2":-86.6584,"dy":0.0162,"dx":0.0185,"nx":115,"ny":88,"refTime":"2023-03-01T06:00:00:Z","depth":0,"parameterNumber":2,"parameterNumberName":"U-component_of_WINDS"},"data":[0.0,0.0,0.0,0.0,0.0,0.0,0.0,0.0,0.0,0.0,0.0,0.0,0.0,0.0,0.0,0.0,0.0,0.0,0.0,0.0,0.0,0.0,0.0,0.0,0.0,0.0,0.0,0.0,0.0,0.0,0.0,0.0,0.0,0.0,0.0,0.0,0.0,0.0,0.0,0.0,0.0,0.0,0.0,0.0,0.0,0.0,0.0,0.0,0.0,0.0,0.0,0.0,0.0,0.0,0.0,0.0,0.0,0.0,0.0,0.0,0.0,0.0,0.0,0.0,0.0,0.0,0.0,0.0,0.0,0.0,0.0,0.0,0.0,0.0,0.0,0.0,0.0,0.0,0.0,0.0,0.0,0.0,0.0,0.0,0.0,0.0,0.0,0.0,0.0,0.0,0.0,0.0,0.0,0.0,0.0,0.0,0.0,0.0,0.0,0.0,0.0,0.0,0.0,0.0,0.0,0.0,0.0,0.0,0.0,0.0,0.0,0.0,0.0,0.0,0.0,0.0,0.0,0.0,0.0,0.0,0.0,0.0,0.0,0.0,0.0,0.0,0.0,0.0,0.0,0.0,0.0,0.0,0.0,0.0,0.0,0.0,0.0,0.0,0.0,0.0,0.0,0.0,0.0,0.0,0.0,0.0,0.0,0.0,0.0,0.0,0.0,0.0,0.0,0.0,0.0,0.0,0.0,0.0,0.0,0.0,0.0,0.0,0.0,0.0,0.0,0.0,0.0,0.0,0.0,0.0,0.0,0.0,0.0,0.0,0.0,0.0,0.0,0.0,0.0,0.0,0.0,0.0,0.0,0.0,0.0,0.0,0.0,0.0,0.0,0.0,0.0,0.0,0.0,0.0,0.0,0.0,0.0,0.0,0.0,0.0,0.0,0.0,0.0,0.0,0.0,0.0,0.0,0.0,0.0,0.0,0.0,0.0,0.0,0.0,0.0,0.0,0.0,0.0,0.0,0.0,0.0,0.0,0.0,0.0,0.0,0.0,0.0,0.0,0.0,0.0,0.0,0.0,0.0,0.0,0.0,0.0,0.0,0.0,0.0,0.0,0.0,0.0,0.0,0.0,0.0,0.0,0.0,0.0,0.0,0.0,0.0,0.0,0.0,0.0,0.0,0.0,0.0,0.0,0.0,0.0,0.0,0.0,0.0,0.0,0.0,0.0,0.0,0.0,0.0,0.0,0.0,0.0,0.0,0.0,0.0,0.0,0.0,0.0,0.0,0.0,0.0,0.0,0.0,0.0,0.0,0.0,0.0,0.0,0.0,0.0,0.0,0.0,0.0,0.0,0.0,0.0,0.0,0.0,0.0,0.0,0.0,0.0,0.0,0.0,0.0,0.0,0.0,0.0,0.0,0.0,0.0,0.0,0.0,0.0,0.0,0.0,0.0,0.0,0.0,0.0,0.0,0.0,0.0,0.0,0.0,0.0,0.0,0.0,0.0,0.0,0.0,0.0,0.0,0.0,0.0,0.0,0.0,0.0,0.0,0.0,0.0,0.0,0.0,0.0,0.0,0.0,0.0,0.0,0.0,0.0,0.0,0.0,0.0,0.0,0.0,0.0,0.0,0.0,0.0,0.0,0.0,0.0,0.0,0.0,0.0,0.0,0.0,0.0,0.0,0.0,0.0,0.0,0.0,0.0,0.0,0.0,0.0,0.0,0.0,0.0,0.0,0.0,0.0,0.0,0.0,0.0,0.0,0.0,0.0,0.0,0.0,0.0,0.0,0.0,0.0,0.0,0.0,0.0,0.0,0.0,0.0,0.0,0.0,0.0,0.0,0.0,0.0,0.0,0.0,0.0,0.0,0.0,0.0,0.0,0.0,0.0,0.0,0.0,0.0,0.0,0.0,0.0,0.0,0.0,0.0,0.0,0.0,0.0,0.0,0.0,0.0,0.0,0.0,0.0,0.0,0.0,0.0,0.0,0.0,0.0,0.0,0.0,0.0,0.0,0.0,0.0,0.0,0.0,0.0,0.0,0.0,0.0,0.0,0.0,0.0,0.0,0.0,0.0,0.0,0.0,0.0,0.0,0.0,0.0,0.0,0.0,0.0,0.0,0.0,0.0,0.0,0.0,0.0,0.0,0.0,0.0,0.0,0.0,0.0,0.0,0.0,0.0,0.0,0.0,0.0,0.0,0.0,0.0,0.0,0.0,0.0,0.0,0.0,0.0,0.0,0.0,0.0,0.0,0.0,0.0,0.0,0.0,0.0,0.0,0.0,0.0,0.0,0.0,0.0,0.0,0.0,0.0,0.0,0.0,0.0,0.0,0.0,0.0,0.0,0.0,0.0,0.0,0.0,0.0,0.0,0.0,0.0,0.0,0.0,0.0,0.0,0.0,0.0,0.0,0.0,0.0,0.0,0.0,0.0,0.0,0.0,0.0,0.0,0.0,0.0,0.0,0.0,0.0,0.0,0.0,0.0,0.0,0.0,0.0,0.0,0.0,0.0,0.0,0.0,0.0,0.0,0.0,0.0,0.0,0.0,0.0,0.0,0.0,0.0,0.0,0.0,0.0,0.0,0.0,0.0,0.0,0.0,0.0,0.0,0.0,0.0,0.0,0.0,0.0,0.0,0.0,0.0,0.0,0.0,0.0,0.0,0.0,0.0,0.0,0.0,0.0,0.0,0.0,0.0,0.0,0.0,0.0,0.0,0.0,0.0,0.0,0.0,0.0,0.0,0.0,0.0,0.0,0.0,0.0,0.0,0.0,0.0,0.0,0.0,0.0,0.0,0.0,0.0,0.0,0.0,0.0,0.0,0.0,0.0,0.0,0.0,0.0,0.0,0.0,0.0,0.0,0.0,0.0,0.0,0.0,0.0,0.0,0.0,0.0,0.0,0.0,0.0,0.0,0.0,0.0,0.0,0.0,0.0,0.0,0.0,0.0,0.0,0.0,0.0,0.0,0.0,0.0,0.0,0.0,0.0,0.0,0.0,0.0,0.0,0.0,0.0,0.0,0.0,0.0,0.0,0.0,0.0,0.0,0.0,0.0,0.0,0.0,0.0,0.0,0.0,0.0,0.0,0.0,0.0,0.0,0.0,0.0,0.0,0.0,0.0,0.0,0.0,0.0,0.0,0.0,0.0,0.0,0.0,0.0,0.0,0.0,0.0,0.0,0.0,0.0,0.0,0.0,0.0,0.0,0.0,0.0,0.0,0.0,0.0,0.0,0.0,0.0,0.0,0.0,0.0,0.0,0.0,0.0,0.0,0.0,0.0,0.0,0.0,0.0,0.0,0.0,0.0,0.0,0.0,0.0,0.0,0.0,0.0,0.0,0.0,0.0,0.0,0.0,0.0,0.0,0.0,0.0,0.0,0.0,0.0,0.0,0.0,0.0,0.0,0.0,0.0,0.0,0.0,0.0,0.0,0.0,0.0,0.0,0.0,0.0,0.0,0.0,0.0,0.0,0.0,0.0,0.0,0.0,0.0,0.0,0.0,0.0,0.0,0.0,0.0,0.0,0.0,0.0,0.0,0.0,0.0,0.0,0.0,0.0,0.0,0.0,0.0,0.0,0.0,0.0,0.0,0.0,0.0,0.0,0.0,0.0,0.0,0.0,0.0,0.0,0.0,0.0,0.0,0.0,0.0,0.0,0.0,0.0,0.0,0.0,0.0,0.0,0.0,0.0,0.0,0.0,0.0,0.0,0.0,0.0,0.0,0.0,0.0,0.0,0.0,0.0,0.0,0.0,0.0,0.0,0.0,0.0,0.0,0.0,0.0,0.0,0.0,0.0,0.0,0.0,0.0,0.0,0.0,0.0,0.0,0.0,0.0,0.0,0.0,0.0,0.0,0.0,0.0,0.0,0.0,0.0,0.0,0.0,0.0,0.0,0.0,0.0,0.0,0.0,0.0,0.0,0.0,0.0,0.0,0.0,0.0,0.0,0.0,0.0,0.0,0.0,0.0,0.0,0.0,0.0,0.0,0.0,0.0,0.0,0.0,0.0,0.0,0.0,0.0,0.0,0.0,0.0,0.0,0.0,0.0,0.0,0.0,0.0,0.0,0.0,0.0,0.0,0.0,0.0,0.0,0.0,0.0,0.0,0.0,0.0,0.0,0.0,0.0,0.0,0.0,0.0,0.0,0.0,0.0,0.0,0.0,0.0,0.0,0.0,0.0,0.0,0.0,0.0,0.0,0.0,0.0,0.0,0.0,0.0,0.0,0.0,0.0,0.0,0.0,0.0,0.0,0.0,0.0,0.0,0.0,0.0,0.0,0.0,0.0,0.0,0.0,0.0,0.0,0.0,0.0,0.0,3.2367,0.0,0.0,0.0,0.0,0.0,0.0,0.0,0.0,0.0,0.0,0.0,0.0,0.0,0.0,0.0,0.0,0.0,0.0,0.0,0.0,0.0,0.0,0.0,0.0,0.0,0.0,0.0,0.0,0.0,0.0,0.0,0.0,0.0,0.0,0.0,0.0,0.0,0.0,0.0,0.0,0.0,0.0,0.0,0.0,0.0,0.0,0.0,0.0,0.0,0.0,0.0,0.0,0.0,0.0,0.0,0.0,0.0,0.0,0.0,0.0,0.0,0.0,0.0,0.0,0.0,0.0,0.0,0.0,0.0,0.0,0.0,0.0,0.0,0.0,0.0,0.0,0.0,0.0,0.0,0.0,0.0,0.0,0.0,0.0,0.0,0.0,0.0,0.0,0.0,0.0,0.0,0.0,0.0,0.0,0.0,0.0,0.0,0.0,0.0,0.0,0.0,0.0,0.0,0.0,0.0,0.0,0.0,0.0,0.0,0.0,3.3853,3.3433,3.3834,3.3643,3.273,0.0,0.0,0.0,0.0,0.0,0.0,0.0,0.0,0.0,0.0,0.0,0.0,0.0,0.0,0.0,0.0,0.0,0.0,0.0,0.0,0.0,0.0,0.0,0.0,0.0,0.0,0.0,0.0,0.0,0.0,0.0,0.0,0.0,0.0,0.0,0.0,0.0,0.0,0.0,0.0,0.0,0.0,0.0,0.0,0.0,0.0,0.0,0.0,0.0,0.0,0.0,0.0,0.0,0.0,0.0,0.0,0.0,0.0,0.0,0.0,0.0,0.0,0.0,0.0,0.0,0.0,0.0,0.0,0.0,0.0,0.0,0.0,0.0,0.0,0.0,0.0,0.0,0.0,0.0,0.0,0.0,0.0,0.0,0.0,0.0,0.0,0.0,0.0,0.0,0.0,0.0,0.0,0.0,0.0,0.0,0.0,0.0,0.0,0.0,0.0,0.0,0.0,0.0,0.0,0.0,0.0,0.0,0.0,0.0,0.0,0.0,0.0,3.4885,3.4598,3.3356,0.0,0.0,0.0,0.0,0.0,0.0,0.0,0.0,0.0,0.0,0.0,0.0,0.0,0.0,0.0,0.0,0.0,0.0,0.0,0.0,0.0,0.0,0.0,0.0,0.0,0.0,0.0,0.0,0.0,0.0,0.0,0.0,0.0,0.0,0.0,0.0,0.0,0.0,0.0,0.0,0.0,0.0,0.0,0.0,0.0,0.0,0.0,0.0,0.0,0.0,0.0,0.0,0.0,0.0,0.0,0.0,0.0,0.0,0.0,0.0,0.0,0.0,0.0,0.0,0.0,0.0,0.0,0.0,0.0,0.0,0.0,0.0,0.0,0.0,0.0,0.0,0.0,0.0,0.0,0.0,0.0,0.0,0.0,0.0,0.0,0.0,0.0,0.0,0.0,0.0,0.0,0.0,0.0,0.0,0.0,0.0,0.0,0.0,0.0,0.0,0.0,0.0,0.0,0.0,0.0,0.0,0.0,0.0,0.0,0.0,3.5171,3.5114,3.5171,0.0,3.498,0.0,0.0,0.0,0.0,0.0,0.0,0.0,0.0,0.0,0.0,0.0,0.0,0.0,0.0,0.0,0.0,0.0,0.0,0.0,0.0,0.0,0.0,0.0,0.0,0.0,0.0,0.0,0.0,0.0,0.0,0.0,0.0,0.0,0.0,0.0,0.0,0.0,0.0,0.0,0.0,0.0,0.0,0.0,0.0,0.0,0.0,0.0,0.0,0.0,0.0,0.0,0.0,0.0,0.0,0.0,0.0,0.0,0.0,0.0,0.0,0.0,0.0,0.0,0.0,0.0,0.0,0.0,0.0,0.0,0.0,0.0,0.0,0.0,0.0,0.0,0.0,0.0,0.0,0.0,0.0,0.0,0.0,0.0,0.0,0.0,0.0,0.0,0.0,0.0,0.0,0.0,0.0,0.0,0.0,0.0,0.0,0.0,0.0,0.0,0.0,0.0,0.0,0.0,0.0,0.0,0.0,0.0,0.0,0.0,0.0,3.519,3.519,3.519,3.519,0.0,0.0,0.0,0.0,0.0,0.0,0.0,0.0,0.0,0.0,0.0,0.0,0.0,0.0,0.0,0.0,0.0,0.0,0.0,0.0,0.0,0.0,0.0,0.0,0.0,0.0,0.0,0.0,0.0,0.0,0.0,0.0,0.0,0.0,0.0,0.0,0.0,0.0,0.0,0.0,0.0,0.0,0.0,0.0,0.0,0.0,0.0,0.0,0.0,0.0,0.0,0.0,0.0,0.0,0.0,0.0,0.0,0.0,0.0,0.0,0.0,0.0,0.0,0.0,0.0,0.0,0.0,0.0,0.0,0.0,0.0,0.0,0.0,0.0,0.0,0.0,0.0,0.0,0.0,0.0,0.0,0.0,0.0,0.0,0.0,0.0,0.0,0.0,0.0,0.0,0.0,0.0,0.0,0.0,0.0,0.0,0.0,0.0,0.0,0.0,0.0,0.0,0.0,0.0,0.0,0.0,0.0,0.0,0.0,0.0,3.519,3.519,3.519,3.519,3.519,3.519,0.0,0.0,0.0,0.0,0.0,0.0,0.0,0.0,0.0,0.0,0.0,0.0,0.0,0.0,0.0,0.0,0.0,0.0,0.0,0.0,0.0,0.0,0.0,0.0,0.0,0.0,0.0,0.0,0.0,0.0,0.0,0.0,0.0,0.0,0.0,0.0,0.0,0.0,0.0,0.0,0.0,0.0,0.0,0.0,0.0,0.0,0.0,0.0,0.0,0.0,0.0,0.0,0.0,0.0,0.0,0.0,0.0,0.0,0.0,0.0,0.0,0.0,0.0,0.0,0.0,0.0,0.0,0.0,0.0,0.0,0.0,0.0,0.0,0.0,0.0,0.0,0.0,0.0,0.0,0.0,0.0,0.0,0.0,0.0,0.0,0.0,0.0,0.0,0.0,0.0,0.0,0.0,0.0,0.0,0.0,0.0,0.0,0.0,0.0,0.0,0.0,0.0,0.0,0.0,0.0,0.0,0.0,0.0,3.519,3.519,3.519,3.519,3.519,3.519,0.0,0.0,0.0,0.0,0.0,0.0,0.0,0.0,0.0,0.0,0.0,0.0,0.0,0.0,0.0,0.0,0.0,0.0,0.0,0.0,0.0,0.0,0.0,0.0,0.0,0.0,0.0,0.0,0.0,0.0,0.0,0.0,0.0,0.0,0.0,0.0,0.0,0.0,0.0,0.0,0.0,0.0,0.0,0.0,0.0,0.0,0.0,0.0,0.0,0.0,0.0,0.0,0.0,0.0,0.0,0.0,0.0,0.0,0.0,0.0,0.0,0.0,0.0,0.0,0.0,0.0,0.0,0.0,0.0,0.0,0.0,0.0,0.0,0.0,0.0,0.0,0.0,0.0,0.0,0.0,0.0,0.0,0.0,0.0,0.0,0.0,0.0,0.0,0.0,0.0,0.0,0.0,0.0,0.0,0.0,0.0,0.0,0.0,0.0,0.0,0.0,0.0,0.0,0.0,0.0,0.0,0.0,0.0,0.0,3.519,3.519,3.519,3.519,3.519,3.519,0.0,0.0,0.0,0.0,0.0,0.0,0.0,0.0,0.0,0.0,0.0,0.0,0.0,0.0,0.0,0.0,0.0,0.0,0.0,0.0,0.0,0.0,0.0,0.0,0.0,0.0,0.0,0.0,0.0,0.0,0.0,0.0,0.0,0.0,0.0,0.0,0.0,0.0,0.0,0.0,0.0,0.0,0.0,0.0,0.0,0.0,0.0,0.0,0.0,0.0,0.0,0.0,0.0,0.0,0.0,0.0,0.0,0.0,0.0,0.0,0.0,0.0,0.0,0.0,0.0,0.0,0.0,0.0,0.0,0.0,0.0,0.0,0.0,0.0,0.0,0.0,0.0,0.0,0.0,0.0,0.0,0.0,0.0,0.0,0.0,0.0,0.0,0.0,0.0,0.0,0.0,0.0,0.0,0.0,0.0,0.0,0.0,0.0,0.0,0.0,0.0,0.0,0.0,0.0,0.0,0.0,0.0,0.0,0.0,3.519,0.0,3.519,3.519,3.519,3.519,0.0,0.0,0.0,0.0,0.0,0.0,0.0,0.0,0.0,0.0,0.0,0.0,0.0,0.0,0.0,0.0,0.0,0.0,0.0,0.0,0.0,0.0,0.0,0.0,0.0,0.0,0.0,0.0,0.0,0.0,0.0,0.0,0.0,0.0,0.0,0.0,0.0,0.0,0.0,0.0,0.0,0.0,0.0,0.0,0.0,0.0,0.0,0.0,0.0,0.0,0.0,0.0,0.0,0.0,0.0,0.0,0.0,0.0,0.0,0.0,0.0,0.0,0.0,0.0,0.0,0.0,0.0,0.0,0.0,0.0,0.0,0.0,0.0,0.0,0.0,0.0,0.0,0.0,0.0,0.0,0.0,0.0,0.0,0.0,0.0,0.0,0.0,0.0,0.0,0.0,0.0,0.0,0.0,0.0,0.0,0.0,0.0,0.0,0.0,0.0,0.0,0.0,0.0,0.0,0.0,0.0,0.0,0.0,3.519,3.519,3.519,3.519,3.519,3.519,3.519,0.0,0.0,0.0,0.0,0.0,0.0,0.0,0.0,0.0,0.0,0.0,0.0,0.0,0.0,0.0,0.0,0.0,0.0,0.0,0.0,0.0,0.0,0.0,0.0,0.0,0.0,0.0,0.0,0.0,0.0,0.0,0.0,0.0,0.0,0.0,0.0,0.0,0.0,0.0,0.0,0.0,0.0,0.0,0.0,0.0,0.0,0.0,0.0,0.0,0.0,0.0,0.0,0.0,0.0,0.0,0.0,0.0,0.0,0.0,0.0,0.0,0.0,0.0,0.0,0.0,0.0,0.0,0.0,0.0,0.0,0.0,0.0,0.0,0.0,0.0,0.0,0.0,0.0,0.0,0.0,0.0,0.0,0.0,0.0,0.0,0.0,0.0,0.0,0.0,0.0,0.0,0.0,0.0,0.0,0.0,0.0,0.0,0.0,0.0,0.0,0.0,0.0,0.0,0.0,0.0,0.0,0.0,0.0,0.0,3.519,3.519,3.519,3.519,3.519,3.519,0.0,0.0,0.0,0.0,0.0,0.0,0.0,0.0,0.0,0.0,0.0,0.0,0.0,0.0,0.0,0.0,0.0,0.0,0.0,0.0,0.0,0.0,0.0,0.0,0.0,0.0,0.0,0.0,0.0,0.0,0.0,0.0,0.0,0.0,0.0,0.0,0.0,0.0,0.0,0.0,0.0,0.0,0.0,0.0,0.0,0.0,0.0,0.0,0.0,0.0,0.0,0.0,0.0,0.0,0.0,0.0,0.0,0.0,0.0,0.0,0.0,0.0,0.0,0.0,0.0,0.0,0.0,0.0,0.0,0.0,0.0,0.0,0.0,0.0,0.0,0.0,0.0,0.0,0.0,0.0,0.0,0.0,0.0,0.0,0.0,0.0,0.0,0.0,0.0,0.0,0.0,0.0,0.0,0.0,0.0,0.0,0.0,0.0,0.0,0.0,0.0,0.0,0.0,0.0,0.0,0.0,0.0,0.0,0.0,3.519,3.519,3.519,3.519,3.519,3.519,3.519,0.0,0.0,0.0,0.0,0.0,0.0,0.0,0.0,0.0,0.0,0.0,0.0,0.0,0.0,0.0,0.0,0.0,0.0,0.0,0.0,0.0,0.0,0.0,0.0,0.0,0.0,0.0,0.0,0.0,0.0,0.0,0.0,0.0,0.0,0.0,0.0,0.0,0.0,0.0,0.0,0.0,0.0,0.0,0.0,0.0,0.0,0.0,0.0,0.0,0.0,0.0,0.0,0.0,0.0,0.0,0.0,0.0,0.0,0.0,0.0,0.0,0.0,0.0,0.0,0.0,0.0,0.0,0.0,0.0,0.0,0.0,0.0,0.0,0.0,0.0,0.0,0.0,0.0,0.0,0.0,0.0,0.0,0.0,0.0,0.0,0.0,0.0,0.0,0.0,0.0,0.0,0.0,0.0,0.0,0.0,0.0,0.0,0.0,0.0,0.0,0.0,0.0,0.0,0.0,0.0,0.0,0.0,0.0,3.5324,3.5343,3.5305,3.519,3.519,3.519,0.0,0.0,0.0,0.0,0.0,0.0,0.0,0.0,0.0,0.0,0.0,0.0,0.0,0.0,0.0,0.0,0.0,0.0,0.0,0.0,0.0,0.0,0.0,0.0,0.0,0.0,0.0,0.0,0.0,0.0,0.0,0.0,0.0,0.0,0.0,0.0,0.0,0.0,0.0,0.0,0.0,0.0,0.0,0.0,0.0,0.0,0.0,0.0,0.0,0.0,0.0,0.0,0.0,0.0,0.0,0.0,0.0,0.0,0.0,0.0,0.0,0.0,0.0,0.0,0.0,0.0,0.0,0.0,0.0,0.0,0.0,0.0,0.0,0.0,0.0,0.0,0.0,0.0,0.0,0.0,0.0,0.0,0.0,0.0,0.0,0.0,0.0,0.0,0.0,0.0,0.0,0.0,0.0,0.0,0.0,0.0,0.0,0.0,0.0,0.0,0.0,0.0,0.0,0.0,0.0,0.0,0.0,0.0,0.0,3.7043,3.7043,3.6451,3.5248,3.519,3.519,0.0,0.0,0.0,0.0,0.0,0.0,0.0,0.0,0.0,0.0,0.0,0.0,0.0,0.0,0.0,0.0,0.0,0.0,0.0,0.0,0.0,0.0,0.0,0.0,0.0,0.0,0.0,0.0,0.0,0.0,0.0,0.0,0.0,0.0,0.0,0.0,0.0,0.0,0.0,0.0,0.0,0.0,0.0,0.0,0.0,0.0,0.0,0.0,0.0,0.0,0.0,0.0,0.0,0.0,0.0,0.0,0.0,0.0,0.0,0.0,0.0,0.0,0.0,0.0,0.0,0.0,0.0,0.0,0.0,0.0,0.0,0.0,0.0,0.0,0.0,0.0,0.0,0.0,0.0,0.0,0.0,0.0,0.0,0.0,0.0,0.0,0.0,0.0,0.0,0.0,0.0,0.0,0.0,0.0,0.0,0.0,0.0,0.0,0.0,0.0,0.0,0.0,0.0,0.0,0.0,0.0,0.0,0.0,3.7693,3.7693,3.7693,3.7234,3.6279,3.626,3.626,0.0,0.0,0.0,0.0,0.0,0.0,0.0,0.0,0.0,0.0,0.0,0.0,0.0,0.0,0.0,0.0,0.0,0.0,0.0,0.0,0.0,0.0,0.0,0.0,0.0,0.0,0.0,0.0,0.0,0.0,0.0,0.0,0.0,0.0,0.0,0.0,0.0,0.0,0.0,0.0,0.0,0.0,0.0,0.0,0.0,0.0,0.0,0.0,0.0,0.0,0.0,0.0,0.0,0.0,0.0,0.0,0.0,0.0,0.0,0.0,0.0,0.0,0.0,0.0,0.0,0.0,0.0,0.0,0.0,0.0,0.0,0.0,0.0,0.0,0.0,0.0,0.0,0.0,0.0,0.0,0.0,0.0,0.0,0.0,0.0,0.0,0.0,0.0,0.0,0.0,0.0,0.0,0.0,0.0,0.0,0.0,0.0,0.0,0.0,0.0,0.0,0.0,0.0,0.0,0.0,0.0,0.0,0.0,3.798,3.798,3.798,3.796,3.7943,3.7789,3.7693,0.0,0.0,0.0,0.0,0.0,0.0,0.0,0.0,0.0,0.0,0.0,0.0,0.0,0.0,0.0,0.0,0.0,0.0,0.0,0.0,0.0,0.0,0.0,0.0,0.0,0.0,0.0,0.0,0.0,0.0,0.0,0.0,0.0,0.0,0.0,0.0,0.0,0.0,0.0,0.0,0.0,0.0,0.0,0.0,0.0,0.0,0.0,0.0,0.0,0.0,0.0,0.0,0.0,0.0,0.0,0.0,0.0,0.0,0.0,0.0,0.0,0.0,0.0,0.0,0.0,0.0,0.0,0.0,0.0,0.0,0.0,0.0,0.0,0.0,0.0,0.0,0.0,0.0,0.0,0.0,0.0,0.0,0.0,0.0,0.0,0.0,0.0,0.0,0.0,0.0,0.0,0.0,0.0,0.0,0.0,0.0,0.0,0.0,0.0,0.0,0.0,0.0,0.0,0.0,0.0,0.0,0.0,0.0,3.9756,3.9737,3.9756,3.9719,3.9584,3.8364,3.7693,0.0,0.0,0.0,0.0,0.0,0.0,0.0,0.0,0.0,0.0,0.0,0.0,0.0,0.0,0.0,0.0,0.0,0.0,0.0,0.0,0.0,0.0,0.0,0.0,0.0,0.0,0.0,0.0,0.0,0.0,0.0,0.0,0.0,0.0,0.0,0.0,0.0,0.0,0.0,0.0,0.0,0.0,0.0,0.0,0.0,0.0,0.0,0.0,4.0489,0.0,0.0,0.0,0.0,0.0,0.0,0.0,0.0,0.0,0.0,0.0,0.0,0.0,0.0,0.0,0.0,0.0,0.0,0.0,0.0,0.0,0.0,0.0,0.0,0.0,0.0,0.0,0.0,0.0,0.0,0.0,0.0,0.0,0.0,0.0,0.0,0.0,0.0,0.0,0.0,0.0,0.0,0.0,0.0,0.0,0.0,0.0,0.0,0.0,0.0,0.0,0.0,0.0,0.0,0.0,0.0,0.0,0.0,0.0,4.0329,4.0329,4.0329,4.0273,4.0158,3.9319,3.8823,0.0,0.0,0.0,0.0,0.0,0.0,0.0,0.0,0.0,0.0,0.0,0.0,0.0,0.0,0.0,0.0,0.0,0.0,0.0,0.0,0.0,0.0,0.0,0.0,0.0,0.0,0.0,0.0,0.0,0.0,0.0,0.0,0.0,0.0,0.0,0.0,0.0,0.0,0.0,0.0,0.0,0.0,0.0,0.0,0.0,0.0,0.0,0.0,0.0,0.0,0.0,0.0,0.0,0.0,0.0,0.0,0.0,0.0,0.0,0.0,0.0,0.0,0.0,0.0,0.0,0.0,0.0,0.0,0.0,0.0,0.0,0.0,0.0,0.0,0.0,0.0,0.0,0.0,0.0,0.0,0.0,0.0,0.0,0.0,0.0,0.0,0.0,0.0,0.0,0.0,0.0,0.0,0.0,0.0,0.0,0.0,0.0,0.0,0.0,0.0,0.0,0.0,0.0,0.0,0.0,0.0,0.0,4.0329,4.0329,4.031,4.0272,4.0253,4.0234,4.0118,4.0057,4.0017,0.0,0.0,0.0,0.0,0.0,0.0,0.0,0.0,0.0,0.0,0.0,0.0,0.0,0.0,0.0,0.0,0.0,0.0,0.0,0.0,0.0,0.0,0.0,0.0,0.0,0.0,0.0,0.0,0.0,0.0,0.0,0.0,0.0,0.0,0.0,0.0,0.0,0.0,4.0427,4.0489,0.0,0.0,0.0,0.0,0.0,0.0,0.0,0.0,4.0489,0.0,0.0,0.0,0.0,0.0,0.0,0.0,0.0,0.0,0.0,0.0,0.0,0.0,0.0,0.0,0.0,0.0,0.0,0.0,0.0,0.0,0.0,0.0,0.0,0.0,0.0,0.0,0.0,0.0,0.0,0.0,0.0,0.0,0.0,0.0,0.0,0.0,0.0,0.0,0.0,0.0,0.0,0.0,0.0,0.0,0.0,0.0,0.0,0.0,0.0,0.0,0.0,0.0,0.0,0.0,0.0,4.0329,4.0329,4.0329,4.031,4.0176,4.0096,3.9954,3.9933,3.9889,3.9804,0.0,0.0,0.0,0.0,0.0,0.0,0.0,0.0,0.0,0.0,0.0,0.0,0.0,0.0,0.0,0.0,0.0,0.0,0.0,0.0,0.0,0.0,0.0,0.0,0.0,0.0,0.0,0.0,0.0,0.0,0.0,0.0,0.0,0.0,0.0,0.0,0.0,0.0,0.0,4.0489,4.0489,0.0,0.0,0.0,0.0,0.0,0.0,0.0,0.0,4.0489,0.0,0.0,0.0,0.0,0.0,0.0,0.0,0.0,0.0,0.0,0.0,0.0,0.0,0.0,0.0,0.0,0.0,0.0,0.0,0.0,0.0,0.0,0.0,0.0,0.0,0.0,0.0,0.0,0.0,0.0,0.0,0.0,0.0,0.0,0.0,0.0,0.0,0.0,0.0,0.0,0.0,0.0,0.0,0.0,0.0,0.0,0.0,0.0,0.0,0.0,0.0,0.0,0.0,0.0,0.0,4.0215,4.0195,4.0157,4.0096,4.0036,3.9973,3.9911,3.9826,3.9781,0.0,0.0,0.0,0.0,0.0,0.0,0.0,0.0,0.0,0.0,0.0,0.0,0.0,0.0,0.0,0.0,0.0,0.0,0.0,0.0,0.0,0.0,0.0,0.0,0.0,0.0,0.0,0.0,0.0,0.0,0.0,0.0,0.0,0.0,0.0,0.0,0.0,0.0,0.0,0.0,4.0489,4.0489,4.0489,0.0,0.0,0.0,0.0,0.0,0.0,4.0489,4.0489,0.0,0.0,0.0,0.0,0.0,0.0,0.0,0.0,0.0,0.0,0.0,0.0,0.0,0.0,0.0,0.0,0.0,0.0,0.0,0.0,0.0,0.0,0.0,0.0,0.0,0.0,0.0,0.0,0.0,0.0,0.0,0.0,0.0,0.0,0.0,0.0,0.0,0.0,0.0,0.0,0.0,0.0,0.0,0.0,0.0,0.0,0.0,0.0,0.0,0.0,0.0,0.0,0.0,0.0,0.0,4.0076,4.0057,3.9996,3.9911,3.9848,3.9867,3.9848,3.9735,3.967,0.0,0.0,0.0,0.0,0.0,0.0,0.0,0.0,0.0,0.0,0.0,0.0,0.0,0.0,0.0,0.0,0.0,0.0,0.0,0.0,0.0,0.0,0.0,0.0,0.0,0.0,0.0,0.0,0.0,0.0,0.0,0.0,0.0,0.0,0.0,0.0,0.0,0.0,0.0,0.0,0.0,4.0489,4.0489,4.0489,0.0,0.0,0.0,0.0,4.0489,4.0489,0.0,0.0,0.0,0.0,0.0,0.0,0.0,0.0,0.0,0.0,0.0,0.0,0.0,0.0,0.0,0.0,0.0,0.0,0.0,0.0,0.0,0.0,0.0,0.0,0.0,0.0,0.0,0.0,0.0,0.0,0.0,0.0,0.0,0.0,0.0,0.0,0.0,0.0,0.0,0.0,0.0,0.0,0.0,0.0,0.0,0.0,0.0,0.0,0.0,0.0,0.0,0.0,0.0,0.0,0.0,0.0,3.9911,3.9911,3.9911,3.9889,3.9781,3.9717,3.9717,3.9656,3.9626,0.0,0.0,0.0,0.0,0.0,0.0,0.0,0.0,0.0,0.0,0.0,0.0,0.0,0.0,0.0,0.0,0.0,0.0,0.0,0.0,0.0,0.0,0.0,0.0,0.0,0.0,0.0,0.0,0.0,0.0,0.0,0.0,0.0,0.0,0.0,0.0,0.0,0.0,0.0,0.0,0.0,4.0489,4.0489,4.0489,4.0489,0.0,0.0,4.0489,4.0489,4.0489,0.0,0.0,0.0,0.0,0.0,0.0,0.0,0.0,0.0,0.0,0.0,0.0,0.0,0.0,0.0,0.0,0.0,0.0,0.0,0.0,0.0,0.0,0.0,0.0,0.0,0.0,0.0,0.0,0.0,0.0,0.0,0.0,0.0,0.0,0.0,0.0,0.0,0.0,0.0,0.0,0.0,0.0,0.0,0.0,0.0,0.0,0.0,0.0,0.0,0.0,0.0,0.0,0.0,0.0,0.0,3.9804,3.9762,3.9781,3.9758,3.9727,3.9661,3.9656,3.9637,3.9607,3.962,0.0,0.0,0.0,0.0,0.0,0.0,0.0,0.0,0.0,0.0,0.0,0.0,0.0,0.0,0.0,0.0,0.0,0.0,0.0,0.0,0.0,0.0,0.0,0.0,0.0,0.0,0.0,0.0,0.0,0.0,0.0,0.0,0.0,0.0,0.0,0.0,0.0,0.0,0.0,0.0,0.0,0.0,4.0495,4.0492,0.0,0.0,0.0,4.1171,4.1193,0.0,0.0,0.0,0.0,0.0,0.0,0.0,0.0,0.0,0.0,0.0,0.0,0.0,0.0,0.0,0.0,0.0,0.0,0.0,0.0,0.0,0.0,0.0,0.0,0.0,0.0,0.0,0.0,0.0,0.0,0.0,0.0,0.0,0.0,0.0,0.0,0.0,0.0,0.0,0.0,0.0,0.0,0.0,0.0,0.0,0.0,0.0,0.0,0.0,0.0,0.0,0.0,0.0,0.0,0.0,0.0,0.0,3.9665,3.9665,3.9661,3.962,3.962,3.962,3.962,3.962,0.0,0.0,0.0,0.0,0.0,0.0,0.0,0.0,0.0,0.0,0.0,0.0,0.0,0.0,0.0,0.0,0.0,0.0,0.0,0.0,0.0,0.0,0.0,0.0,0.0,0.0,0.0,4.0329,0.0,0.0,0.0,0.0,0.0,0.0,0.0,0.0,0.0,0.0,0.0,0.0,0.0,0.0,4.0803,4.0792,4.0979,4.1058,0.0,0.0,4.2003,4.2005,4.2542,4.2945,0.0,0.0,0.0,0.0,0.0,0.0,0.0,0.0,0.0,0.0,0.0,0.0,0.0,0.0,0.0,0.0,0.0,0.0,0.0,0.0,0.0,0.0,0.0,0.0,0.0,0.0,0.0,0.0,0.0,0.0,0.0,0.0,0.0,0.0,0.0,0.0,0.0,0.0,0.0,0.0,0.0,0.0,0.0,0.0,0.0,0.0,0.0,0.0,0.0,0.0,0.0,0.0,0.0,0.0,3.9602,3.9602,3.9602,3.962,3.962,3.962,3.962,3.962,3.962,3.9639,0.0,0.0,0.0,0.0,0.0,0.0,0.0,0.0,0.0,0.0,0.0,0.0,0.0,0.0,0.0,0.0,0.0,0.0,0.0,0.0,0.0,0.0,0.0,0.0,0.0,0.0,0.0,0.0,0.0,0.0,0.0,0.0,0.0,0.0,0.0,0.0,0.0,0.0,0.0,0.0,0.0,4.1618,4.1622,4.2256,4.2735,0.0,4.2793,4.2868,4.2904,4.2961,4.2998,4.3088,0.0,0.0,0.0,0.0,0.0,0.0,0.0,0.0,0.0,0.0,0.0,0.0,0.0,0.0,0.0,0.0,0.0,0.0,0.0,0.0,0.0,0.0,0.0,0.0,0.0,0.0,0.0,0.0,0.0,0.0,0.0,0.0,0.0,0.0,0.0,0.0,0.0,0.0,0.0,0.0,0.0,0.0,0.0,0.0,0.0,0.0,0.0,0.0,0.0,0.0,0.0,0.0,0.0,3.9865,4.0328,4.0347,4.0591,4.106,4.1098,4.1079,4.1098,4.1098,4.1079,0.0,0.0,0.0,0.0,0.0,0.0,0.0,0.0,0.0,0.0,0.0,0.0,0.0,0.0,0.0,0.0,0.0,0.0,0.0,0.0,0.0,0.0,0.0,0.0,0.0,0.0,0.0,0.0,4.0329,4.031,4.031,0.0,0.0,0.0,0.0,0.0,0.0,0.0,0.0,0.0,0.0,4.2428,4.2392,4.2679,0.0,0.0,4.3293,4.3618,4.3618,4.4116,4.448,4.4516,4.4572,0.0,0.0,0.0,0.0,0.0,0.0,0.0,0.0,0.0,0.0,0.0,0.0,0.0,0.0,0.0,0.0,0.0,0.0,0.0,0.0,0.0,0.0,0.0,0.0,0.0,0.0,0.0,0.0,0.0,0.0,0.0,0.0,0.0,0.0,0.0,0.0,0.0,0.0,0.0,0.0,0.0,0.0,0.0,0.0,0.0,0.0,0.0,0.0,0.0,0.0,0.0,0.0,4.0591,4.1154,4.1173,4.1454,4.1999,4.1999,4.1999,4.1999,4.1999,4.1999,0.0,0.0,0.0,0.0,0.0,0.0,0.0,0.0,0.0,0.0,0.0,0.0,0.0,0.0,0.0,0.0,0.0,0.0,0.0,0.0,0.0,0.0,0.0,0.0,0.0,0.0,0.0,0.0,4.0329,4.0406,4.0635,0.0,0.0,0.0,0.0,0.0,0.0,0.0,0.0,0.0,0.0,4.3235,4.3178,4.3407,4.3618,4.3598,4.4306,4.4823,4.4803,4.536,4.5783,4.5784,0.0,0.0,0.0,0.0,0.0,0.0,0.0,0.0,0.0,0.0,0.0,0.0,0.0,0.0,0.0,0.0,0.0,0.0,0.0,0.0,0.0,0.0,0.0,0.0,0.0,0.0,0.0,0.0,0.0,0.0,3.9911,0.0,0.0,0.0,0.0,0.0,0.0,0.0,0.0,0.0,0.0,0.0,0.0,0.0,0.0,0.0,0.0,0.0,0.0,0.0,0.0,0.0,0.0,4.1935,4.1972,4.1999,4.1991,4.2029,4.2018,4.2029,4.2055,4.201,4.201,4.2055,0.0,0.0,0.0,0.0,0.0,0.0,0.0,0.0,0.0,0.0,0.0,0.0,0.0,0.0,0.0,0.0,0.0,0.0,0.0,0.0,0.0,0.0,0.0,0.0,0.0,0.0,4.0348,4.0329,4.0635,0.0,0.0,0.0,0.0,0.0,0.0,0.0,0.0,0.0,0.0,4.3522,4.4058,4.3997,4.4704,4.526,4.5321,4.601,4.6567,4.6607,4.6646,4.6666,0.0,0.0,0.0,0.0,0.0,0.0,0.0,0.0,0.0,0.0,0.0,0.0,0.0,0.0,0.0,0.0,0.0,0.0,0.0,0.0,0.0,0.0,0.0,0.0,0.0,0.0,0.0,3.9889,3.9889,0.0,0.0,0.0,0.0,0.0,0.0,0.0,0.0,0.0,0.0,0.0,3.9639,4.0159,0.0,0.0,0.0,0.0,0.0,0.0,0.0,0.0,0.0,0.0,0.0,0.0,4.2299,4.2844,4.2881,4.3125,4.3651,4.367,4.367,4.367,4.3642,4.3642,4.367,0.0,0.0,0.0,0.0,0.0,0.0,0.0,0.0,0.0,0.0,0.0,0.0,0.0,0.0,0.0,0.0,0.0,0.0,0.0,0.0,0.0,0.0,0.0,0.0,0.0,4.052,0.0,0.0,0.0,0.0,0.0,0.0,0.0,0.0,0.0,0.0,0.0,4.3637,4.3675,4.4822,4.5509,4.4953,4.6061,4.6768,0.0,0.0,0.0,0.0,0.0,0.0,0.0,0.0,0.0,0.0,0.0,0.0,0.0,0.0,4.682,4.5687,4.5457,4.5457,4.5457,0.0,0.0,0.0,0.0,0.0,0.0,0.0,0.0,0.0,0.0,0.0,0.0,0.0,0.0,3.9796,0.0,3.9777,0.0,0.0,0.0,0.0,0.0,0.0,0.0,0.0,4.029,4.0422,4.044,4.0966,4.1229,0.0,4.1755,4.1473,0.0,0.0,0.0,0.0,0.0,0.0,0.0,0.0,4.3144,4.3707,4.3707,4.397,4.4477,4.4496,4.4496,4.4496,4.4496,4.4496,4.4496,4.4008,4.3726,0.0,0.0,0.0,0.0,0.0,0.0,0.0,0.0,0.0,0.0,0.0,0.0,0.0,0.0,0.0,0.0,0.0,0.0,0.0,0.0,0.0,0.0,0.0,4.138,0.0,0.0,0.0,0.0,0.0,0.0,0.0,0.0,0.0,4.3311,4.3941,4.4571,4.4898,4.5833,4.6424,4.6194,0.0,0.0,0.0,0.0,0.0,0.0,0.0,4.8324,4.8324,4.8116,4.7945,4.7966,4.7945,4.7945,4.7966,0.0,0.0,4.6473,4.6301,4.6301,4.6301,4.5953,4.5825,4.6381,4.6143,4.599,0.0,0.0,0.0,0.0,0.0,0.0,0.0,0.0,3.9714,3.9733,0.0,3.9752,0.0,0.0,0.0,0.0,0.0,4.0497,0.0,0.0,4.1623,4.1999,4.1954,4.1991,4.2055,4.201,4.2085,4.2104,4.2066,4.2066,0.0,0.0,0.0,0.0,0.0,0.0,4.4552,4.4552,4.459,4.4608,4.4627,4.4627,4.4608,4.4627,4.4608,4.4627,4.459,4.4571,4.4552,4.4552,4.4496,0.0,0.0,0.0,0.0,0.0,0.0,0.0,0.0,0.0,0.0,0.0,0.0,0.0,0.0,0.0,0.0,0.0,0.0,0.0,0.0,4.2832,0.0,0.0,0.0,0.0,0.0,0.0,0.0,0.0,0.0,0.0,4.4303,4.4857,4.564,4.6424,0.0,0.0,0.0,0.0,4.7917,4.7922,4.8632,4.9149,4.913,4.913,4.9146,4.914,0.0,0.0,4.7979,4.7936,4.7974,4.7979,4.8015,4.7917,4.8043,4.7968,4.791,4.791,4.7856,4.7972,4.7991,4.7856,4.7912,4.0498,0.0,0.0,0.0,0.0,4.1226,4.1304,4.1323,4.1323,4.1323,4.1304,4.1323,0.0,0.0,0.0,0.0,0.0,0.0,4.1661,4.1653,4.1924,4.1999,4.201,4.2637,4.2938,4.2938,4.352,4.3801,4.3801,4.3782,4.352,4.2956,0.0,0.0,0.0,0.0,4.5359,4.5378,4.5979,4.6298,4.6298,4.6298,4.6279,4.6298,4.6279,4.6298,4.6298,4.5697,4.5359,4.5341,4.4815,0.0,0.0,0.0,0.0,0.0,0.0,0.0,0.0,0.0,0.0,0.0,0.0,0.0,0.0,0.0,0.0,0.0,0.0,0.0,4.2775,4.331,4.3654,0.0,0.0,0.0,0.0,0.0,0.0,0.0,0.0,0.0,4.6748,4.6385,4.6481,0.0,0.0,4.82,4.7857,4.8831,4.9385,4.8815,4.9427,0.0,4.9962,4.9962,4.9962,4.9958,4.9748,4.9595,4.9618,4.9595,4.9576,4.9599,4.9576,4.9595,4.9583,4.8646,4.7939,4.7862,4.7886,4.7928,4.7928,4.7988,4.8048,4.1754,4.1867,4.1576,4.1438,4.1468,4.1717,4.1846,4.1865,4.1965,4.1999,4.1999,4.1999,4.1999,4.1999,4.1999,0.0,0.0,0.0,4.2506,4.2543,4.2862,4.3013,4.3031,4.3538,4.3782,4.3801,4.459,4.4984,4.4984,4.5341,4.5247,4.4777,0.0,0.0,4.551,4.5979,4.6204,4.6242,4.6749,4.6993,4.6993,4.6993,4.6993,4.6993,4.6993,4.6993,4.6993,4.6505,4.6223,4.6223,4.5754,4.5491,0.0,0.0,0.0,0.0,0.0,0.0,0.0,0.0,0.0,0.0,0.0,4.2794,4.2794,0.0,0.0,0.0,4.3577,4.3787,4.3787,4.4227,0.0,0.0,0.0,0.0,0.0,0.0,0.0,4.6347,4.7188,4.7952,4.8258,4.7876,4.7723,4.8239,4.8774,4.9022,4.8831,0.0,5.013,4.9633,4.9977,5.0302,5.0302,5.0302,5.0302,5.0302,5.0302,5.0302,5.0302,5.0302,5.0302,5.0302,5.0302,5.0302,5.0302,4.9461,4.8793,4.8812,4.8857,4.8879,4.89,4.8943,4.8985,4.3081,4.2992,4.1977,4.1475,4.1409,4.1672,4.1789,4.1818,4.2098,4.2205,4.2179,4.2179,4.2179,4.2224,4.2205,0.0,4.2235,4.3031,4.3444,4.352,4.4271,4.4646,4.4702,4.4721,4.4702,4.474,4.5453,4.581,4.5848,4.6599,4.703,4.7087,4.6298,4.6279,4.6955,4.7068,4.7105,4.7105,4.7181,4.7199,4.7218,4.7199,4.7199,4.7237,4.7199,4.7218,4.7218,4.7124,4.7087,4.7087,4.7049,4.6993,4.6993,0.0,0.0,0.0,0.0,0.0,0.0,0.0,0.0,0.0,0.0,0.0,0.0,0.0,0.0,4.4055,4.4895,0.0,4.5488,4.5488,0.0,0.0,0.0,4.692,4.7704,4.7857,4.7914,4.7895,0.0,0.0,4.9079,4.9194,4.9213,4.9289,4.9232,4.948,5.0283,5.0417,5.0417,5.0531,5.0531,5.0531,5.0665,5.0646,5.0665,5.0665,5.0493,5.0588,5.0608,5.0588,5.0531,5.0608,5.0531,5.0531,5.0512,5.0531,5.0493,5.0493,5.0405,5.0333,5.0256,5.0301,5.0325,4.4729,4.4675,4.4449,4.3725,4.2873,4.3311,4.3513,4.3513,4.3784,4.3914,4.3914,4.3914,4.3914,4.3914,4.3914,4.3914,4.3933,4.412,4.4552,4.5134,4.5322,4.5754,4.6411,4.6411,4.6411,4.643,4.6599,4.6692,4.6711,4.6899,4.7312,4.7875,4.7706,4.7406,4.7049,4.7612,4.7913,4.7894,4.857,4.8908,4.8908,4.8908,4.8908,4.8908,4.8908,4.8908,4.8889,4.8269,4.7913,4.7894,4.7331,4.6993,4.6993,4.6993,0.0,0.0,0.0,0.0,0.0,0.0,0.0,0.0,0.0,4.4601,4.4704,0.0,4.4781,0.0,4.5736,4.65,4.715,4.7207,0.0,0.0,4.7494,4.7589,4.778,4.8391,4.8793,4.8774,4.9328,4.9786,4.9996,5.0015,5.0264,5.0894,5.0436,5.0321,5.1162,5.1295,5.1505,5.204,5.2136,5.2212,5.2155,5.2193,5.2174,5.2212,5.2174,5.2193,5.2212,5.2212,5.2212,5.2193,5.2212,5.2193,5.2174,5.2193,5.2193,5.2117,5.1243,5.0325,5.0325,5.0386,5.039,4.5291,4.5291,4.5291,4.4844,4.4254,4.4612,4.4783,4.4816,4.5114,4.527,4.5391,4.5546,4.5604,4.5622,4.5622,4.5604,4.5622,4.5622,4.5866,4.6261,4.6279,4.6542,4.6993,4.6993,4.6993,4.7012,4.7368,4.7537,4.7556,4.7932,4.8532,4.9283,4.9302,4.9265,4.9189,4.8927,4.8795,4.8795,4.9246,4.9509,4.9509,4.9509,4.9678,5.0016,4.9696,4.9659,5.0016,4.9227,4.8776,4.8776,4.8363,4.8119,4.8119,4.8119,4.795,0.0,0.0,0.0,0.0,0.0,0.0,0.0,0.0,0.0,0.0,0.0,4.6405,4.6424,4.6825,4.7283,4.7761,4.7799,4.7952,4.8353,4.8372,4.8525,4.8869,4.9328,4.9633,4.9633,5.0359,5.0875,5.0894,5.1181,5.1582,5.2059,5.1716,5.1582,5.2021,5.2136,5.2308,5.2728,5.2785,5.2785,5.2785,5.2785,5.2785,5.2785,5.2785,5.2785,5.2785,5.2785,5.2785,5.2785,5.2785,5.2938,5.3282,5.3359,5.3473,5.3741,5.3244,5.2346,5.1582,5.141,5.1434,4.5906,4.5924,4.5924,4.5924,4.5947,4.6166,4.6063,4.5736,4.6026,4.6283,4.6594,4.6885,4.6993,4.6993,4.6993,4.6993,4.6993,4.6993,4.7068,4.7162,4.7162,4.7218,4.7331,4.7425,4.7481,4.7519,4.8269,4.8683,4.8701,4.9434,5.0166,5.0823,5.0842,5.1198,5.1818,5.0504,4.9809,4.9809,4.9809,4.9809,4.9809,4.9809,5.0147,5.0767,5.0166,5.0072,5.0654,5.0016,4.9602,4.9509,4.949,4.9509,4.9509,4.9509,4.9171,0.0,4.8483,0.0,0.0,0.0,0.0,0.0,0.0,0.0,0.0,4.7754,4.7834,4.7971,4.7971,4.8009,4.8124,4.8124,4.843,4.9137,4.9251,4.9519,5.0206,5.0397,5.0474,5.0474,5.1219,5.1754,5.1773,5.2384,5.2785,5.2919,5.2938,5.2996,5.3129,5.3053,5.3015,5.3091,5.3129,5.3339,5.3301,5.3225,5.3225,5.3187,5.3263,5.3129,5.3225,5.3225,5.3187,5.3187,5.3263,5.3454,5.4161,5.4276,5.4524,5.5116,5.5154,5.4677,5.3511,5.3129,5.3091,4.9184,4.9184,4.9166,4.9184,4.9184,4.927,4.7888,4.5736,4.6215,4.6613,4.6915,4.6963,4.6993,4.6993,4.6993,4.6993,4.6993,4.6993,4.735,4.795,4.7969,4.8345,4.9039,4.9696,4.9997,5.0053,5.0804,5.1198,5.1198,5.1367,5.1518,5.1668,5.1686,5.1743,5.1893,0.0,0.0,0.0,5.1461,5.1461,5.1461,5.1461,5.1518,5.1668,5.1536,0.0,5.071,5.0541,5.0147,4.9546,4.9509,0.0,0.0,0.0,0.0,0.0,0.0,0.0,0.0,0.0,0.0,0.0,4.9278,4.8775,4.7599,4.7571,4.7971,4.8774,4.885,4.9117,4.9767,4.9824,4.9901,5.0034,5.0073,5.013,5.0321,5.0932,5.1372,5.1372,5.2079,5.2575,5.2594,5.2709,5.3091,5.3741,5.3855,5.4161,5.4772,5.4256,5.4142,5.4753,5.4772,5.4868,5.4906,5.4849,5.4753,5.4925,5.4925,5.4868,5.4811,5.4849,5.4868,5.483,5.4906,5.4906,5.5135,5.5154,5.5212,5.5384,5.5441,5.5307,5.4963,5.4906,5.4696,5.009,0.0,5.009,5.009,0.0,5.009,4.9234,4.7875,4.7734,4.7628,4.7559,4.7844,4.7991,4.8009,4.8565,4.8833,4.8833,4.9246,4.964,5.0016,5.0034,5.026,5.071,5.1104,5.1292,5.1311,5.1724,5.1912,5.1912,5.1912,5.2118,5.255,5.2531,5.2738,5.3132,5.3151,5.2719,5.1912,5.1912,5.1912,5.1912,5.1912,5.21,5.2494,5.2118,0.0,0.0,0.0,0.0,0.0,0.0,0.0,0.0,0.0,0.0,5.0091,4.9715,4.9509,4.9509,4.9509,4.9521,4.9593,4.9593,4.9324,4.8659,4.8758,4.9028,4.9539,4.9644,4.9843,5.0245,5.0302,5.0474,5.0875,5.0932,5.1085,5.1486,5.1926,5.2193,5.227,5.2919,5.3435,5.3435,5.3855,5.4218,5.4658,5.4753,5.4887,5.525,5.504,5.4963,5.5345,5.5403,5.5403,5.5403,5.5403,5.5403,5.5403,5.5403,5.5403,5.5403,5.5403,5.5403,5.5403,5.5403,5.5498,5.5899,5.5995,5.6129,5.6511,5.6645,5.6625,5.6587,5.5995,5.5288,5.0506,5.0524,5.0506,5.0506,5.0506,5.0506,5.0416,5.0253,0.0,0.0,0.0,4.9157,4.9352,4.9443,5.0333,5.0769,5.0806,5.1462,5.1728,5.1728,5.1728,5.1728,5.1761,5.1859,5.1986,5.1967,5.2098,5.2158,5.2139,5.2158,5.2548,5.3166,5.3241,5.3559,5.4177,5.4233,5.3559,5.2334,5.2292,5.2344,5.2344,5.2344,5.2682,5.3376,5.2719,5.2625,5.3151,5.2494,5.2062,5.1912,5.1912,5.1912,5.1893,5.1273,5.0917,5.0879,5.0297,4.9922,4.994,4.9922,4.9922,4.9922,4.9922,4.9894,4.9881,5.0111,5.0259,5.0285,5.0501,5.067,5.0694,5.0713,5.1004,5.1754,5.183,5.2079,5.269,5.2957,5.3015,5.311,5.3798,5.4314,5.4352,5.4906,5.5403,5.5384,5.5345,5.5403,5.5403,5.5365,5.5326,5.5384,5.5403,5.5403,5.5403,5.5403,5.5403,5.5403,5.5403,5.5403,5.5403,5.5403,5.5403,5.5403,5.5403,5.5651,5.6205,5.6262,5.6625,5.7313,5.7466,5.7466,5.7351,5.6377,5.5498,5.2154,5.2154,5.2154,5.2172,5.2154,5.2154,5.1756,5.1112,5.0538,5.0391,5.0616,5.0692,5.073,5.073,5.0897,5.0953,5.0953,5.1064,5.1119,5.1119,5.1101,5.1101,5.1156,5.1842,5.2156,5.2212,5.2841,5.3193,5.3174,5.3174,5.3248,5.338,5.336,5.3454,5.3526,5.3526,5.3589,5.359,5.3877,5.4052,5.4052,5.4052,5.409,5.4221,5.4108,5.377,5.3207,5.3076,5.2663,5.1968,5.1912,5.1912,5.1912,5.1799,5.1743,5.1724,5.163,5.1555,5.1555,5.1574,5.1574,5.1574,5.1574,5.1068,4.9891,5.0392,5.0847,5.0978,5.1621,5.2151,5.2277,5.2227,5.2298,5.257,5.2633,5.269,5.29,5.3492,5.3913,5.3932,5.4696,5.5193,5.5154,5.5307,5.5403,5.5403,5.5403,5.5403,5.5403,5.5403,5.5403,5.5403,5.5403,5.5403,5.5403,5.5403,5.5403,5.5403,5.5403,5.5403,5.5403,5.5403,5.5403,5.5403,5.5403,5.546,5.5613,5.5556,5.5728,5.5938,5.5957,5.5899,5.5957,5.5613,5.5594,5.2498,5.2498,5.2498,5.2498,5.2498,5.2498,5.2281,5.1919,5.17,5.1158,5.0561,5.0688,5.071,5.0805,5.1351,5.1632,5.1651,5.2075,5.2278,5.2278,5.2278,5.2296,5.2315,5.2687,5.2853,5.2871,5.3222,5.3407,5.3407,5.3407,5.3487,5.3662,5.3851,5.3944,5.3944,5.3944,5.4036,5.4144,5.4144,5.4233,5.4409,5.4409,5.4409,5.4409,5.4409,5.424,5.3864,5.3846,5.3658,5.3264,5.3264,5.3264,5.3245,5.2832,5.2588,5.2588,5.2156,5.1912,5.1912,5.1912,5.1912,5.1912,5.1912,5.1644,5.0936,5.1311,5.159,5.163,5.2191,5.2539,5.2574,5.2653,5.2902,5.3454,5.3511,5.3702,5.4161,5.4524,5.4811,5.483,5.5154,5.5403,5.5403,5.5403,5.5403,5.5403,5.5403,5.5403,5.5403,5.5403,5.5403,5.5403,5.5403,5.5403,5.5403,5.5403,5.5403,5.5403,5.5403,5.5403,5.5403,5.5403,5.5403,5.5403,5.5403,5.5403,5.5403,5.5403,5.5403,5.5403,5.5403,5.5403,5.5403,5.5403,5.5536,5.2498,5.2498,5.2498,5.2498,5.2498,5.2498,5.2498,5.2498,5.248,5.1792,5.0768,5.086,5.0927,5.1043,5.188,5.2261,5.2353,5.2927,5.3162,5.3222,5.3222,5.318,5.318,5.318,5.3162,5.318,5.3203,5.3222,5.3222,5.3162,5.3385,5.368,5.3963,5.4127,5.4163,5.4179,5.4198,5.4268,5.4017,5.4054,5.439,5.4409,5.4409,5.4409,5.4409,5.4409,5.4409,5.4409,5.4409,5.4409,5.4409,5.4409,5.439,5.3808,5.3451,5.3395,5.2832,5.2456,5.2475,5.2456,5.2456,5.2475,5.2456,5.2475,5.2475,5.2535,5.2536,5.2435,5.2767,5.3063,5.3185,5.3236,5.3569,5.4288,5.439,5.4619,5.5269,5.5403,5.5403,5.5403,5.5403,5.5403,5.5403,5.5403,5.5403,5.5403,5.5403,5.5403,5.5403,5.5403,5.5403,5.5403,5.5403,5.5403,5.5403,5.5403,5.5403,5.5403,5.5403,5.5403,5.5403,5.5403,5.5403,5.5403,5.5403,5.5403,5.5403,5.5403,5.5403,5.5403,5.5403,5.5403,5.5403,5.5403,5.5422,5.2498,5.2498,5.2498,5.2498,5.2498,5.2498,5.2498,5.2498,5.2498,5.2444,5.219,5.2309,5.2272,5.2309,5.2391,5.2454,5.2454,5.2536,5.2599,5.2599,5.2554,5.2572,5.2618,5.2618,5.2572,5.2599,5.2599,5.2645,5.2645,5.2618,5.2779,5.3023,5.3109,5.33,5.3505,5.3545,5.3662,5.3944,5.3889,5.4072,5.4375,5.4409,5.4409,5.4409,5.4409,5.4409,5.4409,5.4409,5.4409,5.4409,5.4409,5.4409,5.439,5.4334,5.4296,5.4259,5.4183,5.4165,5.4146,5.4183,5.4108,5.4183,5.409,5.4071,5.409,5.4127,5.3879,5.3405,5.3762,5.4277,5.4644,5.4638,5.4733,5.5065,5.5167,5.5345,5.5384,5.5403,5.5403,5.5403,5.5403,5.5403,5.5403,5.5403,5.5403,5.5403,5.5403,5.5403,5.5403,5.5403,5.5403,5.5403,5.5403,5.5403,5.5403,5.5403,5.5403,5.5403,5.5403,5.5403,5.5403,5.5403,5.5403,5.5403,5.5403,5.5403,5.5403,5.5403,5.5403,5.5403,5.5403,5.5403,5.5403,5.5403,5.5403,5.2498,5.2498,5.2498,5.2498,5.2498,5.2498,5.2498,5.2498,5.2498,5.2498,5.2498,5.2498,5.2498,5.2498,5.2498,5.2498,5.2498,5.2498,5.2498,5.2498,5.2498,5.2498,5.2498,5.2498,5.2498,5.2498,5.2498,5.2498,5.2526,5.2708,5.2868,5.2999,5.3175,5.3304,5.3388,5.3623,5.3776,5.3889,5.4108,5.4268,5.4409,5.4409,5.4409,5.4409,5.4409,5.4409,5.4409,5.4409,5.4409,5.4409,5.4409,5.4409,5.4409,5.4409,5.4409,5.4409,5.4409,5.4409,5.4409,5.4409,5.4409,5.4409,5.4409,5.4409,5.4409,5.4409,5.424,5.4033,5.4284,5.4603,5.4711,5.4822,5.499,5.5187,5.5214,5.526,5.5377,5.5403,5.5403,5.5403,5.5403,5.5403,5.5403,5.5403,5.5403,5.5403,5.5403,5.5441,5.5422,5.5403,5.5403,5.5403,5.5403,5.5403,5.5403,5.5403,5.5403,5.5403,5.5403,5.5403,5.5441,5.5403,5.5403,5.5441,5.5517,5.5517,5.5403,5.5403,5.5403,5.5479,5.5422,5.5403,5.5403,5.5403,5.5556,5.2498,5.2498,5.2498,5.2498,5.2498,5.2498,5.2498,5.2498,5.2498,5.2498,5.2498,5.2498,5.2498,5.2498,5.2498,5.2498,5.2498,5.2498,5.2498,5.2498,5.2498,5.2498,5.2498,5.2498,5.2498,5.2498,5.2498,5.2498,5.2544,5.2753,5.2912,5.3023,5.3198,5.3326,5.3407,5.3662,5.3776,5.3776,5.4108,5.4287,5.4287,5.4356,5.4409,5.4409,5.4409,5.4409,5.4409,5.4409,5.4409,5.4409,5.4409,5.4409,5.4409,5.4409,5.4409,5.4409,5.4409,5.4409,5.4409,5.4409,5.4409,5.4409,5.4409,5.4409,5.4409,5.4409,5.4409,5.439,5.4505,5.4552,5.4629,5.4742,5.4893,5.5047,5.5075,5.5168,5.5358,5.5403,5.5403,5.5403,5.5403,5.5403,5.5403,5.5403,5.546,5.5728,5.5766,5.588,5.6033,5.6148,5.6148,5.6091,5.611,5.5899,5.5536,5.5403,5.5403,5.5498,5.5536,5.5804,5.5785,5.5861,5.611,5.6549,5.6205,5.6148,5.6396,5.6262,5.6052,5.6071,5.6071,5.6071,5.6301,5.6129,5.6339,5.2498,5.2498,5.2498,5.2498,5.2498,5.2498,5.2498,5.2498,5.2498,5.2498,5.2498,5.2498,5.2498,5.2498,5.2498,5.2498,5.2498,5.2498,5.2498,5.2498,5.2498,5.2498,5.2498,5.2498,5.2498,5.2498,5.2498,5.2516,5.2534,5.2599,5.2708,5.3054,5.3127,5.3206,5.3474,5.3573,5.3444,5.3632,5.3906,5.3981,5.4,5.4252,5.4409,5.4409,5.4409,5.4409,5.4409,5.4409,5.4409,5.4409,5.4409,5.4409,5.4409,5.4409,5.4409,5.4409,5.4409,5.4409,5.4409,5.4409,5.4409,5.4409,5.4409,5.4409,5.4409,5.4409,5.4409,5.4409,5.4424,5.4472,5.4565,5.4597,5.4773,5.499,5.5094,5.5168,5.5358,5.5351,5.5403,5.5434,5.5568,5.5689,5.5536,5.5403,5.5899,5.6358,5.6549,5.6778,5.7351,5.7619,5.7581,5.7581,5.7504,5.7237,5.5842,5.5785,5.5689,5.5804,5.6358,5.6549,5.6836,5.7122,5.7428,5.7657,5.7447,5.7428,5.7676,5.7695,5.7542,5.7466,5.739,5.7409,5.716,5.7581,5.776,5.2498,5.2498,5.2498,5.2498,5.2498,5.2498,5.2498,5.2498,5.2498,5.2498,5.2498,5.2498,5.2498,5.2498,5.2498,5.2498,5.2498,5.2498,5.2498,5.2498,5.2498,5.2498,5.2498,5.2498,5.2498,5.2498,5.2498,5.277,5.3313,5.3766,5.4067,5.4161,5.4208,5.4282,5.4383,5.4525,5.4638,5.4626,5.4658,5.4652,5.4634,5.4514,5.4409,5.4409,5.4409,5.4409,5.4409,5.4409,5.4409,5.4409,5.4409,5.4409,5.4409,5.4409,5.4409,5.4409,5.4409,5.4409,5.4409,5.4409,5.4409,5.4409,5.4409,5.4409,5.4409,5.4409,5.4409,5.4428,5.4428,5.4424,5.4439,5.4472,5.4552,5.4723,5.4803,5.4939,5.5019,5.5095,5.5313,5.5949,5.6553,5.6988,5.6893,5.6988,5.7122,5.7371,5.7428,5.76,5.7791,5.7905,5.7982,5.7905,5.7886,5.7714,5.7237,5.7027,5.7027,5.7065,5.7313,5.7409,5.7619,5.7734,5.7982,5.8116,5.8154,5.8192,5.823,5.823,5.8211,5.8154,5.8135,5.8303,5.7886,5.8317,5.8566,5.3277,5.3277,5.3277,5.3259,5.3277,5.3277,5.3277,5.3259,5.3277,5.3277,5.3277,5.3277,5.3277,5.3277,5.3277,5.3277,5.3241,5.3041,5.3023,5.3259,5.3277,5.3277,5.3277,5.3277,5.3277,5.3277,5.3277,5.3585,5.4074,5.4635,5.4888,5.4888,5.4907,5.4907,5.4955,5.5073,5.5166,5.5158,5.5183,5.5195,5.5299,5.5174,5.5074,5.5197,5.5197,5.4916,5.4465,5.4409,5.4409,5.4409,5.4409,5.4409,5.4409,5.4409,5.4409,5.4409,5.4409,5.4409,5.4409,5.4409,5.4409,5.4409,5.4409,5.4409,5.4409,5.4634,5.4766,5.4822,5.5085,5.5197,5.5197,5.5235,5.5153,5.5112,5.5239,5.5473,5.5648,5.5757,5.613,5.6815,5.7393,5.7791,5.7886,5.7867,5.8001,5.8211,5.8288,5.8345,5.8631,5.8689,5.8689,5.8708,5.8822,5.8842,5.8689,5.867,5.8001,5.7905,5.8173,5.8268,5.8364,5.8459,5.8555,5.8631,5.867,5.8689,5.8689,5.8689,5.867,5.8631,5.8987,5.9288,5.9108,5.9072,5.935,5.4834,5.478,5.4888,5.4744,5.4689,5.4671,5.4834,5.4725,5.4744,5.4653,5.4599,5.4762,5.4635,5.4762,5.4617,5.4798,5.4689,5.411,5.411,5.4635,5.4707,5.4707,5.4689,5.4653,5.4635,5.4671,5.4852,5.4852,5.4925,5.507,5.5142,5.5015,5.5124,5.5214,5.4997,5.5172,5.5082,5.5178,5.5332,5.5581,5.5863,5.6081,5.6276,5.6664,5.6699,5.6023,5.4615,5.4559,5.4615,5.4503,5.4484,5.4428,5.4428,5.4409,5.4409,5.4409,5.4409,5.4409,5.4465,5.4503,5.4559,5.469,5.4559,5.4709,5.4841,5.5272,5.5629,5.5723,5.623,5.6718,5.6699,5.6737,5.6525,5.6111,5.6394,5.6819,5.7075,5.7411,5.7635,5.7824,5.8069,5.7963,5.7963,5.8192,5.8517,5.8975,5.9128,5.9338,5.9835,5.9969,6.0236,6.0217,5.9969,5.9759,6.0064,6.0236,5.9281,5.8593,5.8918,5.9147,5.9262,5.9357,5.9568,5.9644,5.9625,5.9625,5.9606,5.9606,5.9794,5.986,6.0156,6.0186,6.0104,6.0019,6.0318,5.4907,5.4907,5.4907,5.4907,5.4907,5.4907,5.4907,5.4907,5.4907,5.4907,5.4907,5.4907,5.4907,5.4907,5.4907,5.5196,5.5613,5.5359,5.516,5.4979,5.4943,5.4961,5.4943,5.4925,5.4907,5.4997,5.5432,5.5667,5.5758,5.6192,5.6482,5.6482,5.6446,5.6482,5.641,5.6482,5.6464,5.6459,5.6223,5.6345,5.6657,5.6429,5.6519,5.6833,5.6887,5.6605,5.6155,5.6117,5.5836,5.5291,5.5235,5.4991,5.4559,5.4409,5.4409,5.4409,5.4409,5.4709,5.516,5.5254,5.5498,5.593,5.608,5.6136,5.6117,5.6324,5.6493,5.6493,5.6756,5.6887,5.6962,5.7431,5.7392,5.6676,5.6842,5.7068,5.7265,5.7819,5.8223,5.8448,5.9112,5.9548,5.9568,5.9568,5.9587,5.9816,5.9931,6.0122,6.0293,6.0389,6.0389,6.0389,6.0389,6.0389,6.0389,6.0389,5.9911,5.9376,5.9568,5.972,5.9892,6.0026,6.0274,6.0417,6.0417,6.0398,6.0398,6.0453,6.0487,6.052,6.0474,6.0569,6.0757,6.0883,6.1003,5.5758,5.5758,5.5758,5.5758,5.5758,5.5758,5.5758,5.5758,5.5758,5.5758,5.5776,5.5758,5.5758,5.5758,5.5758,5.6011,5.641,5.6428,5.6192,5.5812,5.5758,5.5758,5.5758,5.5758,5.5758,5.583,5.6228,5.6446,5.6464,5.6935,5.7188,5.7188,5.7188,5.717,5.7188,5.7188,5.7188,5.7166,5.7072,5.7189,5.7451,5.7342,5.7416,5.7752,5.7788,5.7788,5.7788,5.7788,5.7263,5.6324,5.6099,5.5817,5.5385,5.5366,5.5329,5.5329,5.5366,5.5592,5.6023,5.6099,5.6286,5.6774,5.6887,5.6868,5.6925,5.7075,5.7338,5.7338,5.7657,5.7788,5.7882,5.822,5.8276,5.7882,5.7826,5.7824,5.7971,5.8506,5.894,5.9235,5.9756,6.0198,6.0285,6.0389,6.0389,6.0389,6.0389,6.0389,6.0389,6.0389,6.0389,6.0389,6.0389,6.0389,6.0389,6.0389,6.0389,6.0236,6.0198,6.0198,6.0236,6.0236,6.0389,6.0425,6.0453,6.0475,6.0501,6.0603,6.0676,6.0704,6.0731,6.0843,6.0983,6.1095,6.12,5.717,5.7188,5.717,5.708,5.7062,5.7062,5.7007,5.7098,5.708,5.7025,5.7062,5.6971,5.7062,5.7116,5.6935,5.6989,5.717,5.708,5.7043,5.6989,5.6989,5.6953,5.6935,5.6917,5.6899,5.7007,5.708,5.7116,5.7062,5.7152,5.7188,5.7188,5.7188,5.7188,5.7188,5.7188,5.7188,5.722,5.748,5.7822,5.8183,5.8471,5.8777,5.9103,5.9121,5.9102,5.9046,5.9027,5.8445,5.7187,5.6868,5.6718,5.6793,5.6887,5.6718,5.6662,5.6831,5.6831,5.6906,5.6962,5.7056,5.7244,5.7281,5.7018,5.7338,5.7845,5.8164,5.8201,5.8708,5.914,5.9121,5.9178,5.9159,5.9253,5.9009,5.9119,5.9489,5.9512,5.9526,5.9744,5.9994,6.0099,6.0148,6.0285,6.0389,6.0389,6.0389,6.0389,6.0389,6.0389,6.0389,6.0389,6.0389,6.0389,6.0389,6.0389,6.0389,6.0389,6.0389,6.0389,6.0389,6.0417,6.0453,6.046,6.052,6.0559,6.0638,6.0727,6.0817,6.0882,6.0964,6.1076,6.1164,6.1268,6.1318,5.7188,5.7188,5.7188,5.7188,5.7188,5.7188,5.7188,5.7188,5.7188,5.7188,5.7188,5.7188,5.7188,5.7188,5.7188,5.7188,5.7188,5.7188,5.7188,5.7188,5.7188,5.7188,5.7188,5.7188,5.7188,5.7188,5.7188,5.7188,5.7188,5.7188,5.7188,5.7188,5.7188,5.7188,5.7188,5.7188,5.7188,5.7188,5.7289,5.7708,5.8213,5.8388,5.8706,5.9253,5.929,5.929,5.929,5.929,5.8858,5.7882,5.7169,5.6887,5.6981,5.6981,5.7037,5.7037,5.6981,5.7206,5.7676,5.7788,5.8051,5.8614,5.8502,5.8671,5.8671,5.884,5.8971,5.9027,5.9215,5.929,5.929,5.929,5.929,5.929,5.929,5.9346,5.9401,5.9514,5.9626,5.9669,5.9931,6.0068,6.0129,6.0256,6.0389,6.0389,6.0389,6.0389,6.0389,6.0389,6.0389,6.0389,6.0389,6.0389,6.0389,6.0389,6.0389,6.0389,6.0389,6.0389,6.0417,6.0417,6.0487,6.0527,6.0633,6.0689,6.0776,6.088,6.0943,6.1059,6.1095,6.1164,6.1268,6.1386,6.1386,5.7188,5.7188,5.7188,5.7188,5.7188,5.7188,5.7188,5.7188,5.7188,5.7188,5.7188,5.7188,5.7188,5.7188,5.7188,5.7188,5.7188,5.7188,5.7188,5.7188,5.7188,5.7188,5.7188,5.7188,5.7188,5.7188,5.7188,5.7188,5.7188,5.7188,5.7188,5.7188,5.7188,5.7188,5.7188,5.7188,5.7188,5.7239,5.7468,5.7895,5.8275,5.86,5.8887,5.9253,5.929,5.929,5.929,5.929,5.9046,5.8596,5.8164,5.7901,5.7901,5.7901,5.792,5.792,5.7901,5.8145,5.8483,5.8596,5.8821,5.9178,5.929,5.929,5.9253,5.929,5.929,5.9271,5.929,5.929,5.929,5.929,5.929,5.929,5.929,5.929,5.929,5.9384,5.9513,5.9634,5.9834,6.0057,6.0068,6.0285,6.037,6.0389,6.0389,6.0389,6.0389,6.0389,6.0389,6.0389,6.0389,6.0389,6.0389,6.0389,6.0398,6.0398,6.0425,6.0425,6.0453,6.048,6.0546,6.0633,6.0731,6.0822,6.0924,6.1041,6.1169,6.1236,6.1217,6.1252,6.1352,6.14,6.14,5.7188,5.7188,5.7188,5.7188,5.7188,5.7188,5.7188,5.7188,5.7188,5.7188,5.7188,5.7188,5.7188,5.7188,5.7188,5.7188,5.7188,5.7188,5.7188,5.7188,5.7188,5.7188,5.7188,5.7188,5.7188,5.7188,5.7188,5.7188,5.7188,5.7188,5.7188,5.7188,5.7188,5.7188,5.7188,5.7188,5.7188,5.7338,5.7755,5.8123,5.8344,5.8806,5.914,5.9253,5.929,5.929,5.929,5.929,5.9253,5.9271,5.929,5.914,5.9178,5.9234,5.9215,5.914,5.9046,5.9121,5.9253,5.9178,5.9234,5.929,5.929,5.929,5.929,5.929,5.929,5.929,5.929,5.929,5.929,5.929,5.929,5.929,5.929,5.929,5.929,5.929,5.9383,5.9562,5.9753,5.995,6.0106,6.0256,6.0389,6.0389,6.0389,6.0389,6.0389,6.0389,6.0389,6.0389,6.0389,6.0389,6.0389,6.0389,6.0425,6.0453,6.046,6.0487,6.0546,6.0597,6.0652,6.0708,6.0864,6.1002,6.1113,6.1236,6.1337,6.1352,6.1318,6.1352,6.14,6.14,6.14,5.7188,5.7188,5.7188,5.7188,5.7188,5.7188,5.7188,5.7188,5.7188,5.7188,5.7188,5.7188,5.7188,5.7188,5.7188,5.7188,5.7188,5.7188,5.7188,5.7188,5.7188,5.7188,5.7188,5.7188,5.7188,5.7188,5.7188,5.7188,5.7188,5.7188,5.7188,5.7188,5.7188,5.7188,5.7188,5.7188,5.7188,5.7289,5.7697,5.8097,5.8388,5.8706,5.9082,5.9253,5.929,5.929,5.929,5.929,5.929,5.929,5.929,5.929,5.929,5.929,5.929,5.929,5.929,5.929,5.929,5.929,5.929,5.929,5.929,5.929,5.929,5.929,5.929,5.929,5.929,5.929,5.929,5.929,5.929,5.929,5.929,5.929,5.929,5.929,5.9346,5.9455,5.9666,5.9918,5.9931,6.0226,6.0313,6.0389,6.0389,6.0389,6.0389,6.0389,6.0389,6.0389,6.0389,6.0389,6.0417,6.0425,6.0487,6.052,6.0546,6.0608,6.0681,6.0727,6.0776,6.0904,6.104,6.1148,6.1252,6.1302,6.1386,6.1386,6.14,6.14,6.14,6.14,6.14,5.7188,5.7188,5.7188,5.7188,5.7188,5.7188,5.7188,5.7188,5.7188,5.7188,5.7188,5.7188,5.7188,5.7188,5.7188,5.7188,5.7188,5.7188,5.7188,5.7188,5.7188,5.7188,5.7188,5.7188,5.7188,5.7188,5.7188,5.7188,5.7188,5.7188,5.7188,5.7188,5.7188,5.7188,5.7188,5.7188,5.7289,5.7553,5.7821,5.8168,5.854,5.8868,5.9082,5.9253,5.929,5.929,5.929,5.929,5.929,5.929,5.929,5.929,5.929,5.929,5.929,5.929,5.929,5.929,5.929,5.929,5.929,5.929,5.929,5.929,5.929,5.929,5.929,5.929,5.929,5.929,5.929,5.929,5.929,5.929,5.929,5.929,5.929,5.929,5.9346,5.9455,5.965,5.9786,5.9931,6.0118,6.0207,6.0237,6.037,6.0389,6.0389,6.0389,6.0389,6.0389,6.0389,6.0417,6.0417,6.046,6.0546,6.0628,6.0681,6.0798,6.0924,6.0924,6.0924,6.104,6.1184,6.1252,6.1352,6.1386,6.14,6.14,6.14,6.14,6.14,6.14,6.14,5.7188,5.7188,5.7188,5.7188,5.7188,5.7188,5.7188,5.7188,5.7188,5.7188,5.7188,5.7188,5.7188,5.7188,5.7188,5.7188,5.7188,5.7188,5.7188,5.7188,5.7188,5.7188,5.7188,5.7188,5.7188,5.7188,5.7188,5.7188,5.7188,5.7188,5.7188,5.7188,5.7188,5.7239,5.7289,5.7289,5.7486,5.7886,5.8213,5.8474,5.8747,5.9082,5.9253,5.929,5.929,5.929,5.929,5.929,5.929,5.929,5.929,5.929,5.929,5.929,5.929,5.929,5.929,5.929,5.929,5.929,5.929,5.929,5.929,5.929,5.929,5.929,5.929,5.929,5.929,5.929,5.929,5.929,5.929,5.929,5.929,5.929,5.929,5.929,5.9383,5.951,5.9581,5.97,5.9801,5.9963,6.0038,6.0099,6.0237,6.037,6.0389,6.0389,6.0389,6.0389,6.0389,6.046,6.0487,6.0622,6.0681,6.0754,6.0841,6.0964,6.1094,6.1131,6.115,6.1167,6.1287,6.1352,6.1386,6.1386,6.14,6.14,6.14,6.14,6.14,6.14,6.14,5.7188,5.7188,5.7188,5.7188,5.7188,5.7188,5.7188,5.7188,5.7188,5.7188,5.7188,5.7188,5.7188,5.7188,5.7188,5.7188,5.7188,5.7188,5.7188,5.7188,5.7188,5.7188,5.7188,5.7188,5.7188,5.7188,5.7188,5.7188,5.7188,5.7188,5.7188,5.7188,5.7239,5.7356,5.7601,5.7745,5.7867,5.8231,5.8498,5.8706,5.8926,5.914,5.929,5.929,5.929,5.929,5.929,5.929,5.929,5.929,5.929,5.929,5.929,5.929,5.929,5.929,5.929,5.929,5.929,5.929,5.929,5.929,5.929,5.929,5.929,5.929,5.929,5.929,5.929,5.929,5.929,5.929,5.929,5.929,5.929,5.929,5.929,5.9309,5.9309,5.9383,5.9491,5.9597,5.9666,5.9801,5.9899,5.9975,6.0118,6.0237,6.0313,6.0342,6.0389,6.0389,6.0389,6.0468,6.0578,6.075,6.0882,6.0964,6.1059,6.1133,6.1252,6.1318,6.1352,6.1337,6.1337,6.1386,6.14,6.14,6.14,6.14,6.14,6.14,6.14,6.14,6.14,5.7188,5.7188,5.7188,5.7188,5.7188,5.7188,5.7188,5.7188,5.7188,5.7188,5.7188,5.7188,5.7188,5.7188,5.7188,5.7188,5.7188,5.7188,5.7188,5.7188,5.7188,5.7188,5.7188,5.7188,5.7188,5.7188,5.7188,5.7188,5.7188,5.7188,5.7188,5.7239,5.7388,5.7601,5.7792,5.796,5.8213,5.8558,5.8706,5.8908,5.9044,5.9253,5.929,5.929,5.929,5.929,5.929,5.929,5.929,5.929,5.929,5.929,5.929,5.929,5.929,5.929,5.929,5.929,5.929,5.929,5.929,5.929,5.929,5.929,5.929,5.929,5.929,5.929,5.929,5.929,5.929,5.929,5.929,5.929,5.929,5.929,5.929,5.929,5.929,5.929,5.9364,5.9455,5.9455,5.9597,5.9734,5.9866,5.9975,6.0118,6.0237,6.0342,6.0398,6.046,6.0514,6.0628,6.0731,6.0902,6.1041,6.1113,6.12,6.1287,6.1337,6.1386,6.1386,6.1386,6.14,6.14,6.14,6.14,6.14,6.14,6.14,6.14,6.14,6.14,6.14,5.7188,5.7188,5.7188,5.7188,5.7188,5.7188,5.7188,5.7188,5.7188,5.7188,5.7188,5.7188,5.7188,5.7188,5.7188,5.7188,5.7188,5.7188,5.7188,5.7188,5.7188,5.7188,5.7188,5.7188,5.7239,5.7406,5.7388,5.7289,5.7239,5.7338,5.7356,5.7437,5.7726,5.796,5.8078,5.8282,5.8582,5.8806,5.8908,5.9063,5.9215,5.929,5.929,5.929,5.929,5.929,5.929,5.929,5.929,5.929,5.929,5.929,5.929,5.929,5.929,5.929,5.929,5.929,5.929,5.929,5.929,5.929,5.929,5.929,5.929,5.929,5.929,5.929,5.929,5.929,5.929,5.929,5.929,5.929,5.929,5.929,5.929,5.929,5.929,5.929,5.929,5.9327,5.9383,5.9419,5.9562,5.9719,5.9834,5.9975,6.0129,6.0304,6.0433,6.0553,6.0657,6.0776,6.0924,6.1059,6.1167,6.122,6.1287,6.1352,6.1386,6.14,6.14,6.14,6.14,6.14,6.14,6.14,6.14,6.14,6.14,6.14,6.14,6.14,6.14,5.7188,5.7188,5.7188,5.7188,5.7188,5.7188,5.7188,5.7188,5.7188,5.7188,5.7188,5.7188,5.7188,5.7188,5.7188,5.7188,5.7188,5.7188,5.7188,5.7188,5.7188,5.7188,5.7188,5.7188,5.7437,5.7601,5.7697,5.7486,5.7437,5.7631,5.7745,5.7774,5.8078,5.8344,5.8521,5.8665,5.8908,5.9178,5.9215,5.9253,5.9309,5.929,5.929,5.929,5.929,5.929,5.929,5.929,5.929,5.929,5.929,5.929,5.929,5.929,5.929,5.929,5.929,5.929,5.929,5.929,5.929,5.929,5.929,5.929,5.929,5.929,5.929,5.929,5.929,5.929,5.929,5.929,5.929,5.929,5.929,5.929,5.929,5.929,5.929,5.929,5.929,5.929,5.9327,5.9327,5.9364,5.9526,5.9685,5.9847,6.0068,6.0304,6.0553,6.0723,6.0836,6.0943,6.1059,6.12,6.1252,6.1322,6.1352,6.14,6.14,6.14,6.14,6.14,6.14,6.14,6.14,6.14,6.14,6.14,6.14,6.14,6.14,6.14,6.14,5.7188,5.7188,5.7188,5.7188,5.7188,5.7188,5.7188,5.7188,5.7188,5.7188,5.7188,5.7188,5.7188,5.7188,5.7188,5.7188,5.7188,5.7188,5.7188,5.7188,5.7188,5.7188,5.7239,5.7437,5.7697,5.7839,5.7978,5.8051,5.796,5.7941,5.8097,5.8123,5.8388,5.8624,5.8828,5.9005,5.9121,5.9253,5.929,5.929,5.929,5.929,5.929,5.929,5.929,5.929,5.929,5.929,5.929,5.929,5.929,5.929,5.929,5.929,5.929,5.929,5.929,5.929,5.929,5.929,5.929,5.929,5.929,5.929,5.929,5.929,5.929,5.929,5.929,5.929,5.929,5.929,5.929,5.929,5.929,5.929,5.929,5.929,5.929,5.929,5.929,5.9364,5.9381,5.9399,5.9453,5.9508,5.9715,5.9975,6.0217,6.046,6.0719,6.0942,6.1041,6.1116,6.1203,6.1337,6.1337,6.1371,6.1371,6.14,6.14,6.14,6.14,6.14,6.14,6.14,6.14,6.14,6.14,6.14,6.14,6.14,6.14,6.14,6.14,5.7188,5.7188,5.7188,5.7188,5.7188,5.7188,5.7188,5.7188,5.7188,5.7188,5.7188,5.7188,5.7188,5.7188,5.7188,5.7188,5.7188,5.7188,5.7188,5.7188,5.7188,5.7239,5.7437,5.7697,5.7867,5.8051,5.8301,5.8474,5.8558,5.854,5.854,5.8455,5.8766,5.8926,5.8986,5.9121,5.929,5.929,5.929,5.929,5.929,5.929,5.929,5.929,5.929,5.929,5.929,5.929,5.929,5.929,5.929,5.929,5.929,5.929,5.929,5.929,5.929,5.929,5.929,5.929,5.929,5.929,5.929,5.929,5.929,5.929,5.929,5.929,5.929,5.929,5.929,5.929,5.929,5.929,5.929,5.929,5.929,5.929,5.9327,5.9327,5.94,5.9489,5.9505,5.9556,5.9556,5.9505,5.9711,6.008,6.0368,6.0641,6.0834,6.1099,6.1171,6.1223,6.1271,6.1352,6.1386,6.14,6.14,6.14,6.14,6.14,6.14,6.14,6.14,6.14,6.14,6.14,6.14,6.14,6.14,6.14,6.14,6.14,6.14,5.7188,5.7188,5.7188,5.7188,5.7188,5.7188,5.7188,5.7188,5.7188,5.7188,5.7188,5.7188,5.7188,5.7188,5.7188,5.7188,5.7188,5.7188,5.7239,5.7239,5.7239,5.7437,5.7679,5.7914,5.8186,5.8582,5.8747,5.8926,5.914,5.9044,5.8966,5.8887,5.9044,5.9215,5.9253,5.9253,5.929,5.929,5.929,5.929,5.929,5.929,5.929,5.929,5.929,5.929,5.929,5.929,5.929,5.929,5.929,5.929,5.929,5.929,5.929,5.929,5.929,5.929,5.929,5.929,5.929,5.929,5.929,5.929,5.929,5.929,5.929,5.929,5.929,5.929,5.929,5.929,5.929,5.929,5.929,5.929,5.929,5.929,5.9327,5.9364,5.9453,5.9575,5.9706,5.9753,5.9798,5.9785,5.9943,6.0274,6.0608,6.0877,6.1021,6.1191,6.1259,6.1291,6.1287,6.1337,6.1386,6.14,6.14,6.14,6.14,6.14,6.14,6.14,6.14,6.14,6.14,6.14,6.14,6.14,6.14,6.14,6.14,6.14,6.14,5.7188,5.7188,5.7188,5.7188,5.7188,5.7188,5.7188,5.7188,5.7188,5.7188,5.7188,5.7188,5.7188,5.7188,5.7188,5.7188,5.7188,5.7188,5.7356,5.7504,5.7649,5.7792,5.8051,5.8301,5.8582,5.8828,5.9005,5.9121,5.9253,5.929,5.9253,5.9215,5.9253,5.9253,5.929,5.929,5.929,5.929,5.929,5.929,5.929,5.929,5.929,5.929,5.929,5.929,5.929,5.929,5.929,5.929,5.929,5.929,5.929,5.929,5.929,5.929,5.929,5.929,5.929,5.929,5.929,5.929,5.929,5.929,5.929,5.929,5.929,5.929,5.929,5.929,5.929,5.929,5.929,5.929,5.929,5.929,5.929,5.929,5.9364,5.9417,5.9575,5.9725,5.9849,5.9985,6.0044,6.0074,6.0245,6.045,6.0795,6.1021,6.1099,6.1191,6.1261,6.1291,6.1287,6.1337,6.1386,6.14,6.1386,6.14,6.14,6.14,6.14,6.14,6.14,6.14,6.14,6.14,6.14,6.14,6.14,6.14,6.14,6.14,6.14,5.7188,5.7188,5.7188,5.7188,5.7188,5.7188,5.7188,5.7188,5.7188,5.7188,5.7188,5.7188,5.7188,5.7188,5.7188,5.7188,5.7239,5.7338,5.7553,5.7745,5.7932,5.8142,5.8431,5.8624,5.8788,5.8966,5.9121,5.929,5.929,5.929,5.929,5.929,5.929,5.929,5.929,5.929,5.929,5.929,5.929,5.929,5.929,5.929,5.929,5.929,5.929,5.929,5.929,5.929,5.929,5.929,5.929,5.929,5.929,5.929,5.929,5.929,5.929,5.929,5.929,5.929,5.929,5.929,5.929,5.929,5.929,5.929,5.929,5.929,5.929,5.929,5.929,5.929,5.929,5.929,5.929,5.929,5.929,5.929,5.9417,5.9505,5.9706,5.9973,6.0264,6.0399,6.0406,6.0457,6.0599,6.0754,6.0922,6.1061,6.1118,6.1192,6.1227,6.1242,6.1255,6.1322,6.1371,6.1371,6.1371,6.1386,6.14,6.14,6.14,6.14,6.14,6.14,6.14,6.14,6.14,6.14,6.14,6.14,6.14,6.14,6.14,5.7188,5.7188,5.7188,5.7188,5.7188,5.7188,5.7188,5.7188,5.7188,5.7188,5.7188,5.7188,5.7188,5.7188,5.7188,5.7188,5.7289,5.7553,5.7792,5.7914,5.8186,5.8474,5.8706,5.8868,5.9005,5.9215,5.929,5.929,5.929,5.929,5.929,5.929,5.929,5.929,5.929,5.929,5.929,5.929,5.929,5.929,5.929,5.929,5.929,5.929,5.929,5.929,5.929,5.929,5.929,5.929,5.929,5.929,5.929,5.929,5.929,5.929,5.929,5.929,5.929,5.929,5.929,5.929,5.929,5.929,5.929,5.929,5.929,5.929,5.929,5.929,5.929,5.929,5.929,5.929,5.929,5.9364,5.9364,5.9417,5.954,5.9739,6.0015,6.0326,6.0618,6.0836,6.0817,6.086,6.0982,6.1061,6.108,6.1099,6.1118,6.1137,6.1192,6.1208,6.1223,6.1291,6.1322,6.1337,6.1352,6.1386,6.14,6.14,6.14,6.14,6.14,6.14,6.14,6.14,6.14,6.14,6.14,6.14,6.14,6.14,6.14,5.7188,5.7188,5.7188,5.7188,5.7188,5.7188,5.7188,5.7188,5.7188,5.7188,5.7188,5.7188,5.7188,5.7188,5.7188,5.7188,5.7289,5.7601,5.7839,5.8168,5.8474,5.8806,5.9044,5.9121,5.9178,5.9253,5.929,5.929,5.929,5.929,5.929,5.929,5.929,5.929,5.929,5.929,5.929,5.929,5.929,5.929,5.929,5.929,5.929,5.929,5.929,5.929,5.929,5.929,5.929,5.929,5.929,5.929,5.929,5.929,5.929,5.929,5.929,5.929,5.929,5.929,5.929,5.929,5.929,5.929,5.929,5.929,5.929,5.929,5.929,5.929,5.929,5.929,5.929,5.929,5.9327,5.9489,5.9559,5.9643,5.9758,6.0063,6.0326,6.0599,6.0882,6.0962,6.0963,6.0963,6.1061,6.108,6.1099,6.1099,6.1099,6.1117,6.1155,6.1173,6.1208,6.1259,6.1291,6.1322,6.1356,6.1386,6.14,6.14,6.14,6.14,6.14,6.14,6.14,6.14,6.14,6.14,6.14,6.14,6.14,6.14,6.14,5.7188,5.7188,5.7188,5.7188,5.7188,5.7188,5.7188,5.7188,5.7188,5.7188,5.7188,5.7188,5.7188,5.7188,5.7188,5.7356,5.7455,5.7821,5.8168,5.8455,5.8847,5.9082,5.9215,5.929,5.9253,5.929,5.929,5.929,5.929,5.929,5.929,5.929,5.929,5.929,5.929,5.929,5.929,5.929,5.929,5.929,5.929,5.929,5.929,5.929,5.929,5.929,5.929,5.929,5.929,5.929,5.929,5.929,5.929,5.929,5.929,5.929,5.929,5.929,5.929,5.929,5.929,5.929,5.929,5.929,5.929,5.929,5.929,5.929,5.929,5.929,5.929,5.929,5.929,5.929,5.9453,5.9609,5.9758,5.9823,6.0063,6.0326,6.0526,6.0798,6.1022,6.1041,6.108,6.108,6.1099,6.1099,6.1099,6.1099,6.1099,6.1099,6.1117,6.1155,6.1173,6.1208,6.1259,6.131,6.1356,6.1386,6.14,6.14,6.14,6.14,6.14,6.14,6.14,6.14,6.14,6.14,6.14,6.14,6.14,6.14,6.1414,5.7152,5.717,5.7188,5.7188,5.7188,5.7188,5.7188,5.7188,5.7188,5.7188,5.7188,5.7188,5.7188,5.7188,5.7188,5.7388,5.7745,5.8078,5.8412,5.8747,5.9044,5.9215,5.929,5.929,5.929,5.929,5.929,5.929,5.929,5.929,5.929,5.929,5.929,5.929,5.929,5.929,5.929,5.929,5.929,5.929,5.929,5.929,5.929,5.929,5.929,5.929,5.929,5.929,5.929,5.929,5.929,5.929,5.929,5.929,5.929,5.929,5.929,5.929,5.929,5.929,5.929,5.929,5.929,5.929,5.929,5.929,5.929,5.929,5.929,5.929,5.929,5.929,5.9327,5.9453,5.9609,5.9791,5.9931,6.0093,6.0372,6.057,6.0685,6.088,6.1041,6.1099,6.1099,6.1099,6.1099,6.1099,6.1099,6.1099,6.1099,6.1099,6.1099,6.1099,6.1155,6.1191,6.1261,6.1294,6.1322,6.1352,6.1386,6.14,6.14,6.14,6.14,6.14,6.14,6.14,6.1414,6.1414,6.1434,6.1414,6.1414,6.1434,6.1428,5.6337,5.6391,5.6953,5.7188,5.7188,5.7188,5.7188,5.7188,5.7188,5.7188,5.7188,5.7188,5.7188,5.7188,5.7188,5.7437,5.7821,5.8142,5.8455,5.8828,5.9178,5.9253,5.929,5.929,5.929,5.929,5.929,5.929,5.929,5.929,5.929,5.929,5.929,5.929,5.929,5.929,5.929,5.929,5.929,5.929,5.929,5.929,5.929,5.929,5.929,5.929,5.929,5.929,5.929,5.929,5.929,5.929,5.929,5.929,5.929,5.929,5.929,5.929,5.929,5.929,5.929,5.929,5.929,5.929,5.929,5.929,5.929,5.929,5.929,5.929,5.929,5.929,5.9417,5.9609,5.9791,5.9973,6.0151,6.0425,6.0666,6.0798,6.0901,6.0922,6.108,6.1099,6.1099,6.1099,6.1099,6.1099,6.1099,6.1099,6.1099,6.1099,6.1099,6.1099,6.1155,6.1191,6.1245,6.1278,6.1326,6.1337,6.1386,6.14,6.14,6.14,6.14,6.14,6.14,6.1414,6.1415,6.1456,6.147,6.1452,6.1434,6.1445,6.144,5.574,5.6047,5.6518,5.688,5.717,5.7188,5.7188,5.7188,5.7188,5.7188,5.7188,5.7188,5.7188,5.7257,5.7388,5.7679,5.8006,5.8388,5.8706,5.9005,5.9159,5.9253,5.929,5.929,5.929,5.929,5.929,5.929,5.929,5.929,5.929,5.929,5.929,5.929,5.929,5.929,5.929,5.929,5.929,5.929,5.929,5.929,5.929,5.929,5.929,5.929,5.929,5.929,5.929,5.929,5.929,5.929,5.929,5.929,5.929,5.929,5.929,5.929,5.929,5.929,5.929,5.929,5.929,5.929,5.929,5.929,5.929,5.929,5.929,5.929,5.929,5.9327,5.954,5.9758,5.9962,6.018,6.045,6.0731,6.0922,6.1041,6.108,6.108,6.1099,6.1099,6.1099,6.1099,6.1099,6.1099,6.1099,6.1099,6.1099,6.1099,6.1099,6.1099,6.1155,6.1173,6.1227,6.1261,6.1294,6.1341,6.1371,6.14,6.14,6.14,6.14,6.1414,6.1421,6.144,6.1456,6.1481,6.1495,6.1487,6.1478,6.1467,6.1483,5.5196,5.5776,5.5939,5.6446,5.7062,5.7134,5.7188,5.7188,5.7188,5.7188,5.7188,5.7188,5.7188,5.7239,5.7437,5.7774,5.8097,5.8369,5.8706,5.9215,5.9178,5.9215,5.929,5.929,5.929,5.929,5.929,5.929,5.929,5.929,5.929,5.929,5.929,5.929,5.929,5.929,5.929,5.929,5.929,5.929,5.929,5.929,5.929,5.929,5.929,5.929,5.929,5.929,5.929,5.929,5.929,5.929,5.929,5.929,5.929,5.929,5.929,5.929,5.929,5.929,5.929,5.929,5.929,5.929,5.929,5.929,5.929,5.929,5.929,5.929,5.929,5.9453,5.9643,5.9931,6.018,6.0425,6.0708,6.0922,6.1002,6.1099,6.1099,6.1099,6.1099,6.1099,6.1099,6.1099,6.1099,6.1099,6.1099,6.1099,6.1099,6.1099,6.1099,6.1099,6.1118,6.1155,6.121,6.1245,6.1297,6.1345,6.1386,6.14,6.14,6.1421,6.144,6.144,6.1433,6.1461,6.1478,6.1517,6.1534,6.1534,6.1514,6.1538,6.1534,5.4092,5.4381,5.5504,5.612,5.6355,5.6935,5.7152,5.7188,5.7188,5.7134,5.7188,5.717,5.7188,5.7239,5.7338,5.7631,5.7914,5.8168,5.8412,5.8788,5.8966,5.914,5.9253,5.929,5.929,5.929,5.929,5.929,5.929,5.929,5.929,5.929,5.929,5.929,5.929,5.929,5.929,5.929,5.929,5.929,5.929,5.929,5.929,5.929,5.929,5.929,5.929,5.929,5.929,5.929,5.929,5.929,5.929,5.929,5.929,5.929,5.929,5.929,5.929,5.929,5.929,5.929,5.929,5.929,5.929,5.929,5.929,5.929,5.929,5.929,5.9364,5.954,5.9758,6.0063,6.0372,6.0642,6.0942,6.1022,6.1099,6.1099,6.1099,6.1099,6.1099,6.1099,6.1099,6.1099,6.1099,6.1099,6.1099,6.1099,6.1099,6.1099,6.1099,6.1099,6.1118,6.1137,6.1192,6.1245,6.1294,6.1341,6.1405,6.1428,6.1434,6.1468,6.148,6.1471,6.147,6.1485,6.1501,6.1553,6.1592,6.16,6.162,6.1638,6.1621,5.3385,5.3838,5.4997,5.5522,5.5595,5.6011,5.6192,5.6192,5.6174,5.6373,5.6717,5.7007,5.7188,5.7239,5.7388,5.7504,5.7792,5.7978,5.8369,5.8706,5.8788,5.9044,5.9178,5.929,5.929,5.929,5.929,5.929,5.929,5.929,5.929,5.929,5.929,5.929,5.929,5.929,5.929,5.929,5.929,5.929,5.929,5.929,5.929,5.929,5.929,5.929,5.929,5.929,5.929,5.929,5.929,5.929,5.929,5.929,5.929,5.929,5.929,5.929,5.929,5.929,5.929,5.929,5.929,5.929,5.929,5.929,5.929,5.929,5.929,5.929,5.9381,5.954,5.9836,6.0151,6.045,6.0731,6.0942,6.108,6.1099,6.1099,6.1099,6.1099,6.1099,6.1099,6.1099,6.1099,6.1099,6.1099,6.1099,6.1099,6.1099,6.1099,6.1099,6.1099,6.1099,6.1137,6.1192,6.1245,6.1294,6.1341,6.14,6.1428,6.1468,6.149,6.1495,6.1485,6.1495,6.1522,6.1533,6.1577,6.1621,6.1668,6.169,6.1701,6.1678,5.2915,5.3621,5.4418,5.4762,5.478,5.4888,5.4961,5.4961,5.4943,5.5305,5.5866,5.6536,5.6935,5.732,5.7534,5.7631,5.7726,5.7774,5.822,5.854,5.8684,5.8868,5.9082,5.9272,5.929,5.929,5.929,5.929,5.929,5.929,5.929,5.929,5.929,5.929,5.929,5.929,5.929,5.929,5.929,5.929,5.929,5.929,5.929,5.929,5.929,5.929,5.929,5.929,5.929,5.929,5.929,5.929,5.929,5.929,5.929,5.929,5.929,5.929,5.929,5.929,5.929,5.929,5.929,5.929,5.929,5.929,5.929,5.929,5.929,5.94,5.9453,5.9673,5.9954,6.0291,6.057,6.0817,6.0963,6.1099,6.1099,6.1099,6.1099,6.1099,6.1099,6.1099,6.1099,6.1099,6.1099,6.1099,6.1099,6.1099,6.1099,6.1099,6.1099,6.1099,6.1099,6.1137,6.1173,6.1264,6.1314,6.1341,6.1389,6.144,6.1478,6.1517,6.1509,6.1538,6.1553,6.1582,6.1601,6.16,6.1653,6.1694,6.169,6.1701,6.1701,5.2589,5.2806,5.3603,5.3929,5.4019,5.4599,5.4907,5.4888,5.4852,5.5015,5.5106,5.5305,5.5921,5.717,5.7239,5.7338,5.7437,5.7516,5.7679,5.796,5.8344,5.8624,5.8908,5.9253,5.929,5.929,5.929,5.929,5.929,5.929,5.929,5.929,5.929,5.929,5.929,5.929,5.929,5.929,5.929,5.929,5.929,5.929,5.929,5.929,5.929,5.929,5.929,5.929,5.929,5.929,5.929,5.929,5.929,5.929,5.929,5.929,5.929,5.929,5.929,5.929,5.929,5.929,5.929,5.929,5.929,5.929,5.929,5.9309,5.9364,5.9524,5.9624,5.9954,6.0245,6.057,6.0858,6.0942,6.108,6.1099,6.1099,6.1099,6.1099,6.1099,6.1099,6.1099,6.1099,6.1099,6.1099,6.1099,6.1099,6.1099,6.1099,6.1099,6.1099,6.1099,6.1099,6.1117,6.1155,6.1264,6.1345,6.1394,6.1429,6.1463,6.1509,6.1534,6.1573,6.1601,6.1637,6.1633,6.1648,6.1662,6.1674,6.1701,6.1701,6.1701,6.1701]},{"header":{"parameterUnit":"m.s-1","parameterCategory":1,"la1":31.0,"la2":29.5877,"lo1":-88.7671,"lo2":-86.6584,"dy":0.0162,"dx":0.0185,"nx":115,"ny":88,"refTime":"2023-03-01T06:00:00:Z","depth":0,"parameterNumber":3,"parameterNumberName":"V-component_of_WINDS"},"data":[0.0,0.0,0.0,0.0,0.0,0.0,0.0,0.0,0.0,0.0,0.0,0.0,0.0,0.0,0.0,0.0,0.0,0.0,0.0,0.0,0.0,0.0,0.0,0.0,0.0,0.0,0.0,0.0,0.0,0.0,0.0,0.0,0.0,0.0,0.0,0.0,0.0,0.0,0.0,0.0,0.0,0.0,0.0,0.0,0.0,0.0,0.0,0.0,0.0,0.0,0.0,0.0,0.0,0.0,0.0,0.0,0.0,0.0,0.0,0.0,0.0,0.0,0.0,0.0,0.0,0.0,0.0,0.0,0.0,0.0,0.0,0.0,0.0,0.0,0.0,0.0,0.0,0.0,0.0,0.0,0.0,0.0,0.0,0.0,0.0,0.0,0.0,0.0,0.0,0.0,0.0,0.0,0.0,0.0,0.0,0.0,0.0,0.0,0.0,0.0,0.0,0.0,0.0,0.0,0.0,0.0,0.0,0.0,0.0,0.0,0.0,0.0,0.0,0.0,0.0,0.0,0.0,0.0,0.0,0.0,0.0,0.0,0.0,0.0,0.0,0.0,0.0,0.0,0.0,0.0,0.0,0.0,0.0,0.0,0.0,0.0,0.0,0.0,0.0,0.0,0.0,0.0,0.0,0.0,0.0,0.0,0.0,0.0,0.0,0.0,0.0,0.0,0.0,0.0,0.0,0.0,0.0,0.0,0.0,0.0,0.0,0.0,0.0,0.0,0.0,0.0,0.0,0.0,0.0,0.0,0.0,0.0,0.0,0.0,0.0,0.0,0.0,0.0,0.0,0.0,0.0,0.0,0.0,0.0,0.0,0.0,0.0,0.0,0.0,0.0,0.0,0.0,0.0,0.0,0.0,0.0,0.0,0.0,0.0,0.0,0.0,0.0,0.0,0.0,0.0,0.0,0.0,0.0,0.0,0.0,0.0,0.0,0.0,0.0,0.0,0.0,0.0,0.0,0.0,0.0,0.0,0.0,0.0,0.0,0.0,0.0,0.0,0.0,0.0,0.0,0.0,0.0,0.0,0.0,0.0,0.0,0.0,0.0,0.0,0.0,0.0,0.0,0.0,0.0,0.0,0.0,0.0,0.0,0.0,0.0,0.0,0.0,0.0,0.0,0.0,0.0,0.0,0.0,0.0,0.0,0.0,0.0,0.0,0.0,0.0,0.0,0.0,0.0,0.0,0.0,0.0,0.0,0.0,0.0,0.0,0.0,0.0,0.0,0.0,0.0,0.0,0.0,0.0,0.0,0.0,0.0,0.0,0.0,0.0,0.0,0.0,0.0,0.0,0.0,0.0,0.0,0.0,0.0,0.0,0.0,0.0,0.0,0.0,0.0,0.0,0.0,0.0,0.0,0.0,0.0,0.0,0.0,0.0,0.0,0.0,0.0,0.0,0.0,0.0,0.0,0.0,0.0,0.0,0.0,0.0,0.0,0.0,0.0,0.0,0.0,0.0,0.0,0.0,0.0,0.0,0.0,0.0,0.0,0.0,0.0,0.0,0.0,0.0,0.0,0.0,0.0,0.0,0.0,0.0,0.0,0.0,0.0,0.0,0.0,0.0,0.0,0.0,0.0,0.0,0.0,0.0,0.0,0.0,0.0,0.0,0.0,0.0,0.0,0.0,0.0,0.0,0.0,0.0,0.0,0.0,0.0,0.0,0.0,0.0,0.0,0.0,0.0,0.0,0.0,0.0,0.0,0.0,0.0,0.0,0.0,0.0,0.0,0.0,0.0,0.0,0.0,0.0,0.0,0.0,0.0,0.0,0.0,0.0,0.0,0.0,0.0,0.0,0.0,0.0,0.0,0.0,0.0,0.0,0.0,0.0,0.0,0.0,0.0,0.0,0.0,0.0,0.0,0.0,0.0,0.0,0.0,0.0,0.0,0.0,0.0,0.0,0.0,0.0,0.0,0.0,0.0,0.0,0.0,0.0,0.0,0.0,0.0,0.0,0.0,0.0,0.0,0.0,0.0,0.0,0.0,0.0,0.0,0.0,0.0,0.0,0.0,0.0,0.0,0.0,0.0,0.0,0.0,0.0,0.0,0.0,0.0,0.0,0.0,0.0,0.0,0.0,0.0,0.0,0.0,0.0,0.0,0.0,0.0,0.0,0.0,0.0,0.0,0.0,0.0,0.0,0.0,0.0,0.0,0.0,0.0,0.0,0.0,0.0,0.0,0.0,0.0,0.0,0.0,0.0,0.0,0.0,0.0,0.0,0.0,0.0,0.0,0.0,0.0,0.0,0.0,0.0,0.0,0.0,0.0,0.0,0.0,0.0,0.0,0.0,0.0,0.0,0.0,0.0,0.0,0.0,0.0,0.0,0.0,0.0,0.0,0.0,0.0,0.0,0.0,0.0,0.0,0.0,0.0,0.0,0.0,0.0,0.0,0.0,0.0,0.0,0.0,0.0,0.0,0.0,0.0,0.0,0.0,0.0,0.0,0.0,0.0,0.0,0.0,0.0,0.0,0.0,0.0,0.0,0.0,0.0,0.0,0.0,0.0,0.0,0.0,0.0,0.0,0.0,0.0,0.0,0.0,0.0,0.0,0.0,0.0,0.0,0.0,0.0,0.0,0.0,0.0,0.0,0.0,0.0,0.0,0.0,0.0,0.0,0.0,0.0,0.0,0.0,0.0,0.0,0.0,0.0,0.0,0.0,0.0,0.0,0.0,0.0,0.0,0.0,0.0,0.0,0.0,0.0,0.0,0.0,0.0,0.0,0.0,0.0,0.0,0.0,0.0,0.0,0.0,0.0,0.0,0.0,0.0,0.0,0.0,0.0,0.0,0.0,0.0,0.0,0.0,0.0,0.0,0.0,0.0,0.0,0.0,0.0,0.0,0.0,0.0,0.0,0.0,0.0,0.0,0.0,0.0,0.0,0.0,0.0,0.0,0.0,0.0,0.0,0.0,0.0,0.0,0.0,0.0,0.0,0.0,0.0,0.0,0.0,0.0,0.0,0.0,0.0,0.0,0.0,0.0,0.0,0.0,0.0,0.0,0.0,0.0,0.0,0.0,0.0,0.0,0.0,0.0,0.0,0.0,0.0,0.0,0.0,0.0,0.0,0.0,0.0,0.0,0.0,0.0,0.0,0.0,0.0,0.0,0.0,0.0,0.0,0.0,0.0,0.0,0.0,0.0,0.0,0.0,0.0,0.0,0.0,0.0,0.0,0.0,0.0,0.0,0.0,0.0,0.0,0.0,0.0,0.0,0.0,0.0,0.0,0.0,0.0,0.0,0.0,0.0,0.0,0.0,0.0,0.0,0.0,0.0,0.0,0.0,0.0,0.0,0.0,0.0,0.0,0.0,0.0,0.0,0.0,0.0,0.0,0.0,0.0,0.0,0.0,0.0,0.0,0.0,0.0,0.0,0.0,0.0,0.0,0.0,0.0,0.0,0.0,0.0,0.0,0.0,0.0,0.0,0.0,0.0,0.0,0.0,0.0,0.0,0.0,0.0,0.0,0.0,0.0,0.0,0.0,0.0,0.0,0.0,0.0,0.0,0.0,0.0,0.0,0.0,0.0,0.0,0.0,0.0,0.0,0.0,0.0,0.0,0.0,0.0,0.0,0.0,0.0,0.0,0.0,0.0,0.0,0.0,0.0,0.0,0.0,0.0,0.0,0.0,0.0,0.0,0.0,0.0,0.0,0.0,0.0,0.0,0.0,0.0,0.0,0.0,0.0,0.0,0.0,0.0,0.0,0.0,0.0,0.0,0.0,0.0,0.0,0.0,0.0,0.0,0.0,0.0,0.0,0.0,0.0,0.0,0.0,0.0,0.0,0.0,0.0,0.0,0.0,0.0,0.0,0.0,0.0,0.0,0.0,0.0,0.0,0.0,0.0,0.0,0.0,0.0,0.0,0.0,0.0,0.0,0.0,0.0,0.0,0.0,0.0,0.0,0.0,0.0,0.0,0.0,0.0,0.0,0.0,0.0,0.0,0.0,0.0,0.0,0.0,0.0,0.0,0.0,0.0,0.0,0.0,0.0,0.0,0.0,0.0,0.0,0.0,0.0,0.0,0.0,0.0,0.0,0.0,0.0,0.0,0.0,0.0,0.0,0.0,0.0,0.0,0.0,0.0,0.0,0.0,0.0,0.0,0.0,0.0,0.0,0.0,0.0,0.0,0.0,0.0,0.0,0.0,0.0,0.0,0.0,0.0,0.0,0.0,0.0,0.0,0.0,0.0,0.0,0.0,0.0,0.0,0.0,0.0,0.0,0.0,0.0,0.0,0.0,0.0,0.0,0.0,0.0,0.0,0.0,0.6954,0.0,0.0,0.0,0.0,0.0,0.0,0.0,0.0,0.0,0.0,0.0,0.0,0.0,0.0,0.0,0.0,0.0,0.0,0.0,0.0,0.0,0.0,0.0,0.0,0.0,0.0,0.0,0.0,0.0,0.0,0.0,0.0,0.0,0.0,0.0,0.0,0.0,0.0,0.0,0.0,0.0,0.0,0.0,0.0,0.0,0.0,0.0,0.0,0.0,0.0,0.0,0.0,0.0,0.0,0.0,0.0,0.0,0.0,0.0,0.0,0.0,0.0,0.0,0.0,0.0,0.0,0.0,0.0,0.0,0.0,0.0,0.0,0.0,0.0,0.0,0.0,0.0,0.0,0.0,0.0,0.0,0.0,0.0,0.0,0.0,0.0,0.0,0.0,0.0,0.0,0.0,0.0,0.0,0.0,0.0,0.0,0.0,0.0,0.0,0.0,0.0,0.0,0.0,0.0,0.0,0.0,0.0,0.0,0.0,0.0,0.7196,0.7106,0.7192,0.7151,0.7032,0.0,0.0,0.0,0.0,0.0,0.0,0.0,0.0,0.0,0.0,0.0,0.0,0.0,0.0,0.0,0.0,0.0,0.0,0.0,0.0,0.0,0.0,0.0,0.0,0.0,0.0,0.0,0.0,0.0,0.0,0.0,0.0,0.0,0.0,0.0,0.0,0.0,0.0,0.0,0.0,0.0,0.0,0.0,0.0,0.0,0.0,0.0,0.0,0.0,0.0,0.0,0.0,0.0,0.0,0.0,0.0,0.0,0.0,0.0,0.0,0.0,0.0,0.0,0.0,0.0,0.0,0.0,0.0,0.0,0.0,0.0,0.0,0.0,0.0,0.0,0.0,0.0,0.0,0.0,0.0,0.0,0.0,0.0,0.0,0.0,0.0,0.0,0.0,0.0,0.0,0.0,0.0,0.0,0.0,0.0,0.0,0.0,0.0,0.0,0.0,0.0,0.0,0.0,0.0,0.0,0.0,0.0,0.0,0.0,0.0,0.0,0.0,0.7415,0.7354,0.709,0.0,0.0,0.0,0.0,0.0,0.0,0.0,0.0,0.0,0.0,0.0,0.0,0.0,0.0,0.0,0.0,0.0,0.0,0.0,0.0,0.0,0.0,0.0,0.0,0.0,0.0,0.0,0.0,0.0,0.0,0.0,0.0,0.0,0.0,0.0,0.0,0.0,0.0,0.0,0.0,0.0,0.0,0.0,0.0,0.0,0.0,0.0,0.0,0.0,0.0,0.0,0.0,0.0,0.0,0.0,0.0,0.0,0.0,0.0,0.0,0.0,0.0,0.0,0.0,0.0,0.0,0.0,0.0,0.0,0.0,0.0,0.0,0.0,0.0,0.0,0.0,0.0,0.0,0.0,0.0,0.0,0.0,0.0,0.0,0.0,0.0,0.0,0.0,0.0,0.0,0.0,0.0,0.0,0.0,0.0,0.0,0.0,0.0,0.0,0.0,0.0,0.0,0.0,0.0,0.0,0.0,0.0,0.0,0.0,0.0,0.7476,0.7464,0.7476,0.0,0.7435,0.0,0.0,0.0,0.0,0.0,0.0,0.0,0.0,0.0,0.0,0.0,0.0,0.0,0.0,0.0,0.0,0.0,0.0,0.0,0.0,0.0,0.0,0.0,0.0,0.0,0.0,0.0,0.0,0.0,0.0,0.0,0.0,0.0,0.0,0.0,0.0,0.0,0.0,0.0,0.0,0.0,0.0,0.0,0.0,0.0,0.0,0.0,0.0,0.0,0.0,0.0,0.0,0.0,0.0,0.0,0.0,0.0,0.0,0.0,0.0,0.0,0.0,0.0,0.0,0.0,0.0,0.0,0.0,0.0,0.0,0.0,0.0,0.0,0.0,0.0,0.0,0.0,0.0,0.0,0.0,0.0,0.0,0.0,0.0,0.0,0.0,0.0,0.0,0.0,0.0,0.0,0.0,0.0,0.0,0.0,0.0,0.0,0.0,0.0,0.0,0.0,0.0,0.0,0.0,0.0,0.0,0.0,0.0,0.0,0.0,0.748,0.748,0.748,0.748,0.0,0.0,0.0,0.0,0.0,0.0,0.0,0.0,0.0,0.0,0.0,0.0,0.0,0.0,0.0,0.0,0.0,0.0,0.0,0.0,0.0,0.0,0.0,0.0,0.0,0.0,0.0,0.0,0.0,0.0,0.0,0.0,0.0,0.0,0.0,0.0,0.0,0.0,0.0,0.0,0.0,0.0,0.0,0.0,0.0,0.0,0.0,0.0,0.0,0.0,0.0,0.0,0.0,0.0,0.0,0.0,0.0,0.0,0.0,0.0,0.0,0.0,0.0,0.0,0.0,0.0,0.0,0.0,0.0,0.0,0.0,0.0,0.0,0.0,0.0,0.0,0.0,0.0,0.0,0.0,0.0,0.0,0.0,0.0,0.0,0.0,0.0,0.0,0.0,0.0,0.0,0.0,0.0,0.0,0.0,0.0,0.0,0.0,0.0,0.0,0.0,0.0,0.0,0.0,0.0,0.0,0.0,0.0,0.0,0.0,0.748,0.748,0.748,0.748,0.748,0.748,0.0,0.0,0.0,0.0,0.0,0.0,0.0,0.0,0.0,0.0,0.0,0.0,0.0,0.0,0.0,0.0,0.0,0.0,0.0,0.0,0.0,0.0,0.0,0.0,0.0,0.0,0.0,0.0,0.0,0.0,0.0,0.0,0.0,0.0,0.0,0.0,0.0,0.0,0.0,0.0,0.0,0.0,0.0,0.0,0.0,0.0,0.0,0.0,0.0,0.0,0.0,0.0,0.0,0.0,0.0,0.0,0.0,0.0,0.0,0.0,0.0,0.0,0.0,0.0,0.0,0.0,0.0,0.0,0.0,0.0,0.0,0.0,0.0,0.0,0.0,0.0,0.0,0.0,0.0,0.0,0.0,0.0,0.0,0.0,0.0,0.0,0.0,0.0,0.0,0.0,0.0,0.0,0.0,0.0,0.0,0.0,0.0,0.0,0.0,0.0,0.0,0.0,0.0,0.0,0.0,0.0,0.0,0.0,0.748,0.748,0.748,0.748,0.748,0.748,0.0,0.0,0.0,0.0,0.0,0.0,0.0,0.0,0.0,0.0,0.0,0.0,0.0,0.0,0.0,0.0,0.0,0.0,0.0,0.0,0.0,0.0,0.0,0.0,0.0,0.0,0.0,0.0,0.0,0.0,0.0,0.0,0.0,0.0,0.0,0.0,0.0,0.0,0.0,0.0,0.0,0.0,0.0,0.0,0.0,0.0,0.0,0.0,0.0,0.0,0.0,0.0,0.0,0.0,0.0,0.0,0.0,0.0,0.0,0.0,0.0,0.0,0.0,0.0,0.0,0.0,0.0,0.0,0.0,0.0,0.0,0.0,0.0,0.0,0.0,0.0,0.0,0.0,0.0,0.0,0.0,0.0,0.0,0.0,0.0,0.0,0.0,0.0,0.0,0.0,0.0,0.0,0.0,0.0,0.0,0.0,0.0,0.0,0.0,0.0,0.0,0.0,0.0,0.0,0.0,0.0,0.0,0.0,0.0,0.748,0.748,0.748,0.748,0.748,0.748,0.0,0.0,0.0,0.0,0.0,0.0,0.0,0.0,0.0,0.0,0.0,0.0,0.0,0.0,0.0,0.0,0.0,0.0,0.0,0.0,0.0,0.0,0.0,0.0,0.0,0.0,0.0,0.0,0.0,0.0,0.0,0.0,0.0,0.0,0.0,0.0,0.0,0.0,0.0,0.0,0.0,0.0,0.0,0.0,0.0,0.0,0.0,0.0,0.0,0.0,0.0,0.0,0.0,0.0,0.0,0.0,0.0,0.0,0.0,0.0,0.0,0.0,0.0,0.0,0.0,0.0,0.0,0.0,0.0,0.0,0.0,0.0,0.0,0.0,0.0,0.0,0.0,0.0,0.0,0.0,0.0,0.0,0.0,0.0,0.0,0.0,0.0,0.0,0.0,0.0,0.0,0.0,0.0,0.0,0.0,0.0,0.0,0.0,0.0,0.0,0.0,0.0,0.0,0.0,0.0,0.0,0.0,0.0,0.0,0.748,0.0,0.748,0.748,0.748,0.748,0.0,0.0,0.0,0.0,0.0,0.0,0.0,0.0,0.0,0.0,0.0,0.0,0.0,0.0,0.0,0.0,0.0,0.0,0.0,0.0,0.0,0.0,0.0,0.0,0.0,0.0,0.0,0.0,0.0,0.0,0.0,0.0,0.0,0.0,0.0,0.0,0.0,0.0,0.0,0.0,0.0,0.0,0.0,0.0,0.0,0.0,0.0,0.0,0.0,0.0,0.0,0.0,0.0,0.0,0.0,0.0,0.0,0.0,0.0,0.0,0.0,0.0,0.0,0.0,0.0,0.0,0.0,0.0,0.0,0.0,0.0,0.0,0.0,0.0,0.0,0.0,0.0,0.0,0.0,0.0,0.0,0.0,0.0,0.0,0.0,0.0,0.0,0.0,0.0,0.0,0.0,0.0,0.0,0.0,0.0,0.0,0.0,0.0,0.0,0.0,0.0,0.0,0.0,0.0,0.0,0.0,0.0,0.0,0.748,0.748,0.748,0.748,0.748,0.748,0.748,0.0,0.0,0.0,0.0,0.0,0.0,0.0,0.0,0.0,0.0,0.0,0.0,0.0,0.0,0.0,0.0,0.0,0.0,0.0,0.0,0.0,0.0,0.0,0.0,0.0,0.0,0.0,0.0,0.0,0.0,0.0,0.0,0.0,0.0,0.0,0.0,0.0,0.0,0.0,0.0,0.0,0.0,0.0,0.0,0.0,0.0,0.0,0.0,0.0,0.0,0.0,0.0,0.0,0.0,0.0,0.0,0.0,0.0,0.0,0.0,0.0,0.0,0.0,0.0,0.0,0.0,0.0,0.0,0.0,0.0,0.0,0.0,0.0,0.0,0.0,0.0,0.0,0.0,0.0,0.0,0.0,0.0,0.0,0.0,0.0,0.0,0.0,0.0,0.0,0.0,0.0,0.0,0.0,0.0,0.0,0.0,0.0,0.0,0.0,0.0,0.0,0.0,0.0,0.0,0.0,0.0,0.0,0.0,0.0,0.748,0.748,0.748,0.748,0.748,0.748,0.0,0.0,0.0,0.0,0.0,0.0,0.0,0.0,0.0,0.0,0.0,0.0,0.0,0.0,0.0,0.0,0.0,0.0,0.0,0.0,0.0,0.0,0.0,0.0,0.0,0.0,0.0,0.0,0.0,0.0,0.0,0.0,0.0,0.0,0.0,0.0,0.0,0.0,0.0,0.0,0.0,0.0,0.0,0.0,0.0,0.0,0.0,0.0,0.0,0.0,0.0,0.0,0.0,0.0,0.0,0.0,0.0,0.0,0.0,0.0,0.0,0.0,0.0,0.0,0.0,0.0,0.0,0.0,0.0,0.0,0.0,0.0,0.0,0.0,0.0,0.0,0.0,0.0,0.0,0.0,0.0,0.0,0.0,0.0,0.0,0.0,0.0,0.0,0.0,0.0,0.0,0.0,0.0,0.0,0.0,0.0,0.0,0.0,0.0,0.0,0.0,0.0,0.0,0.0,0.0,0.0,0.0,0.0,0.0,0.748,0.748,0.748,0.748,0.748,0.748,0.748,0.0,0.0,0.0,0.0,0.0,0.0,0.0,0.0,0.0,0.0,0.0,0.0,0.0,0.0,0.0,0.0,0.0,0.0,0.0,0.0,0.0,0.0,0.0,0.0,0.0,0.0,0.0,0.0,0.0,0.0,0.0,0.0,0.0,0.0,0.0,0.0,0.0,0.0,0.0,0.0,0.0,0.0,0.0,0.0,0.0,0.0,0.0,0.0,0.0,0.0,0.0,0.0,0.0,0.0,0.0,0.0,0.0,0.0,0.0,0.0,0.0,0.0,0.0,0.0,0.0,0.0,0.0,0.0,0.0,0.0,0.0,0.0,0.0,0.0,0.0,0.0,0.0,0.0,0.0,0.0,0.0,0.0,0.0,0.0,0.0,0.0,0.0,0.0,0.0,0.0,0.0,0.0,0.0,0.0,0.0,0.0,0.0,0.0,0.0,0.0,0.0,0.0,0.0,0.0,0.0,0.0,0.0,0.0,0.7508,0.7512,0.7504,0.748,0.748,0.748,0.0,0.0,0.0,0.0,0.0,0.0,0.0,0.0,0.0,0.0,0.0,0.0,0.0,0.0,0.0,0.0,0.0,0.0,0.0,0.0,0.0,0.0,0.0,0.0,0.0,0.0,0.0,0.0,0.0,0.0,0.0,0.0,0.0,0.0,0.0,0.0,0.0,0.0,0.0,0.0,0.0,0.0,0.0,0.0,0.0,0.0,0.0,0.0,0.0,0.0,0.0,0.0,0.0,0.0,0.0,0.0,0.0,0.0,0.0,0.0,0.0,0.0,0.0,0.0,0.0,0.0,0.0,0.0,0.0,0.0,0.0,0.0,0.0,0.0,0.0,0.0,0.0,0.0,0.0,0.0,0.0,0.0,0.0,0.0,0.0,0.0,0.0,0.0,0.0,0.0,0.0,0.0,0.0,0.0,0.0,0.0,0.0,0.0,0.0,0.0,0.0,0.0,0.0,0.0,0.0,0.0,0.0,0.0,0.0,0.7874,0.7874,0.7748,0.7492,0.748,0.748,0.0,0.0,0.0,0.0,0.0,0.0,0.0,0.0,0.0,0.0,0.0,0.0,0.0,0.0,0.0,0.0,0.0,0.0,0.0,0.0,0.0,0.0,0.0,0.0,0.0,0.0,0.0,0.0,0.0,0.0,0.0,0.0,0.0,0.0,0.0,0.0,0.0,0.0,0.0,0.0,0.0,0.0,0.0,0.0,0.0,0.0,0.0,0.0,0.0,0.0,0.0,0.0,0.0,0.0,0.0,0.0,0.0,0.0,0.0,0.0,0.0,0.0,0.0,0.0,0.0,0.0,0.0,0.0,0.0,0.0,0.0,0.0,0.0,0.0,0.0,0.0,0.0,0.0,0.0,0.0,0.0,0.0,0.0,0.0,0.0,0.0,0.0,0.0,0.0,0.0,0.0,0.0,0.0,0.0,0.0,0.0,0.0,0.0,0.0,0.0,0.0,0.0,0.0,0.0,0.0,0.0,0.0,0.0,0.8012,0.8012,0.8012,0.7914,0.7711,0.7707,0.7707,0.0,0.0,0.0,0.0,0.0,0.0,0.0,0.0,0.0,0.0,0.0,0.0,0.0,0.0,0.0,0.0,0.0,0.0,0.0,0.0,0.0,0.0,0.0,0.0,0.0,0.0,0.0,0.0,0.0,0.0,0.0,0.0,0.0,0.0,0.0,0.0,0.0,0.0,0.0,0.0,0.0,0.0,0.0,0.0,0.0,0.0,0.0,0.0,0.0,0.0,0.0,0.0,0.0,0.0,0.0,0.0,0.0,0.0,0.0,0.0,0.0,0.0,0.0,0.0,0.0,0.0,0.0,0.0,0.0,0.0,0.0,0.0,0.0,0.0,0.0,0.0,0.0,0.0,0.0,0.0,0.0,0.0,0.0,0.0,0.0,0.0,0.0,0.0,0.0,0.0,0.0,0.0,0.0,0.0,0.0,0.0,0.0,0.0,0.0,0.0,0.0,0.0,0.0,0.0,0.0,0.0,0.0,0.0,0.8073,0.8073,0.8073,0.8069,0.8152,0.8032,0.8012,0.0,0.0,0.0,0.0,0.0,0.0,0.0,0.0,0.0,0.0,0.0,0.0,0.0,0.0,0.0,0.0,0.0,0.0,0.0,0.0,0.0,0.0,0.0,0.0,0.0,0.0,0.0,0.0,0.0,0.0,0.0,0.0,0.0,0.0,0.0,0.0,0.0,0.0,0.0,0.0,0.0,0.0,0.0,0.0,0.0,0.0,0.0,0.0,0.0,0.0,0.0,0.0,0.0,0.0,0.0,0.0,0.0,0.0,0.0,0.0,0.0,0.0,0.0,0.0,0.0,0.0,0.0,0.0,0.0,0.0,0.0,0.0,0.0,0.0,0.0,0.0,0.0,0.0,0.0,0.0,0.0,0.0,0.0,0.0,0.0,0.0,0.0,0.0,0.0,0.0,0.0,0.0,0.0,0.0,0.0,0.0,0.0,0.0,0.0,0.0,0.0,0.0,0.0,0.0,0.0,0.0,0.0,0.0,0.845,0.8446,0.845,0.8624,0.9048,0.833,0.8012,0.0,0.0,0.0,0.0,0.0,0.0,0.0,0.0,0.0,0.0,0.0,0.0,0.0,0.0,0.0,0.0,0.0,0.0,0.0,0.0,0.0,0.0,0.0,0.0,0.0,0.0,0.0,0.0,0.0,0.0,0.0,0.0,0.0,0.0,0.0,0.0,0.0,0.0,0.0,0.0,0.0,0.0,0.0,0.0,0.0,0.0,0.0,0.0,0.7139,0.0,0.0,0.0,0.0,0.0,0.0,0.0,0.0,0.0,0.0,0.0,0.0,0.0,0.0,0.0,0.0,0.0,0.0,0.0,0.0,0.0,0.0,0.0,0.0,0.0,0.0,0.0,0.0,0.0,0.0,0.0,0.0,0.0,0.0,0.0,0.0,0.0,0.0,0.0,0.0,0.0,0.0,0.0,0.0,0.0,0.0,0.0,0.0,0.0,0.0,0.0,0.0,0.0,0.0,0.0,0.0,0.0,0.0,0.0,0.8572,0.8572,0.8572,0.8744,0.8903,0.8717,0.8607,0.0,0.0,0.0,0.0,0.0,0.0,0.0,0.0,0.0,0.0,0.0,0.0,0.0,0.0,0.0,0.0,0.0,0.0,0.0,0.0,0.0,0.0,0.0,0.0,0.0,0.0,0.0,0.0,0.0,0.0,0.0,0.0,0.0,0.0,0.0,0.0,0.0,0.0,0.0,0.0,0.0,0.0,0.0,0.0,0.0,0.0,0.0,0.0,0.0,0.0,0.0,0.0,0.0,0.0,0.0,0.0,0.0,0.0,0.0,0.0,0.0,0.0,0.0,0.0,0.0,0.0,0.0,0.0,0.0,0.0,0.0,0.0,0.0,0.0,0.0,0.0,0.0,0.0,0.0,0.0,0.0,0.0,0.0,0.0,0.0,0.0,0.0,0.0,0.0,0.0,0.0,0.0,0.0,0.0,0.0,0.0,0.0,0.0,0.0,0.0,0.0,0.0,0.0,0.0,0.0,0.0,0.0,0.8572,0.8572,0.8568,0.8652,0.874,0.8828,0.917,0.9432,0.9515,0.0,0.0,0.0,0.0,0.0,0.0,0.0,0.0,0.0,0.0,0.0,0.0,0.0,0.0,0.0,0.0,0.0,0.0,0.0,0.0,0.0,0.0,0.0,0.0,0.0,0.0,0.0,0.0,0.0,0.0,0.0,0.0,0.0,0.0,0.0,0.0,0.0,0.0,0.7037,0.7139,0.0,0.0,0.0,0.0,0.0,0.0,0.0,0.0,0.7139,0.0,0.0,0.0,0.0,0.0,0.0,0.0,0.0,0.0,0.0,0.0,0.0,0.0,0.0,0.0,0.0,0.0,0.0,0.0,0.0,0.0,0.0,0.0,0.0,0.0,0.0,0.0,0.0,0.0,0.0,0.0,0.0,0.0,0.0,0.0,0.0,0.0,0.0,0.0,0.0,0.0,0.0,0.0,0.0,0.0,0.0,0.0,0.0,0.0,0.0,0.0,0.0,0.0,0.0,0.0,0.0,0.8572,0.8572,0.8572,0.8568,0.8999,0.9349,0.9777,0.9864,1.0038,1.0294,0.0,0.0,0.0,0.0,0.0,0.0,0.0,0.0,0.0,0.0,0.0,0.0,0.0,0.0,0.0,0.0,0.0,0.0,0.0,0.0,0.0,0.0,0.0,0.0,0.0,0.0,0.0,0.0,0.0,0.0,0.0,0.0,0.0,0.0,0.0,0.0,0.0,0.0,0.0,0.7139,0.7139,0.0,0.0,0.0,0.0,0.0,0.0,0.0,0.0,0.7139,0.0,0.0,0.0,0.0,0.0,0.0,0.0,0.0,0.0,0.0,0.0,0.0,0.0,0.0,0.0,0.0,0.0,0.0,0.0,0.0,0.0,0.0,0.0,0.0,0.0,0.0,0.0,0.0,0.0,0.0,0.0,0.0,0.0,0.0,0.0,0.0,0.0,0.0,0.0,0.0,0.0,0.0,0.0,0.0,0.0,0.0,0.0,0.0,0.0,0.0,0.0,0.0,0.0,0.0,0.0,0.8915,0.9003,0.9087,0.9349,0.9519,0.9781,0.9951,1.0207,1.0381,0.0,0.0,0.0,0.0,0.0,0.0,0.0,0.0,0.0,0.0,0.0,0.0,0.0,0.0,0.0,0.0,0.0,0.0,0.0,0.0,0.0,0.0,0.0,0.0,0.0,0.0,0.0,0.0,0.0,0.0,0.0,0.0,0.0,0.0,0.0,0.0,0.0,0.0,0.0,0.0,0.7139,0.7139,0.7139,0.0,0.0,0.0,0.0,0.0,0.0,0.7139,0.7139,0.0,0.0,0.0,0.0,0.0,0.0,0.0,0.0,0.0,0.0,0.0,0.0,0.0,0.0,0.0,0.0,0.0,0.0,0.0,0.0,0.0,0.0,0.0,0.0,0.0,0.0,0.0,0.0,0.0,0.0,0.0,0.0,0.0,0.0,0.0,0.0,0.0,0.0,0.0,0.0,0.0,0.0,0.0,0.0,0.0,0.0,0.0,0.0,0.0,0.0,0.0,0.0,0.0,0.0,0.0,0.9437,0.9432,0.9602,0.9951,1.012,1.0125,1.012,1.0554,1.0722,0.0,0.0,0.0,0.0,0.0,0.0,0.0,0.0,0.0,0.0,0.0,0.0,0.0,0.0,0.0,0.0,0.0,0.0,0.0,0.0,0.0,0.0,0.0,0.0,0.0,0.0,0.0,0.0,0.0,0.0,0.0,0.0,0.0,0.0,0.0,0.0,0.0,0.0,0.0,0.0,0.0,0.7139,0.7139,0.7139,0.0,0.0,0.0,0.0,0.7139,0.7139,0.0,0.0,0.0,0.0,0.0,0.0,0.0,0.0,0.0,0.0,0.0,0.0,0.0,0.0,0.0,0.0,0.0,0.0,0.0,0.0,0.0,0.0,0.0,0.0,0.0,0.0,0.0,0.0,0.0,0.0,0.0,0.0,0.0,0.0,0.0,0.0,0.0,0.0,0.0,0.0,0.0,0.0,0.0,0.0,0.0,0.0,0.0,0.0,0.0,0.0,0.0,0.0,0.0,0.0,0.0,0.0,0.9951,0.9951,0.9951,1.0038,1.0381,1.0549,1.0549,1.0997,1.1176,0.0,0.0,0.0,0.0,0.0,0.0,0.0,0.0,0.0,0.0,0.0,0.0,0.0,0.0,0.0,0.0,0.0,0.0,0.0,0.0,0.0,0.0,0.0,0.0,0.0,0.0,0.0,0.0,0.0,0.0,0.0,0.0,0.0,0.0,0.0,0.0,0.0,0.0,0.0,0.0,0.0,0.7139,0.7139,0.7139,0.7139,0.0,0.0,0.7139,0.7139,0.7139,0.0,0.0,0.0,0.0,0.0,0.0,0.0,0.0,0.0,0.0,0.0,0.0,0.0,0.0,0.0,0.0,0.0,0.0,0.0,0.0,0.0,0.0,0.0,0.0,0.0,0.0,0.0,0.0,0.0,0.0,0.0,0.0,0.0,0.0,0.0,0.0,0.0,0.0,0.0,0.0,0.0,0.0,0.0,0.0,0.0,0.0,0.0,0.0,0.0,0.0,0.0,0.0,0.0,0.0,0.0,1.0294,1.0376,1.0381,1.0467,1.0738,1.0906,1.0997,1.0992,1.117,1.1267,0.0,0.0,0.0,0.0,0.0,0.0,0.0,0.0,0.0,0.0,0.0,0.0,0.0,0.0,0.0,0.0,0.0,0.0,0.0,0.0,0.0,0.0,0.0,0.0,0.0,0.0,0.0,0.0,0.0,0.0,0.0,0.0,0.0,0.0,0.0,0.0,0.0,0.0,0.0,0.0,0.0,0.0,0.7323,0.7231,0.0,0.0,0.0,0.7538,0.7635,0.0,0.0,0.0,0.0,0.0,0.0,0.0,0.0,0.0,0.0,0.0,0.0,0.0,0.0,0.0,0.0,0.0,0.0,0.0,0.0,0.0,0.0,0.0,0.0,0.0,0.0,0.0,0.0,0.0,0.0,0.0,0.0,0.0,0.0,0.0,0.0,0.0,0.0,0.0,0.0,0.0,0.0,0.0,0.0,0.0,0.0,0.0,0.0,0.0,0.0,0.0,0.0,0.0,0.0,0.0,0.0,0.0,1.0814,1.0814,1.0906,1.1267,1.1267,1.1267,1.1267,1.1267,0.0,0.0,0.0,0.0,0.0,0.0,0.0,0.0,0.0,0.0,0.0,0.0,0.0,0.0,0.0,0.0,0.0,0.0,0.0,0.0,0.0,0.0,0.0,0.0,0.0,0.0,0.0,0.8572,0.0,0.0,0.0,0.0,0.0,0.0,0.0,0.0,0.0,0.0,0.0,0.0,0.0,0.0,0.7378,0.7652,0.7503,0.761,0.0,0.0,0.7975,0.807,0.8173,0.825,0.0,0.0,0.0,0.0,0.0,0.0,0.0,0.0,0.0,0.0,0.0,0.0,0.0,0.0,0.0,0.0,0.0,0.0,0.0,0.0,0.0,0.0,0.0,0.0,0.0,0.0,0.0,0.0,0.0,0.0,0.0,0.0,0.0,0.0,0.0,0.0,0.0,0.0,0.0,0.0,0.0,0.0,0.0,0.0,0.0,0.0,0.0,0.0,0.0,0.0,0.0,0.0,0.0,0.0,1.1262,1.1262,1.1262,1.1267,1.1267,1.1267,1.1267,1.1267,1.1267,1.1273,0.0,0.0,0.0,0.0,0.0,0.0,0.0,0.0,0.0,0.0,0.0,0.0,0.0,0.0,0.0,0.0,0.0,0.0,0.0,0.0,0.0,0.0,0.0,0.0,0.0,0.0,0.0,0.0,0.0,0.0,0.0,0.0,0.0,0.0,0.0,0.0,0.0,0.0,0.0,0.0,0.0,0.7807,0.7996,0.8214,0.8307,0.0,0.8318,0.8236,0.8049,0.8059,0.7969,0.7695,0.0,0.0,0.0,0.0,0.0,0.0,0.0,0.0,0.0,0.0,0.0,0.0,0.0,0.0,0.0,0.0,0.0,0.0,0.0,0.0,0.0,0.0,0.0,0.0,0.0,0.0,0.0,0.0,0.0,0.0,0.0,0.0,0.0,0.0,0.0,0.0,0.0,0.0,0.0,0.0,0.0,0.0,0.0,0.0,0.0,0.0,0.0,0.0,0.0,0.0,0.0,0.0,0.0,1.1337,1.1564,1.1569,1.1639,1.1774,1.1785,1.1779,1.1785,1.1785,1.1779,0.0,0.0,0.0,0.0,0.0,0.0,0.0,0.0,0.0,0.0,0.0,0.0,0.0,0.0,0.0,0.0,0.0,0.0,0.0,0.0,0.0,0.0,0.0,0.0,0.0,0.0,0.0,0.0,0.848,0.8476,0.8568,0.0,0.0,0.0,0.0,0.0,0.0,0.0,0.0,0.0,0.0,0.8247,0.8432,0.8393,0.0,0.0,0.8808,0.8775,0.8874,0.8775,0.8646,0.8351,0.816,0.0,0.0,0.0,0.0,0.0,0.0,0.0,0.0,0.0,0.0,0.0,0.0,0.0,0.0,0.0,0.0,0.0,0.0,0.0,0.0,0.0,0.0,0.0,0.0,0.0,0.0,0.0,0.0,0.0,0.0,0.0,0.0,0.0,0.0,0.0,0.0,0.0,0.0,0.0,0.0,0.0,0.0,0.0,0.0,0.0,0.0,0.0,0.0,0.0,0.0,0.0,0.0,1.1639,1.1801,1.1806,1.1887,1.2043,1.2043,1.2043,1.2043,1.2043,1.2043,0.0,0.0,0.0,0.0,0.0,0.0,0.0,0.0,0.0,0.0,0.0,0.0,0.0,0.0,0.0,0.0,0.0,0.0,0.0,0.0,0.0,0.0,0.0,0.0,0.0,0.0,0.0,0.0,0.8572,0.8589,0.8637,0.0,0.0,0.0,0.0,0.0,0.0,0.0,0.0,0.0,0.0,0.8698,0.8883,0.8831,0.8874,0.9068,0.9115,0.9221,0.9319,0.9229,0.9107,0.8899,0.0,0.0,0.0,0.0,0.0,0.0,0.0,0.0,0.0,0.0,0.0,0.0,0.0,0.0,0.0,0.0,0.0,0.0,0.0,0.0,0.0,0.0,0.0,0.0,0.0,0.0,0.0,0.0,0.0,0.0,0.9951,0.0,0.0,0.0,0.0,0.0,0.0,0.0,0.0,0.0,0.0,0.0,0.0,0.0,0.0,0.0,0.0,0.0,0.0,0.0,0.0,0.0,0.0,1.2124,1.2135,1.2043,1.214,1.2151,1.2048,1.2151,1.2059,1.2145,1.2145,1.2059,0.0,0.0,0.0,0.0,0.0,0.0,0.0,0.0,0.0,0.0,0.0,0.0,0.0,0.0,0.0,0.0,0.0,0.0,0.0,0.0,0.0,0.0,0.0,0.0,0.0,0.0,0.8576,0.8572,0.8637,0.0,0.0,0.0,0.0,0.0,0.0,0.0,0.0,0.0,0.0,0.8855,0.9064,0.9352,0.9502,0.9517,0.9221,0.9361,0.9368,0.9165,0.9173,0.9071,0.0,0.0,0.0,0.0,0.0,0.0,0.0,0.0,0.0,0.0,0.0,0.0,0.0,0.0,0.0,0.0,0.0,0.0,0.0,0.0,0.0,0.0,0.0,0.0,0.0,0.0,0.0,1.0038,1.0038,0.0,0.0,0.0,0.0,0.0,0.0,0.0,0.0,0.0,0.0,0.0,1.1273,1.1515,0.0,0.0,0.0,0.0,0.0,0.0,0.0,0.0,0.0,0.0,0.0,0.0,1.2129,1.2285,1.2296,1.2366,1.2517,1.2522,1.2522,1.2522,1.2617,1.2617,1.2522,0.0,0.0,0.0,0.0,0.0,0.0,0.0,0.0,0.0,0.0,0.0,0.0,0.0,0.0,0.0,0.0,0.0,0.0,0.0,0.0,0.0,0.0,0.0,0.0,0.0,0.8613,0.0,0.0,0.0,0.0,0.0,0.0,0.0,0.0,0.0,0.0,0.0,0.8977,0.8886,0.9323,0.9569,0.9555,0.9791,0.9941,0.0,0.0,0.0,0.0,0.0,0.0,0.0,0.0,0.0,0.0,0.0,0.0,0.0,0.0,0.8889,0.8571,0.8528,0.8528,0.8528,0.0,0.0,0.0,0.0,0.0,0.0,0.0,0.0,0.0,0.0,0.0,0.0,0.0,0.0,1.0477,0.0,1.0472,0.0,0.0,0.0,0.0,0.0,0.0,0.0,0.0,1.1553,1.1591,1.1596,1.1747,1.1822,0.0,1.1973,1.1892,0.0,0.0,0.0,0.0,0.0,0.0,0.0,0.0,1.2371,1.2533,1.2533,1.2608,1.2754,1.2759,1.2759,1.2759,1.2759,1.2759,1.2759,1.2619,1.2538,0.0,0.0,0.0,0.0,0.0,0.0,0.0,0.0,0.0,0.0,0.0,0.0,0.0,0.0,0.0,0.0,0.0,0.0,0.0,0.0,0.0,0.0,0.0,0.8796,0.0,0.0,0.0,0.0,0.0,0.0,0.0,0.0,0.0,0.9009,0.924,0.9474,0.9339,0.9638,0.9868,0.9819,0.0,0.0,0.0,0.0,0.0,0.0,0.0,0.9941,0.9941,0.9789,0.9646,0.9541,0.9646,0.9646,0.9541,0.0,0.0,0.9139,0.9,0.9,0.9,0.8206,0.7566,0.7554,0.6793,0.6055,0.0,0.0,0.0,0.0,0.0,0.0,0.0,0.0,1.1294,1.13,0.0,1.1305,0.0,0.0,0.0,0.0,0.0,1.1612,0.0,0.0,1.1935,1.2043,1.2129,1.214,1.2059,1.2145,1.2167,1.2173,1.2162,1.2162,0.0,0.0,0.0,0.0,0.0,0.0,1.2775,1.2775,1.2786,1.2791,1.2797,1.2797,1.2791,1.2797,1.2791,1.2797,1.2786,1.278,1.2775,1.2775,1.2759,0.0,0.0,0.0,0.0,0.0,0.0,0.0,0.0,0.0,0.0,0.0,0.0,0.0,0.0,0.0,0.0,0.0,0.0,0.0,0.0,0.9104,0.0,0.0,0.0,0.0,0.0,0.0,0.0,0.0,0.0,0.0,0.9417,0.9535,0.9701,0.9868,0.0,0.0,0.0,0.0,1.0076,0.9859,0.9894,1.0,0.9996,0.9996,1.0111,1.0333,0.0,0.0,0.9871,1.008,1.0088,0.9871,0.9987,1.0076,0.9556,0.9433,0.9421,0.9421,0.9086,0.8891,0.8895,0.8546,0.834,1.4242,0.0,0.0,0.0,0.0,1.2114,1.1844,1.1849,1.1849,1.1849,1.1844,1.1849,0.0,0.0,0.0,0.0,0.0,0.0,1.1946,1.2042,1.2021,1.2043,1.2145,1.2226,1.2312,1.2312,1.2479,1.256,1.256,1.2554,1.2479,1.2318,0.0,0.0,0.0,0.0,1.3007,1.3012,1.3184,1.3276,1.3276,1.3276,1.327,1.3276,1.327,1.3276,1.3276,1.3104,1.3007,1.3001,1.285,0.0,0.0,0.0,0.0,0.0,0.0,0.0,0.0,0.0,0.0,0.0,0.0,0.0,0.0,0.0,0.0,0.0,0.0,0.0,0.9092,0.9206,0.9279,0.0,0.0,0.0,0.0,0.0,0.0,0.0,0.0,0.0,0.9937,0.986,0.988,0.0,0.0,1.0245,1.0172,1.0379,1.0497,1.0265,1.0393,0.0,1.0506,1.0506,1.0506,1.0619,1.0574,1.0542,1.0434,1.0542,1.0538,1.043,1.0538,1.0542,1.0313,1.0118,0.9971,0.9955,0.9743,0.9533,0.9533,0.9328,0.9122,1.5923,1.5342,1.4113,1.3664,1.3574,1.2854,1.2495,1.25,1.2232,1.2043,1.2043,1.2043,1.2043,1.2043,1.2043,0.0,0.0,0.0,1.2188,1.2199,1.2291,1.2334,1.2339,1.2484,1.2554,1.256,1.2786,1.2899,1.2899,1.3001,1.2974,1.284,0.0,0.0,1.305,1.3184,1.3249,1.326,1.3405,1.3475,1.3475,1.3475,1.3475,1.3475,1.3475,1.3475,1.3475,1.3335,1.3254,1.3254,1.312,1.3044,0.0,0.0,0.0,0.0,0.0,0.0,0.0,0.0,0.0,0.0,0.0,0.9096,0.9096,0.0,0.0,0.0,0.9263,0.9307,0.9307,0.9401,0.0,0.0,0.0,0.0,0.0,0.0,0.0,0.9851,1.003,1.0193,1.0257,1.0176,1.0144,1.0253,1.0367,1.042,1.0379,0.0,1.0655,1.055,1.0623,1.0692,1.0692,1.0692,1.0692,1.0692,1.0692,1.0692,1.0692,1.0692,1.0692,1.0692,1.0692,1.0692,1.0692,1.0513,1.0371,1.0375,1.0162,1.0056,0.9949,0.9735,0.9522,1.7406,1.7261,1.5382,1.4585,1.4359,1.3641,1.3276,1.3185,1.247,1.2102,1.2194,1.2194,1.2194,1.2108,1.2102,0.0,1.221,1.2339,1.2457,1.2479,1.2694,1.2802,1.2818,1.2824,1.2818,1.2829,1.3034,1.3136,1.3147,1.3362,1.3486,1.3502,1.3276,1.327,1.3464,1.3497,1.3507,1.3507,1.3529,1.3534,1.354,1.3534,1.3534,1.3545,1.3534,1.354,1.354,1.3513,1.3502,1.3502,1.3491,1.3475,1.3475,0.0,0.0,0.0,0.0,0.0,0.0,0.0,0.0,0.0,0.0,0.0,0.0,0.0,0.0,0.9364,0.9543,0.0,0.9669,0.9669,0.0,0.0,0.0,0.9973,1.014,1.0172,1.0184,1.018,0.0,0.0,1.0432,1.0456,1.0461,1.0477,1.0465,1.0517,1.0688,1.0716,1.0716,1.0741,1.0741,1.0741,1.0769,1.0765,1.0769,1.0769,1.0733,1.0753,1.0757,1.0753,1.0741,1.0757,1.0741,1.0741,1.0737,1.0741,1.0733,1.0733,1.0484,1.0355,1.0339,1.012,0.9896,1.8072,1.805,1.7509,1.6784,1.5605,1.4282,1.372,1.372,1.2969,1.2592,1.2592,1.2592,1.2592,1.2592,1.2592,1.2592,1.2597,1.2651,1.2775,1.2942,1.2996,1.312,1.3308,1.3308,1.3308,1.3313,1.3362,1.3389,1.3394,1.3448,1.3566,1.3728,1.368,1.3593,1.3491,1.3653,1.3739,1.3733,1.3927,1.4024,1.4024,1.4024,1.4024,1.4024,1.4024,1.4024,1.4019,1.3841,1.3739,1.3733,1.3572,1.3475,1.3475,1.3475,0.0,0.0,0.0,0.0,0.0,0.0,0.0,0.0,0.0,0.9888,0.9502,0.0,0.9518,0.0,0.9721,0.9884,1.0022,1.0034,0.0,0.0,1.0095,1.0115,1.0156,1.0286,1.0371,1.0367,1.0485,1.0582,1.0627,1.0631,1.0684,1.0818,1.072,1.0696,1.0875,1.0903,1.0948,1.1062,1.1082,1.1098,1.1086,1.1094,1.109,1.1098,1.109,1.1094,1.1098,1.1098,1.1098,1.1094,1.1098,1.1094,1.109,1.1094,1.1094,1.1078,1.0775,1.0582,1.0582,1.048,1.0366,1.8299,1.8299,1.8299,1.7891,1.6987,1.5908,1.542,1.5322,1.455,1.4057,1.3661,1.3275,1.3077,1.3082,1.3082,1.3077,1.3082,1.3082,1.3152,1.3265,1.327,1.3346,1.3475,1.3475,1.3475,1.348,1.3583,1.3631,1.3636,1.3744,1.3916,1.4132,1.4137,1.4126,1.4105,1.4029,1.3992,1.3992,1.4121,1.4196,1.4196,1.4196,1.4245,1.4342,1.425,1.4239,1.4342,1.4116,1.3986,1.3986,1.3868,1.3798,1.3798,1.3798,1.375,0.0,0.0,0.0,0.0,0.0,0.0,0.0,0.0,0.0,0.0,0.0,0.9864,0.9868,0.9953,1.005,1.0152,1.016,1.0193,1.0278,1.0282,1.0314,1.0387,1.0485,1.055,1.055,1.0704,1.0814,1.0818,1.0879,1.0964,1.1066,1.0992,1.0964,1.1057,1.1082,1.1118,1.1208,1.122,1.122,1.122,1.122,1.122,1.122,1.122,1.122,1.122,1.122,1.122,1.122,1.122,1.1252,1.1325,1.1342,1.1366,1.1423,1.1317,1.1126,1.0964,1.0928,1.0815,1.8547,1.8555,1.8555,1.8555,1.8447,1.7837,1.7452,1.71,1.6186,1.5374,1.4468,1.3777,1.3475,1.3475,1.3475,1.3475,1.3475,1.3475,1.3497,1.3523,1.3523,1.354,1.3572,1.3599,1.3615,1.3626,1.3841,1.3959,1.3965,1.4175,1.4385,1.4573,1.4579,1.4681,1.4859,1.4482,1.4283,1.4283,1.4283,1.4283,1.4283,1.4283,1.4379,1.4557,1.4385,1.4358,1.4525,1.4342,1.4223,1.4196,1.4191,1.4196,1.4196,1.4196,1.4099,0.0,1.3445,0.0,0.0,0.0,0.0,0.0,0.0,0.0,0.0,1.0369,1.0277,1.0197,1.0197,1.0205,1.0229,1.0229,1.0294,1.0444,1.0469,1.0526,1.0672,1.0712,1.0729,1.0729,1.0887,1.1001,1.1005,1.1135,1.122,1.1248,1.1252,1.1265,1.1293,1.1277,1.1269,1.1285,1.1293,1.1338,1.133,1.1313,1.1313,1.1305,1.1321,1.1293,1.1313,1.1313,1.1305,1.1305,1.1321,1.1362,1.1512,1.1537,1.1589,1.1715,1.1723,1.1622,1.1374,1.1293,1.1285,1.9872,1.9872,1.9864,1.9872,1.9872,1.9657,1.8743,1.71,1.5576,1.4474,1.3674,1.3577,1.3475,1.3475,1.3475,1.3475,1.3475,1.3475,1.3577,1.375,1.3755,1.3863,1.4062,1.425,1.4336,1.4352,1.4568,1.4681,1.4681,1.4729,1.4772,1.4815,1.4821,1.4837,1.488,0.0,0.0,0.0,1.4756,1.4756,1.4756,1.4756,1.4772,1.4815,1.4778,0.0,1.4541,1.4492,1.4379,1.4207,1.4196,0.0,0.0,0.0,0.0,0.0,0.0,0.0,0.0,0.0,0.0,0.0,1.2974,1.2501,1.1648,1.1092,1.0745,1.0367,1.0383,1.044,1.0578,1.059,1.0607,1.0635,1.0643,1.0655,1.0696,1.0826,1.0919,1.0919,1.107,1.1175,1.1179,1.1204,1.1285,1.1423,1.1447,1.1512,1.1642,1.1533,1.1508,1.1638,1.1642,1.1663,1.1671,1.1658,1.1638,1.1675,1.1675,1.1663,1.165,1.1658,1.1663,1.1654,1.1671,1.1671,1.1719,1.1723,1.1736,1.1772,1.1784,1.1756,1.1683,1.1671,1.1626,2.0237,0.0,2.0237,2.0237,0.0,2.0237,1.9642,1.8617,1.761,1.6633,1.5683,1.4856,1.4444,1.4449,1.4155,1.4003,1.4003,1.4121,1.4234,1.4342,1.4347,1.4412,1.4541,1.4654,1.4708,1.4713,1.4832,1.4885,1.4885,1.4885,1.4945,1.5068,1.5063,1.5122,1.5235,1.5241,1.5117,1.4885,1.4885,1.4885,1.4885,1.4885,1.4939,1.5052,1.4945,0.0,0.0,0.0,0.0,0.0,0.0,0.0,0.0,0.0,0.0,1.4363,1.4256,1.4196,1.4196,1.4196,1.4083,1.3753,1.3753,1.3332,1.2245,1.1593,1.1206,1.0983,1.0779,1.0595,1.068,1.0692,1.0729,1.0814,1.0826,1.0858,1.0944,1.1037,1.1094,1.111,1.1248,1.1358,1.1358,1.1447,1.1524,1.1618,1.1638,1.1667,1.1744,1.1699,1.1683,1.1764,1.1776,1.1776,1.1776,1.1776,1.1776,1.1776,1.1776,1.1776,1.1776,1.1776,1.1776,1.1776,1.1776,1.1797,1.1882,1.1902,1.1931,1.2012,1.204,1.2036,1.2028,1.1902,1.1752,2.0406,2.0413,2.0406,2.0406,2.0406,2.0406,2.0369,2.0303,0.0,0.0,0.0,1.6448,1.5917,1.5827,1.5268,1.5038,1.5049,1.5244,1.5445,1.5445,1.5445,1.5445,1.5332,1.5484,1.5399,1.5393,1.5432,1.5574,1.5568,1.5574,1.5565,1.5748,1.5771,1.5865,1.6048,1.6065,1.5865,1.5254,1.5118,1.5009,1.5009,1.5009,1.5106,1.5305,1.5117,1.509,1.5241,1.5052,1.4929,1.4885,1.4885,1.4885,1.488,1.4702,1.46,1.4589,1.4422,1.4315,1.432,1.4315,1.4315,1.4315,1.4315,1.3837,1.2668,1.2146,1.195,1.1841,1.1427,1.1117,1.1007,1.1011,1.0958,1.1001,1.1017,1.107,1.12,1.1256,1.1269,1.1289,1.1435,1.1545,1.1553,1.1671,1.1776,1.1772,1.1764,1.1776,1.1776,1.1768,1.176,1.1772,1.1776,1.1776,1.1776,1.1776,1.1776,1.1776,1.1776,1.1776,1.1776,1.1776,1.1776,1.1776,1.1776,1.1829,1.1947,1.1959,1.2036,1.2182,1.2215,1.2215,1.219,1.1983,1.1797,2.1072,2.1072,2.1072,2.1079,2.1072,2.1072,2.0911,2.0521,1.9527,1.859,1.7676,1.7455,1.7344,1.7344,1.7277,1.7296,1.7296,1.7334,1.7353,1.7353,1.7346,1.7346,1.7365,1.7472,1.7578,1.7597,1.7809,1.7927,1.7921,1.7921,1.7946,1.7861,1.7983,1.7886,1.804,1.804,1.7541,1.6768,1.5959,1.5499,1.5499,1.5499,1.551,1.5548,1.5515,1.5418,1.5257,1.5219,1.5101,1.4902,1.4885,1.4885,1.4885,1.4853,1.4837,1.4832,1.4805,1.4783,1.4783,1.4789,1.4789,1.4789,1.4789,1.4282,1.3252,1.3267,1.315,1.271,1.2632,1.252,1.2069,1.1938,1.1714,1.1294,1.1187,1.12,1.1244,1.137,1.1459,1.1464,1.1626,1.1732,1.1723,1.1756,1.1776,1.1776,1.1776,1.1776,1.1776,1.1776,1.1776,1.1776,1.1776,1.1776,1.1776,1.1776,1.1776,1.1776,1.1776,1.1776,1.1776,1.1776,1.1776,1.1776,1.1776,1.1788,1.1821,1.1809,1.1845,1.189,1.1894,1.1882,1.1894,1.1821,1.1817,2.1211,2.1211,2.1211,2.1211,2.1211,2.1211,2.1123,2.0976,2.0365,1.9766,1.903,1.8574,1.8457,1.8366,1.8058,1.7904,1.7911,1.8058,1.8128,1.8128,1.8128,1.8135,1.8141,1.8141,1.8199,1.8205,1.8326,1.8389,1.8389,1.8389,1.8156,1.7695,1.7109,1.6879,1.6879,1.6879,1.6649,1.6295,1.6295,1.6065,1.5601,1.5601,1.5601,1.5601,1.5601,1.5553,1.5445,1.544,1.5386,1.5273,1.5273,1.5273,1.5268,1.5149,1.5079,1.5079,1.4955,1.4885,1.4885,1.4885,1.4885,1.4885,1.4885,1.4687,1.4246,1.3989,1.3703,1.3473,1.3013,1.2492,1.2259,1.1914,1.1607,1.1362,1.1374,1.1415,1.1512,1.1589,1.165,1.1654,1.1723,1.1776,1.1776,1.1776,1.1776,1.1776,1.1776,1.1776,1.1776,1.1776,1.1776,1.1776,1.1776,1.1776,1.1776,1.1776,1.1776,1.1776,1.1776,1.1776,1.1776,1.1776,1.1776,1.1776,1.1776,1.1776,1.1776,1.1776,1.1776,1.1776,1.1776,1.1776,1.1776,1.1776,1.1805,2.1211,2.1211,2.1211,2.1211,2.1211,2.1211,2.1211,2.1211,2.1203,2.0925,2.0383,1.9778,1.9549,1.9466,1.9011,1.8764,1.8797,1.8873,1.9087,1.8978,1.8978,1.9094,1.9094,1.9094,1.9087,1.9094,1.8971,1.8978,1.8978,1.9087,1.8512,1.7701,1.6885,1.6419,1.6301,1.6177,1.6183,1.5946,1.6644,1.6526,1.5596,1.5601,1.5601,1.5601,1.5601,1.5601,1.5601,1.5601,1.5601,1.5601,1.5601,1.5601,1.5596,1.5429,1.5327,1.5311,1.5149,1.5042,1.5047,1.5042,1.5042,1.5047,1.5042,1.5047,1.5047,1.4693,1.4323,1.4173,1.3524,1.2984,1.2646,1.2168,1.1753,1.1663,1.1561,1.161,1.1748,1.1776,1.1776,1.1776,1.1776,1.1776,1.1776,1.1776,1.1776,1.1776,1.1776,1.1776,1.1776,1.1776,1.1776,1.1776,1.1776,1.1776,1.1776,1.1776,1.1776,1.1776,1.1776,1.1776,1.1776,1.1776,1.1776,1.1776,1.1776,1.1776,1.1776,1.1776,1.1776,1.1776,1.1776,1.1776,1.1776,1.1776,1.178,2.1211,2.1211,2.1211,2.1211,2.1211,2.1211,2.1211,2.1211,2.1211,2.1189,2.1086,2.1001,2.0987,2.1001,2.0902,2.0795,2.0795,2.096,2.0852,2.0852,2.0967,2.0974,2.0859,2.0859,2.0974,2.0852,2.0852,2.0737,2.0737,2.0859,2.0392,1.9693,1.9461,1.8874,1.8163,1.8046,1.7695,1.6879,1.6991,1.6532,1.572,1.5601,1.5601,1.5601,1.5601,1.5601,1.5601,1.5601,1.5601,1.5601,1.5601,1.5601,1.5596,1.558,1.5569,1.5558,1.5537,1.5531,1.5526,1.5537,1.5515,1.5537,1.551,1.5505,1.551,1.5521,1.5322,1.5062,1.5162,1.4543,1.3751,1.337,1.2888,1.1956,1.1852,1.1764,1.1772,1.1776,1.1776,1.1776,1.1776,1.1776,1.1776,1.1776,1.1776,1.1776,1.1776,1.1776,1.1776,1.1776,1.1776,1.1776,1.1776,1.1776,1.1776,1.1776,1.1776,1.1776,1.1776,1.1776,1.1776,1.1776,1.1776,1.1776,1.1776,1.1776,1.1776,1.1776,1.1776,1.1776,1.1776,1.1776,1.1776,1.1776,1.1776,2.1211,2.1211,2.1211,2.1211,2.1211,2.1211,2.1211,2.1211,2.1211,2.1211,2.1211,2.1211,2.1211,2.1211,2.1211,2.1211,2.1211,2.1211,2.1211,2.1211,2.1211,2.1211,2.1211,2.1211,2.1211,2.1211,2.1211,2.1211,2.1089,2.063,2.0162,1.9815,1.9223,1.8745,1.8383,1.7812,1.7343,1.6991,1.6414,1.5946,1.5601,1.5601,1.5601,1.5601,1.5601,1.5601,1.5601,1.5601,1.5601,1.5601,1.5601,1.5601,1.5601,1.5601,1.5601,1.5601,1.5601,1.5601,1.5601,1.5601,1.5601,1.5601,1.5601,1.5601,1.5601,1.5601,1.5553,1.5494,1.5182,1.4759,1.4277,1.3923,1.3329,1.2487,1.2367,1.2251,1.1897,1.1776,1.1776,1.1776,1.1776,1.1776,1.1776,1.1776,1.1776,1.1776,1.1776,1.1784,1.178,1.1776,1.1776,1.1776,1.1776,1.1776,1.1776,1.1776,1.1776,1.1776,1.1776,1.1776,1.1784,1.1776,1.1776,1.1784,1.1801,1.1801,1.1776,1.1776,1.1776,1.1792,1.178,1.1776,1.1776,1.1776,1.1809,2.1211,2.1211,2.1211,2.1211,2.1211,2.1211,2.1211,2.1211,2.1211,2.1211,2.1211,2.1211,2.1211,2.1211,2.1211,2.1211,2.1211,2.1211,2.1211,2.1211,2.1211,2.1211,2.1211,2.1211,2.1211,2.1211,2.1211,2.1211,2.1096,2.0515,2.0046,1.9693,1.91,1.8622,1.8389,1.7695,1.7343,1.7343,1.6414,1.5952,1.5952,1.5715,1.5601,1.5601,1.5601,1.5601,1.5601,1.5601,1.5601,1.5601,1.5601,1.5601,1.5601,1.5601,1.5601,1.5601,1.5601,1.5601,1.5601,1.5601,1.5601,1.5601,1.5601,1.5601,1.5601,1.5601,1.5601,1.5596,1.5116,1.4873,1.451,1.4157,1.3559,1.2835,1.2715,1.2483,1.1893,1.1776,1.1776,1.1776,1.1776,1.1776,1.1776,1.1776,1.1788,1.1845,1.1853,1.1878,1.191,1.1935,1.1935,1.1922,1.1926,1.1882,1.1805,1.1776,1.1776,1.1797,1.1805,1.1861,1.1857,1.1874,1.1926,1.202,1.1947,1.1935,1.1987,1.1959,1.1914,1.1918,1.1918,1.1918,1.1967,1.1931,1.1975,2.1211,2.1211,2.1211,2.1211,2.1211,2.1211,2.1211,2.1211,2.1211,2.1211,2.1211,2.1211,2.1211,2.1211,2.1211,2.1211,2.1211,2.1211,2.1211,2.1211,2.1211,2.1211,2.1211,2.1211,2.1211,2.1211,2.1211,2.1218,2.1225,2.1118,2.063,1.9836,1.9863,1.9366,1.8674,1.8447,1.8402,1.8336,1.7385,1.6891,1.6767,1.607,1.5601,1.5601,1.5601,1.5601,1.5601,1.5601,1.5601,1.5601,1.5601,1.5601,1.5601,1.5601,1.5601,1.5601,1.5601,1.5601,1.5601,1.5601,1.5601,1.5601,1.5601,1.5601,1.5601,1.5601,1.5601,1.5601,1.5477,1.5235,1.4748,1.4629,1.4038,1.3075,1.2719,1.2483,1.1893,1.2018,1.1776,1.1909,1.1938,1.1837,1.1805,1.1776,1.1882,1.1979,1.202,1.2069,1.219,1.2247,1.2239,1.2239,1.2223,1.2166,1.187,1.1857,1.1837,1.1861,1.1979,1.202,1.2081,1.2142,1.2207,1.2255,1.2211,1.2207,1.2259,1.2264,1.2231,1.2215,1.2199,1.2203,1.215,1.2239,1.2146,2.1211,2.1211,2.1211,2.1211,2.1211,2.1211,2.1211,2.1211,2.1211,2.1211,2.1211,2.1211,2.1211,2.1211,2.1211,2.1211,2.1211,2.1211,2.1211,2.1211,2.1211,2.1211,2.1211,2.1211,2.1211,2.1211,2.1211,2.132,2.154,2.1723,2.1707,2.1471,2.1353,2.1109,2.0739,2.0251,1.9887,1.9747,1.8288,1.7363,1.7226,1.6148,1.5601,1.5601,1.5601,1.5601,1.5601,1.5601,1.5601,1.5601,1.5601,1.5601,1.5601,1.5601,1.5601,1.5601,1.5601,1.5601,1.5601,1.5601,1.5601,1.5601,1.5601,1.5601,1.5601,1.5601,1.5601,1.5607,1.5607,1.5477,1.5353,1.5235,1.4873,1.4152,1.3918,1.3698,1.3209,1.2973,1.2897,1.266,1.2279,1.2113,1.2093,1.2113,1.2142,1.2194,1.2207,1.2243,1.2284,1.2308,1.2324,1.2308,1.2304,1.2268,1.2166,1.2121,1.2121,1.213,1.2182,1.2203,1.2247,1.2272,1.2324,1.2353,1.2361,1.2369,1.2377,1.2377,1.2373,1.2361,1.2357,1.2127,1.2304,1.1865,1.1517,2.1525,2.1525,2.1525,2.1518,2.1525,2.1525,2.1525,2.1518,2.1525,2.1525,2.1525,2.1525,2.1525,2.1525,2.1525,2.1525,2.1511,2.143,2.1423,2.1518,2.1525,2.1525,2.1525,2.1525,2.1525,2.1525,2.1525,2.165,2.1847,2.2074,2.2176,2.2176,2.2184,2.2184,2.2064,2.1555,2.1314,2.0898,1.9406,1.8468,1.7968,1.6868,1.6183,1.5828,1.5828,1.5747,1.5618,1.5601,1.5601,1.5601,1.5601,1.5601,1.5601,1.5601,1.5601,1.5601,1.5601,1.5601,1.5601,1.5601,1.5601,1.5601,1.5601,1.5601,1.5601,1.5666,1.5704,1.572,1.5795,1.5828,1.5828,1.5838,1.5555,1.4896,1.4801,1.4605,1.4004,1.3644,1.3346,1.2726,1.2461,1.2284,1.2304,1.23,1.2328,1.2373,1.2389,1.2402,1.2462,1.2475,1.2475,1.2479,1.2503,1.2507,1.2475,1.2471,1.2328,1.2308,1.2365,1.2385,1.2406,1.2426,1.2446,1.2462,1.2471,1.2475,1.2475,1.2475,1.2471,1.2462,1.2001,1.1793,1.149,1.0948,1.0732,2.2154,2.2132,2.2176,2.2118,2.2096,2.2089,2.2154,2.2111,2.2118,2.2081,2.2059,2.2125,2.2074,2.2125,2.2067,2.214,2.2096,2.1862,2.1862,2.2074,2.2103,2.2103,2.2096,2.2081,2.2074,2.2089,2.2162,2.2162,2.2191,2.225,2.2279,2.2228,2.2271,2.2308,2.222,2.2151,2.2115,2.1874,2.1101,2.0093,1.9235,1.8087,1.7205,1.6382,1.6258,1.6064,1.5661,1.5645,1.5661,1.5628,1.5623,1.5607,1.5607,1.5601,1.5601,1.5601,1.5601,1.5601,1.5618,1.5628,1.5645,1.5682,1.5645,1.5688,1.5725,1.5849,1.5951,1.5978,1.6124,1.6264,1.6258,1.6269,1.5942,1.5166,1.5243,1.5092,1.4495,1.3783,1.3174,1.2687,1.2476,1.232,1.232,1.2369,1.2438,1.2536,1.2568,1.2613,1.2718,1.2747,1.2804,1.28,1.2747,1.2702,1.2767,1.2804,1.2601,1.2454,1.2523,1.2572,1.2596,1.2617,1.2661,1.2678,1.2674,1.2674,1.267,1.267,1.2437,1.2315,1.1829,1.1155,1.0733,1.0313,0.9823,2.2184,2.2184,2.2184,2.2184,2.2184,2.2184,2.2184,2.2184,2.2184,2.2184,2.2184,2.2184,2.2184,2.2184,2.2184,2.2301,2.2469,2.2367,2.2286,2.2213,2.2198,2.2206,2.2198,2.2191,2.2184,2.222,2.2396,2.2491,2.2528,2.2703,2.282,2.282,2.2806,2.282,2.2791,2.282,2.2813,2.2668,2.1723,2.0508,1.9509,1.8471,1.728,1.6431,1.6312,1.6231,1.6102,1.6091,1.6011,1.5854,1.5838,1.5768,1.5645,1.5601,1.5601,1.5601,1.5601,1.5688,1.5817,1.5844,1.5914,1.6038,1.6081,1.6097,1.6091,1.6151,1.6199,1.6199,1.6274,1.6312,1.6334,1.6468,1.6322,1.5984,1.5897,1.596,1.5612,1.4818,1.4247,1.3897,1.3105,1.2657,1.2661,1.2661,1.2666,1.2714,1.2739,1.2779,1.2816,1.2836,1.2836,1.2836,1.2836,1.2836,1.2836,1.2836,1.2735,1.2621,1.2661,1.2694,1.2731,1.2759,1.2812,1.2704,1.2704,1.27,1.27,1.2437,1.2169,1.1901,1.1208,1.068,1.0167,0.9507,0.8845,2.2528,2.2528,2.2528,2.2528,2.2528,2.2528,2.2528,2.2528,2.2528,2.2528,2.2535,2.2528,2.2528,2.2528,2.2528,2.263,2.2791,2.2798,2.2703,2.255,2.2528,2.2528,2.2528,2.2528,2.2528,2.2557,2.2718,2.2806,2.2813,2.3003,2.3106,2.3106,2.3106,2.3098,2.3106,2.3106,2.3106,2.2952,2.1908,2.0815,1.9782,1.8632,1.7554,1.6697,1.6571,1.6571,1.6571,1.6571,1.642,1.6151,1.6086,1.6005,1.5881,1.5876,1.5865,1.5865,1.5876,1.5941,1.6064,1.6086,1.614,1.628,1.6312,1.6307,1.6323,1.6366,1.6441,1.6441,1.6533,1.6571,1.6597,1.6694,1.671,1.6597,1.6581,1.6444,1.6213,1.5813,1.5243,1.4632,1.3796,1.3346,1.3227,1.2836,1.2836,1.2836,1.2836,1.2836,1.2836,1.2836,1.2836,1.2836,1.2836,1.2836,1.2836,1.2836,1.2836,1.2804,1.2795,1.2795,1.2804,1.2804,1.2836,1.2568,1.2437,1.2029,1.1897,1.1369,1.0972,1.0704,1.0435,0.9637,0.8842,0.8179,0.7514,2.3098,2.3106,2.3098,2.3062,2.3054,2.3054,2.3032,2.3069,2.3062,2.304,2.3054,2.3018,2.3054,2.3076,2.3003,2.3025,2.3098,2.3062,2.3047,2.3025,2.3025,2.301,2.3003,2.2996,2.2988,2.3032,2.3062,2.3076,2.3054,2.3091,2.3106,2.3106,2.3106,2.3106,2.3106,2.3106,2.3106,2.2973,2.2208,2.1188,2.0176,1.9139,1.811,1.7087,1.6953,1.6947,1.6931,1.6926,1.6759,1.6398,1.6307,1.6264,1.6285,1.6312,1.6264,1.6247,1.6296,1.6296,1.6317,1.6334,1.6361,1.6414,1.6425,1.635,1.6441,1.6587,1.6678,1.6689,1.6834,1.6958,1.6953,1.6969,1.6964,1.699,1.692,1.6673,1.6219,1.6504,1.6229,1.5173,1.4403,1.3875,1.3748,1.3227,1.2836,1.2836,1.2836,1.2836,1.2836,1.2836,1.2836,1.2836,1.2836,1.2836,1.2836,1.2836,1.2836,1.2836,1.2836,1.2836,1.2836,1.2704,1.2437,1.2301,1.1901,1.1497,1.0965,1.0571,1.0041,0.9643,0.8975,0.8176,0.7646,0.7116,0.6851,2.3106,2.3106,2.3106,2.3106,2.3106,2.3106,2.3106,2.3106,2.3106,2.3106,2.3106,2.3106,2.3106,2.3106,2.3106,2.3106,2.3106,2.3106,2.3106,2.3106,2.3106,2.3106,2.3106,2.3106,2.3106,2.3106,2.3106,2.3106,2.3106,2.3106,2.3106,2.3106,2.3106,2.3106,2.3106,2.3106,2.3106,2.3106,2.2856,2.172,2.0329,1.982,1.8792,1.713,1.7001,1.7001,1.7001,1.7001,1.6877,1.6597,1.6393,1.6312,1.6339,1.6339,1.6355,1.6355,1.6339,1.6404,1.6538,1.6571,1.6646,1.6807,1.6775,1.6824,1.6824,1.6872,1.691,1.6926,1.698,1.7001,1.7001,1.7001,1.7001,1.7001,1.7001,1.6877,1.6753,1.6785,1.6676,1.5849,1.4665,1.4006,1.3744,1.3358,1.2836,1.2836,1.2836,1.2836,1.2836,1.2836,1.2836,1.2836,1.2836,1.2836,1.2836,1.2836,1.2836,1.2836,1.2836,1.2836,1.2704,1.2704,1.2169,1.1765,1.1101,1.0565,1.017,0.9779,0.9244,0.8446,0.8179,0.7646,0.7116,0.6587,0.6587,2.3106,2.3106,2.3106,2.3106,2.3106,2.3106,2.3106,2.3106,2.3106,2.3106,2.3106,2.3106,2.3106,2.3106,2.3106,2.3106,2.3106,2.3106,2.3106,2.3106,2.3106,2.3106,2.3106,2.3106,2.3106,2.3106,2.3106,2.3106,2.3106,2.3106,2.3106,2.3106,2.3106,2.3106,2.3106,2.3106,2.3106,2.2981,2.2348,2.1215,2.0208,1.9182,1.8285,1.713,1.7001,1.7001,1.7001,1.7001,1.6931,1.6802,1.6678,1.6603,1.6603,1.6603,1.6608,1.6608,1.6603,1.6673,1.677,1.6802,1.6867,1.6969,1.7001,1.7001,1.699,1.7001,1.7001,1.6996,1.7001,1.7001,1.7001,1.7001,1.7001,1.7001,1.7001,1.7001,1.7001,1.7028,1.6644,1.5979,1.5057,1.4141,1.4006,1.3227,1.2832,1.2836,1.2836,1.2836,1.2836,1.2836,1.2836,1.2836,1.2836,1.2836,1.2836,1.2836,1.27,1.27,1.2568,1.2568,1.2437,1.2305,1.1769,1.1101,1.0435,0.9769,0.9241,0.8715,0.7917,0.7383,0.7381,0.725,0.6719,0.6453,0.6453,2.3106,2.3106,2.3106,2.3106,2.3106,2.3106,2.3106,2.3106,2.3106,2.3106,2.3106,2.3106,2.3106,2.3106,2.3106,2.3106,2.3106,2.3106,2.3106,2.3106,2.3106,2.3106,2.3106,2.3106,2.3106,2.3106,2.3106,2.3106,2.3106,2.3106,2.3106,2.3106,2.3106,2.3106,2.3106,2.3106,2.3106,2.2731,2.1594,2.0583,1.9947,1.8542,1.7518,1.713,1.7001,1.7001,1.7001,1.7001,1.699,1.6996,1.7001,1.6958,1.6969,1.6985,1.698,1.6958,1.6931,1.6953,1.699,1.6969,1.6985,1.7001,1.7001,1.7001,1.7001,1.7001,1.7001,1.7001,1.7001,1.7001,1.7001,1.7001,1.7001,1.7001,1.7001,1.7001,1.7001,1.7001,1.6748,1.6099,1.5453,1.467,1.4015,1.3358,1.2836,1.2836,1.2836,1.2836,1.2836,1.2836,1.2836,1.2836,1.2836,1.2836,1.2836,1.2836,1.2568,1.2437,1.2301,1.2169,1.1769,1.1505,1.1104,1.0568,0.9504,0.8709,0.8046,0.7383,0.6853,0.6719,0.6851,0.6719,0.6453,0.6453,0.6453,2.3106,2.3106,2.3106,2.3106,2.3106,2.3106,2.3106,2.3106,2.3106,2.3106,2.3106,2.3106,2.3106,2.3106,2.3106,2.3106,2.3106,2.3106,2.3106,2.3106,2.3106,2.3106,2.3106,2.3106,2.3106,2.3106,2.3106,2.3106,2.3106,2.3106,2.3106,2.3106,2.3106,2.3106,2.3106,2.3106,2.3106,2.2856,2.1859,2.0716,1.982,1.8792,1.7641,1.713,1.7001,1.7001,1.7001,1.7001,1.7001,1.7001,1.7001,1.7001,1.7001,1.7001,1.7001,1.7001,1.7001,1.7001,1.7001,1.7001,1.7001,1.7001,1.7001,1.7001,1.7001,1.7001,1.7001,1.7001,1.7001,1.7001,1.7001,1.7001,1.7001,1.7001,1.7001,1.7001,1.7001,1.7001,1.6877,1.6488,1.5709,1.48,1.4665,1.349,1.3095,1.2836,1.2836,1.2836,1.2836,1.2836,1.2836,1.2836,1.2836,1.2836,1.2704,1.2568,1.2169,1.1901,1.1769,1.1233,1.0836,1.0571,1.017,0.9374,0.8443,0.7779,0.725,0.6985,0.6587,0.6587,0.6453,0.6453,0.6453,0.6453,0.6453,2.3106,2.3106,2.3106,2.3106,2.3106,2.3106,2.3106,2.3106,2.3106,2.3106,2.3106,2.3106,2.3106,2.3106,2.3106,2.3106,2.3106,2.3106,2.3106,2.3106,2.3106,2.3106,2.3106,2.3106,2.3106,2.3106,2.3106,2.3106,2.3106,2.3106,2.3106,2.3106,2.3106,2.3106,2.3106,2.3106,2.2856,2.2237,2.1475,2.0456,1.9304,1.8279,1.7641,1.713,1.7001,1.7001,1.7001,1.7001,1.7001,1.7001,1.7001,1.7001,1.7001,1.7001,1.7001,1.7001,1.7001,1.7001,1.7001,1.7001,1.7001,1.7001,1.7001,1.7001,1.7001,1.7001,1.7001,1.7001,1.7001,1.7001,1.7001,1.7001,1.7001,1.7001,1.7001,1.7001,1.7001,1.7001,1.6877,1.6488,1.5844,1.5323,1.4665,1.3879,1.3486,1.3354,1.2832,1.2836,1.2836,1.2836,1.2836,1.2836,1.2836,1.2704,1.2704,1.2301,1.1769,1.1237,1.0836,1.0038,0.9241,0.9241,0.9241,0.8443,0.7648,0.725,0.6719,0.6587,0.6453,0.6453,0.6453,0.6453,0.6453,0.6453,0.6453,2.3106,2.3106,2.3106,2.3106,2.3106,2.3106,2.3106,2.3106,2.3106,2.3106,2.3106,2.3106,2.3106,2.3106,2.3106,2.3106,2.3106,2.3106,2.3106,2.3106,2.3106,2.3106,2.3106,2.3106,2.3106,2.3106,2.3106,2.3106,2.3106,2.3106,2.3106,2.3106,2.3106,2.2981,2.2856,2.2856,2.2355,2.1355,2.0329,1.9565,1.8664,1.7641,1.713,1.7001,1.7001,1.7001,1.7001,1.7001,1.7001,1.7001,1.7001,1.7001,1.7001,1.7001,1.7001,1.7001,1.7001,1.7001,1.7001,1.7001,1.7001,1.7001,1.7001,1.7001,1.7001,1.7001,1.7001,1.7001,1.7001,1.7001,1.7001,1.7001,1.7001,1.7001,1.7001,1.7001,1.7001,1.7001,1.6748,1.6364,1.6104,1.5578,1.5187,1.4534,1.4137,1.3875,1.3354,1.2832,1.2836,1.2836,1.2836,1.2836,1.2836,1.2301,1.2169,1.1372,1.0836,1.0303,0.9772,0.8975,0.8043,0.7912,0.7915,0.7781,0.7118,0.6719,0.6587,0.6587,0.6453,0.6453,0.6453,0.6453,0.6453,0.6453,0.6453,2.3106,2.3106,2.3106,2.3106,2.3106,2.3106,2.3106,2.3106,2.3106,2.3106,2.3106,2.3106,2.3106,2.3106,2.3106,2.3106,2.3106,2.3106,2.3106,2.3106,2.3106,2.3106,2.3106,2.3106,2.3106,2.3106,2.3106,2.3106,2.3106,2.3106,2.3106,2.3106,2.2981,2.2738,2.2111,2.1734,2.1348,2.0335,1.9431,1.8792,1.8156,1.7518,1.7001,1.7001,1.7001,1.7001,1.7001,1.7001,1.7001,1.7001,1.7001,1.7001,1.7001,1.7001,1.7001,1.7001,1.7001,1.7001,1.7001,1.7001,1.7001,1.7001,1.7001,1.7001,1.7001,1.7001,1.7001,1.7001,1.7001,1.7001,1.7001,1.7001,1.7001,1.7001,1.7001,1.7001,1.7001,1.7007,1.7007,1.6748,1.6359,1.5969,1.5709,1.5187,1.4796,1.4399,1.3879,1.3354,1.3095,1.2964,1.2836,1.2836,1.2836,1.2165,1.1501,1.0439,0.9643,0.8975,0.8446,0.8048,0.725,0.6851,0.6719,0.6853,0.6853,0.6587,0.6453,0.6453,0.6453,0.6453,0.6453,0.6453,0.6453,0.6453,0.6453,2.3106,2.3106,2.3106,2.3106,2.3106,2.3106,2.3106,2.3106,2.3106,2.3106,2.3106,2.3106,2.3106,2.3106,2.3106,2.3106,2.3106,2.3106,2.3106,2.3106,2.3106,2.3106,2.3106,2.3106,2.3106,2.3106,2.3106,2.3106,2.3106,2.3106,2.3106,2.2981,2.2606,2.2111,2.1607,2.1096,2.0329,1.931,1.8792,1.815,1.777,1.713,1.7001,1.7001,1.7001,1.7001,1.7001,1.7001,1.7001,1.7001,1.7001,1.7001,1.7001,1.7001,1.7001,1.7001,1.7001,1.7001,1.7001,1.7001,1.7001,1.7001,1.7001,1.7001,1.7001,1.7001,1.7001,1.7001,1.7001,1.7001,1.7001,1.7001,1.7001,1.7001,1.7001,1.7001,1.7001,1.7001,1.7001,1.7001,1.6742,1.6488,1.6488,1.5969,1.5448,1.4926,1.4399,1.3879,1.3354,1.2964,1.27,1.2301,1.2037,1.1237,1.0435,0.951,0.8715,0.8046,0.7514,0.7118,0.6853,0.6587,0.6587,0.6587,0.6453,0.6453,0.6453,0.6453,0.6453,0.6453,0.6453,0.6453,0.6453,0.6453,0.6453,2.3106,2.3106,2.3106,2.3106,2.3106,2.3106,2.3106,2.3106,2.3106,2.3106,2.3106,2.3106,2.3106,2.3106,2.3106,2.3106,2.3106,2.3106,2.3106,2.3106,2.3106,2.3106,2.3106,2.3106,2.2981,2.2613,2.2606,2.2856,2.2981,2.2731,2.2738,2.248,2.1727,2.1096,2.0709,2.0068,1.9176,1.8542,1.815,1.7776,1.726,1.7001,1.7001,1.7001,1.7001,1.7001,1.7001,1.7001,1.7001,1.7001,1.7001,1.7001,1.7001,1.7001,1.7001,1.7001,1.7001,1.7001,1.7001,1.7001,1.7001,1.7001,1.7001,1.7001,1.7001,1.7001,1.7001,1.7001,1.7001,1.7001,1.7001,1.7001,1.7001,1.7001,1.7001,1.7001,1.7001,1.7001,1.7001,1.7001,1.7001,1.6872,1.6748,1.6618,1.6099,1.5583,1.5057,1.4399,1.3744,1.2955,1.2433,1.1633,1.0969,1.017,0.9241,0.8446,0.7781,0.7517,0.7118,0.6719,0.6587,0.6453,0.6453,0.6453,0.6453,0.6453,0.6453,0.6453,0.6453,0.6453,0.6453,0.6453,0.6453,0.6453,0.6453,2.3106,2.3106,2.3106,2.3106,2.3106,2.3106,2.3106,2.3106,2.3106,2.3106,2.3106,2.3106,2.3106,2.3106,2.3106,2.3106,2.3106,2.3106,2.3106,2.3106,2.3106,2.3106,2.3106,2.3106,2.248,2.2111,2.1859,2.2355,2.248,2.1978,2.1734,2.1601,2.0709,1.9947,1.9297,1.892,1.815,1.7389,1.726,1.713,1.7007,1.7001,1.7001,1.7001,1.7001,1.7001,1.7001,1.7001,1.7001,1.7001,1.7001,1.7001,1.7001,1.7001,1.7001,1.7001,1.7001,1.7001,1.7001,1.7001,1.7001,1.7001,1.7001,1.7001,1.7001,1.7001,1.7001,1.7001,1.7001,1.7001,1.7001,1.7001,1.7001,1.7001,1.7001,1.7001,1.7001,1.7001,1.7001,1.7001,1.7001,1.7001,1.6872,1.6872,1.6742,1.6229,1.5714,1.4922,1.4006,1.2955,1.1633,1.0707,1.0044,0.9244,0.8446,0.7514,0.725,0.6987,0.6719,0.6453,0.6453,0.6453,0.6453,0.6453,0.6453,0.6453,0.6453,0.6453,0.6453,0.6453,0.6453,0.6453,0.6453,0.6453,0.6453,2.3106,2.3106,2.3106,2.3106,2.3106,2.3106,2.3106,2.3106,2.3106,2.3106,2.3106,2.3106,2.3106,2.3106,2.3106,2.3106,2.3106,2.3106,2.3106,2.3106,2.3106,2.3106,2.2981,2.248,2.1859,2.1481,2.1102,2.0843,2.1096,2.1089,2.0716,2.0583,1.982,1.9048,1.8407,1.7899,1.7512,1.713,1.7001,1.7001,1.7001,1.7001,1.7001,1.7001,1.7001,1.7001,1.7001,1.7001,1.7001,1.7001,1.7001,1.7001,1.7001,1.7001,1.7001,1.7001,1.7001,1.7001,1.7001,1.7001,1.7001,1.7001,1.7001,1.7001,1.7001,1.7001,1.7001,1.7001,1.7001,1.7001,1.7001,1.7001,1.7001,1.7001,1.7001,1.7001,1.7001,1.7001,1.7001,1.7001,1.7001,1.6742,1.6608,1.6473,1.6348,1.6224,1.5443,1.4399,1.335,1.2301,1.0843,0.938,0.8851,0.8318,0.765,0.6853,0.6853,0.6721,0.6721,0.6453,0.6453,0.6453,0.6453,0.6453,0.6453,0.6453,0.6453,0.6453,0.6453,0.6453,0.6453,0.6453,0.6453,0.6453,0.6453,2.3106,2.3106,2.3106,2.3106,2.3106,2.3106,2.3106,2.3106,2.3106,2.3106,2.3106,2.3106,2.3106,2.3106,2.3106,2.3106,2.3106,2.3106,2.3106,2.3106,2.3106,2.2981,2.248,2.1859,2.1348,2.0843,2.0075,1.9565,1.931,1.9304,1.9304,1.9559,1.867,1.8156,1.7893,1.7512,1.7001,1.7001,1.7001,1.7001,1.7001,1.7001,1.7001,1.7001,1.7001,1.7001,1.7001,1.7001,1.7001,1.7001,1.7001,1.7001,1.7001,1.7001,1.7001,1.7001,1.7001,1.7001,1.7001,1.7001,1.7001,1.7001,1.7001,1.7001,1.7001,1.7001,1.7001,1.7001,1.7001,1.7001,1.7001,1.7001,1.7001,1.7001,1.7001,1.7001,1.7001,1.7001,1.6872,1.6872,1.6613,1.6219,1.6084,1.5819,1.5819,1.6084,1.5303,1.387,1.2557,1.1376,1.018,0.8587,0.8053,0.7653,0.7252,0.6719,0.6587,0.6453,0.6453,0.6453,0.6453,0.6453,0.6453,0.6453,0.6453,0.6453,0.6453,0.6453,0.6453,0.6453,0.6453,0.6453,0.6453,0.6453,0.6453,2.3106,2.3106,2.3106,2.3106,2.3106,2.3106,2.3106,2.3106,2.3106,2.3106,2.3106,2.3106,2.3106,2.3106,2.3106,2.3106,2.3106,2.3106,2.2981,2.2981,2.2981,2.248,2.1853,2.1222,2.0462,1.9176,1.8664,1.8156,1.7518,1.777,1.8028,1.8285,1.777,1.726,1.713,1.713,1.7001,1.7001,1.7001,1.7001,1.7001,1.7001,1.7001,1.7001,1.7001,1.7001,1.7001,1.7001,1.7001,1.7001,1.7001,1.7001,1.7001,1.7001,1.7001,1.7001,1.7001,1.7001,1.7001,1.7001,1.7001,1.7001,1.7001,1.7001,1.7001,1.7001,1.7001,1.7001,1.7001,1.7001,1.7001,1.7001,1.7001,1.7001,1.7001,1.7001,1.7001,1.7001,1.6872,1.6742,1.6348,1.5824,1.5163,1.4898,1.4633,1.4768,1.4115,1.2812,1.1233,0.9915,0.912,0.8056,0.7522,0.7254,0.7118,0.6853,0.6587,0.6453,0.6453,0.6453,0.6453,0.6453,0.6453,0.6453,0.6453,0.6453,0.6453,0.6453,0.6453,0.6453,0.6453,0.6453,0.6453,0.6453,0.6453,2.3106,2.3106,2.3106,2.3106,2.3106,2.3106,2.3106,2.3106,2.3106,2.3106,2.3106,2.3106,2.3106,2.3106,2.3106,2.3106,2.3106,2.3106,2.2738,2.2362,2.1985,2.1607,2.0843,2.0075,1.9176,1.8407,1.7899,1.7512,1.713,1.7001,1.713,1.726,1.713,1.713,1.7001,1.7001,1.7001,1.7001,1.7001,1.7001,1.7001,1.7001,1.7001,1.7001,1.7001,1.7001,1.7001,1.7001,1.7001,1.7001,1.7001,1.7001,1.7001,1.7001,1.7001,1.7001,1.7001,1.7001,1.7001,1.7001,1.7001,1.7001,1.7001,1.7001,1.7001,1.7001,1.7001,1.7001,1.7001,1.7001,1.7001,1.7001,1.7001,1.7001,1.7001,1.7001,1.7001,1.7001,1.6742,1.6478,1.5824,1.5168,1.4507,1.3849,1.3587,1.3456,1.2668,1.175,1.0174,0.912,0.8587,0.8056,0.7658,0.7254,0.7118,0.6853,0.6587,0.6453,0.6587,0.6453,0.6453,0.6453,0.6453,0.6453,0.6453,0.6453,0.6453,0.6453,0.6453,0.6453,0.6453,0.6453,0.6453,0.6453,0.6453,2.3106,2.3106,2.3106,2.3106,2.3106,2.3106,2.3106,2.3106,2.3106,2.3106,2.3106,2.3106,2.3106,2.3106,2.3106,2.3106,2.2981,2.2731,2.2237,2.1734,2.1229,2.0589,1.9693,1.9048,1.8536,1.8028,1.7512,1.7001,1.7001,1.7001,1.7001,1.7001,1.7001,1.7001,1.7001,1.7001,1.7001,1.7001,1.7001,1.7001,1.7001,1.7001,1.7001,1.7001,1.7001,1.7001,1.7001,1.7001,1.7001,1.7001,1.7001,1.7001,1.7001,1.7001,1.7001,1.7001,1.7001,1.7001,1.7001,1.7001,1.7001,1.7001,1.7001,1.7001,1.7001,1.7001,1.7001,1.7001,1.7001,1.7001,1.7001,1.7001,1.7001,1.7001,1.7001,1.7001,1.7001,1.7001,1.6478,1.6084,1.5163,1.3984,1.2672,1.2014,1.1878,1.1615,1.0958,1.0303,0.9513,0.8853,0.859,0.8192,0.7925,0.7655,0.7386,0.6987,0.6721,0.6721,0.6721,0.6587,0.6453,0.6453,0.6453,0.6453,0.6453,0.6453,0.6453,0.6453,0.6453,0.6453,0.6453,0.6453,0.6453,0.6453,0.6453,2.3106,2.3106,2.3106,2.3106,2.3106,2.3106,2.3106,2.3106,2.3106,2.3106,2.3106,2.3106,2.3106,2.3106,2.3106,2.3106,2.2856,2.2237,2.1607,2.1222,2.0462,1.9565,1.8792,1.8279,1.7899,1.726,1.7001,1.7001,1.7001,1.7001,1.7001,1.7001,1.7001,1.7001,1.7001,1.7001,1.7001,1.7001,1.7001,1.7001,1.7001,1.7001,1.7001,1.7001,1.7001,1.7001,1.7001,1.7001,1.7001,1.7001,1.7001,1.7001,1.7001,1.7001,1.7001,1.7001,1.7001,1.7001,1.7001,1.7001,1.7001,1.7001,1.7001,1.7001,1.7001,1.7001,1.7001,1.7001,1.7001,1.7001,1.7001,1.7001,1.7001,1.7001,1.7001,1.6742,1.6742,1.6478,1.5954,1.5033,1.3718,1.2274,1.0962,1.0044,1.0041,0.9775,0.925,0.8853,0.872,0.8587,0.859,0.8456,0.8192,0.7922,0.7653,0.7254,0.6987,0.6853,0.6719,0.6587,0.6453,0.6453,0.6453,0.6453,0.6453,0.6453,0.6453,0.6453,0.6453,0.6453,0.6453,0.6453,0.6453,0.6453,0.6453,2.3106,2.3106,2.3106,2.3106,2.3106,2.3106,2.3106,2.3106,2.3106,2.3106,2.3106,2.3106,2.3106,2.3106,2.3106,2.3106,2.2856,2.2111,2.1481,2.0456,1.9565,1.8542,1.777,1.7512,1.7389,1.713,1.7001,1.7001,1.7001,1.7001,1.7001,1.7001,1.7001,1.7001,1.7001,1.7001,1.7001,1.7001,1.7001,1.7001,1.7001,1.7001,1.7001,1.7001,1.7001,1.7001,1.7001,1.7001,1.7001,1.7001,1.7001,1.7001,1.7001,1.7001,1.7001,1.7001,1.7001,1.7001,1.7001,1.7001,1.7001,1.7001,1.7001,1.7001,1.7001,1.7001,1.7001,1.7001,1.7001,1.7001,1.7001,1.7001,1.7001,1.7001,1.6872,1.6219,1.5959,1.5564,1.5038,1.3591,1.2274,1.0958,0.9643,0.9383,0.9247,0.9247,0.8853,0.872,0.8587,0.8587,0.8587,0.8454,0.8323,0.8189,0.7922,0.7522,0.7254,0.6987,0.6855,0.6587,0.6453,0.6453,0.6453,0.6453,0.6453,0.6453,0.6453,0.6453,0.6453,0.6453,0.6453,0.6453,0.6453,0.6453,0.6453,2.3106,2.3106,2.3106,2.3106,2.3106,2.3106,2.3106,2.3106,2.3106,2.3106,2.3106,2.3106,2.3106,2.3106,2.3106,2.2738,2.2487,2.1475,2.0456,1.9559,1.8413,1.7641,1.726,1.7001,1.713,1.7001,1.7001,1.7001,1.7001,1.7001,1.7001,1.7001,1.7001,1.7001,1.7001,1.7001,1.7001,1.7001,1.7001,1.7001,1.7001,1.7001,1.7001,1.7001,1.7001,1.7001,1.7001,1.7001,1.7001,1.7001,1.7001,1.7001,1.7001,1.7001,1.7001,1.7001,1.7001,1.7001,1.7001,1.7001,1.7001,1.7001,1.7001,1.7001,1.7001,1.7001,1.7001,1.7001,1.7001,1.7001,1.7001,1.7001,1.7001,1.7001,1.6348,1.5694,1.5038,1.4777,1.3591,1.2274,1.1354,1.0038,0.8984,0.8851,0.872,0.872,0.8587,0.8587,0.8587,0.8587,0.8587,0.8587,0.8454,0.8323,0.8189,0.7922,0.7522,0.7257,0.6855,0.6587,0.6453,0.6453,0.6453,0.6453,0.6453,0.6453,0.6453,0.6453,0.6453,0.6453,0.6453,0.6453,0.6453,0.6453,0.6319,2.3091,2.3098,2.3106,2.3106,2.3106,2.3106,2.3106,2.3106,2.3106,2.3106,2.3106,2.3106,2.3106,2.3106,2.3106,2.2606,2.1734,2.0709,1.9686,1.8664,1.777,1.726,1.7001,1.7001,1.7001,1.7001,1.7001,1.7001,1.7001,1.7001,1.7001,1.7001,1.7001,1.7001,1.7001,1.7001,1.7001,1.7001,1.7001,1.7001,1.7001,1.7001,1.7001,1.7001,1.7001,1.7001,1.7001,1.7001,1.7001,1.7001,1.7001,1.7001,1.7001,1.7001,1.7001,1.7001,1.7001,1.7001,1.7001,1.7001,1.7001,1.7001,1.7001,1.7001,1.7001,1.7001,1.7001,1.7001,1.7001,1.7001,1.7001,1.7001,1.6872,1.6348,1.5694,1.4907,1.425,1.346,1.2146,1.1226,1.07,0.9779,0.8851,0.8587,0.8587,0.8587,0.8587,0.8587,0.8587,0.8587,0.8587,0.8587,0.8587,0.8587,0.8323,0.8056,0.7658,0.739,0.6987,0.6719,0.6587,0.6453,0.6453,0.6453,0.6453,0.6453,0.6453,0.6453,0.6319,0.6319,0.5915,0.6319,0.6319,0.5915,0.578,2.2762,2.2784,2.301,2.3106,2.3106,2.3106,2.3106,2.3106,2.3106,2.3106,2.3106,2.3106,2.3106,2.3106,2.3106,2.248,2.1475,2.0589,1.9559,1.8407,1.7389,1.713,1.7001,1.7001,1.7001,1.7001,1.7001,1.7001,1.7001,1.7001,1.7001,1.7001,1.7001,1.7001,1.7001,1.7001,1.7001,1.7001,1.7001,1.7001,1.7001,1.7001,1.7001,1.7001,1.7001,1.7001,1.7001,1.7001,1.7001,1.7001,1.7001,1.7001,1.7001,1.7001,1.7001,1.7001,1.7001,1.7001,1.7001,1.7001,1.7001,1.7001,1.7001,1.7001,1.7001,1.7001,1.7001,1.7001,1.7001,1.7001,1.7001,1.7001,1.6478,1.5694,1.4907,1.3984,1.3198,1.1882,1.0697,1.0038,0.9646,0.9513,0.872,0.8587,0.8587,0.8587,0.8587,0.8587,0.8587,0.8587,0.8587,0.8587,0.8587,0.8587,0.8323,0.8056,0.7791,0.7524,0.7123,0.6853,0.6587,0.6453,0.6453,0.6453,0.6453,0.6453,0.6453,0.6319,0.5914,0.5242,0.4838,0.5512,0.5915,0.5376,0.497,2.252,2.2645,2.2835,2.2981,2.3098,2.3106,2.3106,2.3106,2.3106,2.3106,2.3106,2.3106,2.3106,2.2988,2.2606,2.1853,2.0969,1.982,1.8792,1.7899,1.7383,1.713,1.7001,1.7001,1.7001,1.7001,1.7001,1.7001,1.7001,1.7001,1.7001,1.7001,1.7001,1.7001,1.7001,1.7001,1.7001,1.7001,1.7001,1.7001,1.7001,1.7001,1.7001,1.7001,1.7001,1.7001,1.7001,1.7001,1.7001,1.7001,1.7001,1.7001,1.7001,1.7001,1.7001,1.7001,1.7001,1.7001,1.7001,1.7001,1.7001,1.7001,1.7001,1.7001,1.7001,1.7001,1.7001,1.7001,1.7001,1.7001,1.7001,1.6872,1.5954,1.5038,1.4119,1.3066,1.175,1.0435,0.9513,0.8851,0.872,0.872,0.8587,0.8587,0.8587,0.8587,0.8587,0.8587,0.8587,0.8587,0.8587,0.8587,0.8587,0.8587,0.8323,0.8189,0.7925,0.7658,0.739,0.6989,0.6721,0.6453,0.6453,0.6453,0.6453,0.6319,0.6049,0.5646,0.5242,0.4434,0.3627,0.3761,0.3895,0.3759,0.3491,2.2301,2.2535,2.2601,2.2806,2.3054,2.3084,2.3106,2.3106,2.3106,2.3106,2.3106,2.3106,2.3106,2.2981,2.248,2.1601,2.0716,1.9814,1.8792,1.726,1.7389,1.726,1.7001,1.7001,1.7001,1.7001,1.7001,1.7001,1.7001,1.7001,1.7001,1.7001,1.7001,1.7001,1.7001,1.7001,1.7001,1.7001,1.7001,1.7001,1.7001,1.7001,1.7001,1.7001,1.7001,1.7001,1.7001,1.7001,1.7001,1.7001,1.7001,1.7001,1.7001,1.7001,1.7001,1.7001,1.7001,1.7001,1.7001,1.7001,1.7001,1.7001,1.7001,1.7001,1.7001,1.7001,1.7001,1.7001,1.7001,1.7001,1.7001,1.6348,1.5564,1.425,1.3066,1.1882,1.0568,0.9513,0.9117,0.8587,0.8587,0.8587,0.8587,0.8587,0.8587,0.8587,0.8587,0.8587,0.8587,0.8587,0.8587,0.8587,0.8587,0.8587,0.859,0.8323,0.8058,0.7791,0.7526,0.7125,0.6587,0.6453,0.6453,0.6049,0.5646,0.5646,0.551,0.4702,0.3895,0.3224,0.2418,0.188,0.1879,0.1746,0.188,2.1854,2.1972,2.2425,2.2674,2.2769,2.3003,2.3091,2.3106,2.3106,2.3084,2.3106,2.3098,2.3106,2.2981,2.2731,2.1978,2.1222,2.0456,1.9686,1.8536,1.8028,1.7518,1.713,1.7001,1.7001,1.7001,1.7001,1.7001,1.7001,1.7001,1.7001,1.7001,1.7001,1.7001,1.7001,1.7001,1.7001,1.7001,1.7001,1.7001,1.7001,1.7001,1.7001,1.7001,1.7001,1.7001,1.7001,1.7001,1.7001,1.7001,1.7001,1.7001,1.7001,1.7001,1.7001,1.7001,1.7001,1.7001,1.7001,1.7001,1.7001,1.7001,1.7001,1.7001,1.7001,1.7001,1.7001,1.7001,1.7001,1.7001,1.6742,1.5954,1.5038,1.3591,1.2146,1.0829,0.938,0.8984,0.8587,0.8587,0.8587,0.8587,0.8587,0.8587,0.8587,0.8587,0.8587,0.8587,0.8587,0.8587,0.8587,0.8587,0.8587,0.8587,0.859,0.8456,0.8192,0.7791,0.739,0.6989,0.6589,0.6185,0.5915,0.5108,0.4704,0.4568,0.4029,0.3088,0.2282,0.1881,0.1075,0.0403,-0.0269,-0.0538,-0.0134,2.1569,2.1752,2.222,2.2432,2.2462,2.263,2.2703,2.2703,2.2696,2.2776,2.2915,2.3032,2.3106,2.2981,2.2606,2.2362,2.1607,2.1102,1.9814,1.8792,1.8536,1.777,1.7389,1.7001,1.7001,1.7001,1.7001,1.7001,1.7001,1.7001,1.7001,1.7001,1.7001,1.7001,1.7001,1.7001,1.7001,1.7001,1.7001,1.7001,1.7001,1.7001,1.7001,1.7001,1.7001,1.7001,1.7001,1.7001,1.7001,1.7001,1.7001,1.7001,1.7001,1.7001,1.7001,1.7001,1.7001,1.7001,1.7001,1.7001,1.7001,1.7001,1.7001,1.7001,1.7001,1.7001,1.7001,1.7001,1.7001,1.7001,1.6608,1.5954,1.4642,1.3198,1.175,1.0435,0.938,0.872,0.8587,0.8587,0.8587,0.8587,0.8587,0.8587,0.8587,0.8587,0.8587,0.8587,0.8587,0.8587,0.8587,0.8587,0.8587,0.8587,0.8587,0.8456,0.8192,0.7791,0.739,0.6989,0.6453,0.578,0.5108,0.43,0.3627,0.3088,0.2416,0.1611,0.1074,0.0806,-0.0134,-0.1211,-0.1885,-0.2155,-0.1615,2.1379,2.1664,2.1986,2.2125,2.2132,2.2176,2.2206,2.2206,2.2198,2.2345,2.2571,2.2842,2.3003,2.2724,2.223,2.1978,2.1727,2.1601,2.0189,1.9304,1.8926,1.8279,1.7641,1.7136,1.7001,1.7001,1.7001,1.7001,1.7001,1.7001,1.7001,1.7001,1.7001,1.7001,1.7001,1.7001,1.7001,1.7001,1.7001,1.7001,1.7001,1.7001,1.7001,1.7001,1.7001,1.7001,1.7001,1.7001,1.7001,1.7001,1.7001,1.7001,1.7001,1.7001,1.7001,1.7001,1.7001,1.7001,1.7001,1.7001,1.7001,1.7001,1.7001,1.7001,1.7001,1.7001,1.7001,1.7001,1.7001,1.6613,1.6348,1.5294,1.3979,1.2541,1.1226,1.0041,0.9247,0.8587,0.8587,0.8587,0.8587,0.8587,0.8587,0.8587,0.8587,0.8587,0.8587,0.8587,0.8587,0.8587,0.8587,0.8587,0.8587,0.8587,0.8587,0.8456,0.8189,0.7794,0.7393,0.6989,0.6182,0.497,0.3895,0.3224,0.2551,0.1746,0.1074,0.0134,-0.0134,-0.0403,-0.0942,-0.175,-0.1885,-0.2155,-0.2155,2.1247,2.1335,2.1657,2.1789,2.1825,2.2059,2.2184,2.2176,2.2162,2.2228,2.2264,2.2345,2.2593,2.3098,2.2981,2.2731,2.248,2.2223,2.1853,2.1096,1.9947,1.9048,1.815,1.713,1.7001,1.7001,1.7001,1.7001,1.7001,1.7001,1.7001,1.7001,1.7001,1.7001,1.7001,1.7001,1.7001,1.7001,1.7001,1.7001,1.7001,1.7001,1.7001,1.7001,1.7001,1.7001,1.7001,1.7001,1.7001,1.7001,1.7001,1.7001,1.7001,1.7001,1.7001,1.7001,1.7001,1.7001,1.7001,1.7001,1.7001,1.7001,1.7001,1.7001,1.7001,1.7001,1.7001,1.7007,1.6742,1.6089,1.5559,1.3979,1.2668,1.1226,0.9911,0.938,0.872,0.8587,0.8587,0.8587,0.8587,0.8587,0.8587,0.8587,0.8587,0.8587,0.8587,0.8587,0.8587,0.8587,0.8587,0.8587,0.8587,0.8587,0.8587,0.8454,0.8323,0.7794,0.7125,0.6317,0.5104,0.349,0.2551,0.188,0.1075,0.0134,-0.0672,-0.0941,-0.1211,-0.148,-0.175,-0.2155,-0.2155,-0.2155,-0.2155]}]]